<?xml version="1.0" encoding="UTF-8" standalone="no" ?>
<gpx xmlns="http://www.topografix.com/GPX/1/1" xmlns:xsi="http://www.w3.org/2001/XMLSchema-instance" xsi:schemaLocation="http://www.topografix.com/GPX/1/1 http://www.topografix.com/GPX/1/1/gpx.xsd" version="1.1" creator="VisuGPX - https://www.visugpx.com">
  <metadata>
    <name>Champagnat Cyclisme sur route</name>
  </metadata>
  <trk>
    <name><![CDATA[Champagnat Cyclisme sur route]]></name>
    <trkseg>
      <trkpt lat="46.48263" lon="5.36831">
        <ele>268.60000610352</ele>
        <time>2022-05-31T12:11:54.000Z</time>
      </trkpt>
      <trkpt lat="46.48253" lon="5.3682">
        <ele>267.79998779297</ele>
        <time>2022-05-31T12:11:55.000Z</time>
      </trkpt>
      <trkpt lat="46.48242" lon="5.36811">
        <ele>266.60000610352</ele>
        <time>2022-05-31T12:11:56.000Z</time>
      </trkpt>
      <trkpt lat="46.48221" lon="5.36793">
        <ele>265.20001220703</ele>
        <time>2022-05-31T12:11:58.000Z</time>
      </trkpt>
      <trkpt lat="46.48211" lon="5.36784">
        <ele>263.79998779297</ele>
        <time>2022-05-31T12:11:59.000Z</time>
      </trkpt>
      <trkpt lat="46.4819" lon="5.36766">
        <ele>262</ele>
        <time>2022-05-31T12:12:01.000Z</time>
      </trkpt>
      <trkpt lat="46.48169" lon="5.36749">
        <ele>260.79998779297</ele>
        <time>2022-05-31T12:12:03.000Z</time>
      </trkpt>
      <trkpt lat="46.48139" lon="5.36725">
        <ele>259.60000610352</ele>
        <time>2022-05-31T12:12:06.000Z</time>
      </trkpt>
      <trkpt lat="46.48129" lon="5.36717">
        <ele>259</ele>
        <time>2022-05-31T12:12:07.000Z</time>
      </trkpt>
      <trkpt lat="46.48121" lon="5.36711">
        <ele>258.20001220703</ele>
        <time>2022-05-31T12:12:08.000Z</time>
      </trkpt>
      <trkpt lat="46.48114" lon="5.36705">
        <ele>257.79998779297</ele>
        <time>2022-05-31T12:12:09.000Z</time>
      </trkpt>
      <trkpt lat="46.4811" lon="5.36697">
        <ele>257.20001220703</ele>
        <time>2022-05-31T12:12:10.000Z</time>
      </trkpt>
      <trkpt lat="46.48114" lon="5.36682">
        <ele>255.80000305176</ele>
        <time>2022-05-31T12:12:12.000Z</time>
      </trkpt>
      <trkpt lat="46.48126" lon="5.36669">
        <ele>254.39999389648</ele>
        <time>2022-05-31T12:12:14.000Z</time>
      </trkpt>
      <trkpt lat="46.48139" lon="5.36655">
        <ele>253.60000610352</ele>
        <time>2022-05-31T12:12:16.000Z</time>
      </trkpt>
      <trkpt lat="46.48146" lon="5.36647">
        <ele>252.80000305176</ele>
        <time>2022-05-31T12:12:17.000Z</time>
      </trkpt>
      <trkpt lat="46.48166" lon="5.36626">
        <ele>251.60000610352</ele>
        <time>2022-05-31T12:12:20.000Z</time>
      </trkpt>
      <trkpt lat="46.48178" lon="5.36611">
        <ele>251</ele>
        <time>2022-05-31T12:12:22.000Z</time>
      </trkpt>
      <trkpt lat="46.48185" lon="5.36606">
        <ele>250.80000305176</ele>
        <time>2022-05-31T12:12:23.000Z</time>
      </trkpt>
      <trkpt lat="46.48201" lon="5.36601">
        <ele>250.60000610352</ele>
        <time>2022-05-31T12:12:25.000Z</time>
      </trkpt>
      <trkpt lat="46.48209" lon="5.36598">
        <ele>250.39999389648</ele>
        <time>2022-05-31T12:12:26.000Z</time>
      </trkpt>
      <trkpt lat="46.48215" lon="5.36591">
        <ele>250.39999389648</ele>
        <time>2022-05-31T12:12:27.000Z</time>
      </trkpt>
      <trkpt lat="46.48219" lon="5.36582">
        <ele>250.19999694824</ele>
        <time>2022-05-31T12:12:28.000Z</time>
      </trkpt>
      <trkpt lat="46.48227" lon="5.36563">
        <ele>250</ele>
        <time>2022-05-31T12:12:30.000Z</time>
      </trkpt>
      <trkpt lat="46.48245" lon="5.3654">
        <ele>249.60000610352</ele>
        <time>2022-05-31T12:12:33.000Z</time>
      </trkpt>
      <trkpt lat="46.48251" lon="5.36532">
        <ele>249.39999389648</ele>
        <time>2022-05-31T12:12:34.000Z</time>
      </trkpt>
      <trkpt lat="46.48286" lon="5.36493">
        <ele>248.80000305176</ele>
        <time>2022-05-31T12:12:39.000Z</time>
      </trkpt>
      <trkpt lat="46.48293" lon="5.36485">
        <ele>248.39999389648</ele>
        <time>2022-05-31T12:12:40.000Z</time>
      </trkpt>
      <trkpt lat="46.48322" lon="5.36454">
        <ele>247.60000610352</ele>
        <time>2022-05-31T12:12:44.000Z</time>
      </trkpt>
      <trkpt lat="46.48338" lon="5.36437">
        <ele>247.19999694824</ele>
        <time>2022-05-31T12:12:46.000Z</time>
      </trkpt>
      <trkpt lat="46.48361" lon="5.36411">
        <ele>246.19999694824</ele>
        <time>2022-05-31T12:12:49.000Z</time>
      </trkpt>
      <trkpt lat="46.48384" lon="5.36386">
        <ele>245.19999694824</ele>
        <time>2022-05-31T12:12:52.000Z</time>
      </trkpt>
      <trkpt lat="46.48392" lon="5.36378">
        <ele>245.19999694824</ele>
        <time>2022-05-31T12:12:53.000Z</time>
      </trkpt>
      <trkpt lat="46.48417" lon="5.36358">
        <ele>244.39999389648</ele>
        <time>2022-05-31T12:12:56.000Z</time>
      </trkpt>
      <trkpt lat="46.48426" lon="5.36354">
        <ele>244.39999389648</ele>
        <time>2022-05-31T12:12:57.000Z</time>
      </trkpt>
      <trkpt lat="46.48435" lon="5.36351">
        <ele>244.39999389648</ele>
        <time>2022-05-31T12:12:58.000Z</time>
      </trkpt>
      <trkpt lat="46.48453" lon="5.36347">
        <ele>244</ele>
        <time>2022-05-31T12:13:00.000Z</time>
      </trkpt>
      <trkpt lat="46.48462" lon="5.36346">
        <ele>243.60000610352</ele>
        <time>2022-05-31T12:13:01.000Z</time>
      </trkpt>
      <trkpt lat="46.48515" lon="5.36337">
        <ele>243</ele>
        <time>2022-05-31T12:13:07.000Z</time>
      </trkpt>
      <trkpt lat="46.48524" lon="5.36336">
        <ele>242.80000305176</ele>
        <time>2022-05-31T12:13:08.000Z</time>
      </trkpt>
      <trkpt lat="46.48532" lon="5.36334">
        <ele>242.80000305176</ele>
        <time>2022-05-31T12:13:09.000Z</time>
      </trkpt>
      <trkpt lat="46.48595" lon="5.36324">
        <ele>242.19999694824</ele>
        <time>2022-05-31T12:13:16.000Z</time>
      </trkpt>
      <trkpt lat="46.48602" lon="5.36323">
        <ele>242</ele>
        <time>2022-05-31T12:13:17.000Z</time>
      </trkpt>
      <trkpt lat="46.48611" lon="5.36321">
        <ele>241.60000610352</ele>
        <time>2022-05-31T12:13:18.000Z</time>
      </trkpt>
      <trkpt lat="46.48628" lon="5.36306">
        <ele>240.80000305176</ele>
        <time>2022-05-31T12:13:20.000Z</time>
      </trkpt>
      <trkpt lat="46.48633" lon="5.36293">
        <ele>240.39999389648</ele>
        <time>2022-05-31T12:13:21.000Z</time>
      </trkpt>
      <trkpt lat="46.48635" lon="5.36282">
        <ele>240</ele>
        <time>2022-05-31T12:13:22.000Z</time>
      </trkpt>
      <trkpt lat="46.48639" lon="5.36253">
        <ele>239.19999694824</ele>
        <time>2022-05-31T12:13:24.000Z</time>
      </trkpt>
      <trkpt lat="46.48643" lon="5.3621">
        <ele>238</ele>
        <time>2022-05-31T12:13:27.000Z</time>
      </trkpt>
      <trkpt lat="46.48646" lon="5.36167">
        <ele>237</ele>
        <time>2022-05-31T12:13:30.000Z</time>
      </trkpt>
      <trkpt lat="46.48652" lon="5.36127">
        <ele>236.19999694824</ele>
        <time>2022-05-31T12:13:33.000Z</time>
      </trkpt>
      <trkpt lat="46.48657" lon="5.361">
        <ele>236.19999694824</ele>
        <time>2022-05-31T12:13:35.000Z</time>
      </trkpt>
      <trkpt lat="46.4867" lon="5.36039">
        <ele>235.80000305176</ele>
        <time>2022-05-31T12:13:40.000Z</time>
      </trkpt>
      <trkpt lat="46.48674" lon="5.36018">
        <ele>235.80000305176</ele>
        <time>2022-05-31T12:13:42.000Z</time>
      </trkpt>
      <trkpt lat="46.48678" lon="5.35988">
        <ele>236</ele>
        <time>2022-05-31T12:13:45.000Z</time>
      </trkpt>
      <trkpt lat="46.4868" lon="5.35979">
        <ele>236.19999694824</ele>
        <time>2022-05-31T12:13:46.000Z</time>
      </trkpt>
      <trkpt lat="46.48685" lon="5.3595">
        <ele>236.80000305176</ele>
        <time>2022-05-31T12:13:49.000Z</time>
      </trkpt>
      <trkpt lat="46.48688" lon="5.35929">
        <ele>237.19999694824</ele>
        <time>2022-05-31T12:13:51.000Z</time>
      </trkpt>
      <trkpt lat="46.48689" lon="5.35918">
        <ele>237.39999389648</ele>
        <time>2022-05-31T12:13:52.000Z</time>
      </trkpt>
      <trkpt lat="46.48695" lon="5.359">
        <ele>237.39999389648</ele>
        <time>2022-05-31T12:13:54.000Z</time>
      </trkpt>
      <trkpt lat="46.48716" lon="5.35848">
        <ele>237.39999389648</ele>
        <time>2022-05-31T12:13:59.000Z</time>
      </trkpt>
      <trkpt lat="46.48742" lon="5.35786">
        <ele>236</ele>
        <time>2022-05-31T12:14:05.000Z</time>
      </trkpt>
      <trkpt lat="46.48747" lon="5.35777">
        <ele>235.80000305176</ele>
        <time>2022-05-31T12:14:06.000Z</time>
      </trkpt>
      <trkpt lat="46.48765" lon="5.35737">
        <ele>234.80000305176</ele>
        <time>2022-05-31T12:14:10.000Z</time>
      </trkpt>
      <trkpt lat="46.48777" lon="5.35708">
        <ele>234.60000610352</ele>
        <time>2022-05-31T12:14:13.000Z</time>
      </trkpt>
      <trkpt lat="46.48809" lon="5.35637">
        <ele>234.19999694824</ele>
        <time>2022-05-31T12:14:21.000Z</time>
      </trkpt>
      <trkpt lat="46.48829" lon="5.35593">
        <ele>234.19999694824</ele>
        <time>2022-05-31T12:14:26.000Z</time>
      </trkpt>
      <trkpt lat="46.48861" lon="5.3552">
        <ele>234.80000305176</ele>
        <time>2022-05-31T12:14:35.000Z</time>
      </trkpt>
      <trkpt lat="46.4889" lon="5.35451">
        <ele>234.80000305176</ele>
        <time>2022-05-31T12:14:43.000Z</time>
      </trkpt>
      <trkpt lat="46.48894" lon="5.35442">
        <ele>234.80000305176</ele>
        <time>2022-05-31T12:14:44.000Z</time>
      </trkpt>
      <trkpt lat="46.48925" lon="5.35371">
        <ele>234</ele>
        <time>2022-05-31T12:14:52.000Z</time>
      </trkpt>
      <trkpt lat="46.48929" lon="5.35362">
        <ele>233.80000305176</ele>
        <time>2022-05-31T12:14:53.000Z</time>
      </trkpt>
      <trkpt lat="46.48949" lon="5.35317">
        <ele>233.19999694824</ele>
        <time>2022-05-31T12:14:58.000Z</time>
      </trkpt>
      <trkpt lat="46.48979" lon="5.3525">
        <ele>232.80000305176</ele>
        <time>2022-05-31T12:15:06.000Z</time>
      </trkpt>
      <trkpt lat="46.48983" lon="5.35242">
        <ele>232.80000305176</ele>
        <time>2022-05-31T12:15:07.000Z</time>
      </trkpt>
      <trkpt lat="46.4901" lon="5.35183">
        <ele>233.60000610352</ele>
        <time>2022-05-31T12:15:15.000Z</time>
      </trkpt>
      <trkpt lat="46.49015" lon="5.35168">
        <ele>233.80000305176</ele>
        <time>2022-05-31T12:15:17.000Z</time>
      </trkpt>
      <trkpt lat="46.49028" lon="5.35138">
        <ele>234.39999389648</ele>
        <time>2022-05-31T12:15:21.000Z</time>
      </trkpt>
      <trkpt lat="46.49034" lon="5.35121">
        <ele>234.60000610352</ele>
        <time>2022-05-31T12:15:23.000Z</time>
      </trkpt>
      <trkpt lat="46.49042" lon="5.35092">
        <ele>234.80000305176</ele>
        <time>2022-05-31T12:15:26.000Z</time>
      </trkpt>
      <trkpt lat="46.49044" lon="5.35083">
        <ele>234.80000305176</ele>
        <time>2022-05-31T12:15:27.000Z</time>
      </trkpt>
      <trkpt lat="46.49056" lon="5.35019">
        <ele>234.80000305176</ele>
        <time>2022-05-31T12:15:33.000Z</time>
      </trkpt>
      <trkpt lat="46.4906" lon="5.34997">
        <ele>234.80000305176</ele>
        <time>2022-05-31T12:15:35.000Z</time>
      </trkpt>
      <trkpt lat="46.49067" lon="5.34963">
        <ele>234.39999389648</ele>
        <time>2022-05-31T12:15:38.000Z</time>
      </trkpt>
      <trkpt lat="46.49071" lon="5.3494">
        <ele>233.80000305176</ele>
        <time>2022-05-31T12:15:40.000Z</time>
      </trkpt>
      <trkpt lat="46.49082" lon="5.34882">
        <ele>232.60000610352</ele>
        <time>2022-05-31T12:15:45.000Z</time>
      </trkpt>
      <trkpt lat="46.49087" lon="5.34857">
        <ele>232.39999389648</ele>
        <time>2022-05-31T12:15:47.000Z</time>
      </trkpt>
      <trkpt lat="46.49095" lon="5.3481">
        <ele>231.60000610352</ele>
        <time>2022-05-31T12:15:51.000Z</time>
      </trkpt>
      <trkpt lat="46.49097" lon="5.34798">
        <ele>231.39999389648</ele>
        <time>2022-05-31T12:15:52.000Z</time>
      </trkpt>
      <trkpt lat="46.49111" lon="5.34729">
        <ele>230.19999694824</ele>
        <time>2022-05-31T12:15:58.000Z</time>
      </trkpt>
      <trkpt lat="46.49116" lon="5.34704">
        <ele>229.80000305176</ele>
        <time>2022-05-31T12:16:00.000Z</time>
      </trkpt>
      <trkpt lat="46.49129" lon="5.34642">
        <ele>229</ele>
        <time>2022-05-31T12:16:05.000Z</time>
      </trkpt>
      <trkpt lat="46.49133" lon="5.34621">
        <ele>228.80000305176</ele>
        <time>2022-05-31T12:16:07.000Z</time>
      </trkpt>
      <trkpt lat="46.49136" lon="5.34611">
        <ele>228.80000305176</ele>
        <time>2022-05-31T12:16:08.000Z</time>
      </trkpt>
      <trkpt lat="46.49144" lon="5.34572">
        <ele>229</ele>
        <time>2022-05-31T12:16:12.000Z</time>
      </trkpt>
      <trkpt lat="46.49158" lon="5.34506">
        <ele>229.19999694824</ele>
        <time>2022-05-31T12:16:18.000Z</time>
      </trkpt>
      <trkpt lat="46.4917" lon="5.34434">
        <ele>229.19999694824</ele>
        <time>2022-05-31T12:16:24.000Z</time>
      </trkpt>
      <trkpt lat="46.49183" lon="5.3436">
        <ele>229</ele>
        <time>2022-05-31T12:16:31.000Z</time>
      </trkpt>
      <trkpt lat="46.49191" lon="5.34311">
        <ele>229.19999694824</ele>
        <time>2022-05-31T12:16:36.000Z</time>
      </trkpt>
      <trkpt lat="46.49205" lon="5.34243">
        <ele>229.80000305176</ele>
        <time>2022-05-31T12:16:42.000Z</time>
      </trkpt>
      <trkpt lat="46.4922" lon="5.34165">
        <ele>229.19999694824</ele>
        <time>2022-05-31T12:16:49.000Z</time>
      </trkpt>
      <trkpt lat="46.49222" lon="5.34155">
        <ele>229</ele>
        <time>2022-05-31T12:16:50.000Z</time>
      </trkpt>
      <trkpt lat="46.49234" lon="5.34098">
        <ele>228.80000305176</ele>
        <time>2022-05-31T12:16:56.000Z</time>
      </trkpt>
      <trkpt lat="46.49241" lon="5.34059">
        <ele>229.80000305176</ele>
        <time>2022-05-31T12:17:01.000Z</time>
      </trkpt>
      <trkpt lat="46.49242" lon="5.34051">
        <ele>230</ele>
        <time>2022-05-31T12:17:02.000Z</time>
      </trkpt>
      <trkpt lat="46.49243" lon="5.34043">
        <ele>230.39999389648</ele>
        <time>2022-05-31T12:17:03.000Z</time>
      </trkpt>
      <trkpt lat="46.49246" lon="5.34027">
        <ele>231</ele>
        <time>2022-05-31T12:17:05.000Z</time>
      </trkpt>
      <trkpt lat="46.49249" lon="5.34018">
        <ele>231.19999694824</ele>
        <time>2022-05-31T12:17:06.000Z</time>
      </trkpt>
      <trkpt lat="46.49255" lon="5.33992">
        <ele>231.60000610352</ele>
        <time>2022-05-31T12:17:09.000Z</time>
      </trkpt>
      <trkpt lat="46.49261" lon="5.33963">
        <ele>231.80000305176</ele>
        <time>2022-05-31T12:17:12.000Z</time>
      </trkpt>
      <trkpt lat="46.49276" lon="5.33893">
        <ele>232</ele>
        <time>2022-05-31T12:17:19.000Z</time>
      </trkpt>
      <trkpt lat="46.49277" lon="5.33883">
        <ele>232</ele>
        <time>2022-05-31T12:17:20.000Z</time>
      </trkpt>
      <trkpt lat="46.49286" lon="5.33834">
        <ele>232</ele>
        <time>2022-05-31T12:17:25.000Z</time>
      </trkpt>
      <trkpt lat="46.493" lon="5.33748">
        <ele>232.39999389648</ele>
        <time>2022-05-31T12:17:33.000Z</time>
      </trkpt>
      <trkpt lat="46.49303" lon="5.33726">
        <ele>232.39999389648</ele>
        <time>2022-05-31T12:17:35.000Z</time>
      </trkpt>
      <trkpt lat="46.49306" lon="5.33684">
        <ele>231.80000305176</ele>
        <time>2022-05-31T12:17:39.000Z</time>
      </trkpt>
      <trkpt lat="46.49311" lon="5.33604">
        <ele>231</ele>
        <time>2022-05-31T12:17:46.000Z</time>
      </trkpt>
      <trkpt lat="46.49313" lon="5.33593">
        <ele>230.80000305176</ele>
        <time>2022-05-31T12:17:47.000Z</time>
      </trkpt>
      <trkpt lat="46.4932" lon="5.33552">
        <ele>230.60000610352</ele>
        <time>2022-05-31T12:17:51.000Z</time>
      </trkpt>
      <trkpt lat="46.4932" lon="5.33528">
        <ele>230.60000610352</ele>
        <time>2022-05-31T12:17:53.000Z</time>
      </trkpt>
      <trkpt lat="46.4932" lon="5.33517">
        <ele>230.39999389648</ele>
        <time>2022-05-31T12:17:54.000Z</time>
      </trkpt>
      <trkpt lat="46.49309" lon="5.33441">
        <ele>230.60000610352</ele>
        <time>2022-05-31T12:18:01.000Z</time>
      </trkpt>
      <trkpt lat="46.49293" lon="5.33365">
        <ele>230.60000610352</ele>
        <time>2022-05-31T12:18:08.000Z</time>
      </trkpt>
      <trkpt lat="46.49291" lon="5.33353">
        <ele>230.39999389648</ele>
        <time>2022-05-31T12:18:09.000Z</time>
      </trkpt>
      <trkpt lat="46.49276" lon="5.33272">
        <ele>230</ele>
        <time>2022-05-31T12:18:16.000Z</time>
      </trkpt>
      <trkpt lat="46.49274" lon="5.33261">
        <ele>229.80000305176</ele>
        <time>2022-05-31T12:18:17.000Z</time>
      </trkpt>
      <trkpt lat="46.49268" lon="5.33239">
        <ele>229.39999389648</ele>
        <time>2022-05-31T12:18:19.000Z</time>
      </trkpt>
      <trkpt lat="46.49256" lon="5.33207">
        <ele>229</ele>
        <time>2022-05-31T12:18:22.000Z</time>
      </trkpt>
      <trkpt lat="46.49246" lon="5.33192">
        <ele>228.39999389648</ele>
        <time>2022-05-31T12:18:24.000Z</time>
      </trkpt>
      <trkpt lat="46.4924" lon="5.33185">
        <ele>228.39999389648</ele>
        <time>2022-05-31T12:18:25.000Z</time>
      </trkpt>
      <trkpt lat="46.49232" lon="5.33179">
        <ele>228</ele>
        <time>2022-05-31T12:18:26.000Z</time>
      </trkpt>
      <trkpt lat="46.492" lon="5.33155">
        <ele>227.19999694824</ele>
        <time>2022-05-31T12:18:30.000Z</time>
      </trkpt>
      <trkpt lat="46.49185" lon="5.33142">
        <ele>226.80000305176</ele>
        <time>2022-05-31T12:18:32.000Z</time>
      </trkpt>
      <trkpt lat="46.49171" lon="5.33128">
        <ele>226.39999389648</ele>
        <time>2022-05-31T12:18:34.000Z</time>
      </trkpt>
      <trkpt lat="46.49165" lon="5.3312">
        <ele>226.19999694824</ele>
        <time>2022-05-31T12:18:35.000Z</time>
      </trkpt>
      <trkpt lat="46.49148" lon="5.33083">
        <ele>225.60000610352</ele>
        <time>2022-05-31T12:18:39.000Z</time>
      </trkpt>
      <trkpt lat="46.49136" lon="5.33042">
        <ele>225.60000610352</ele>
        <time>2022-05-31T12:18:43.000Z</time>
      </trkpt>
      <trkpt lat="46.49134" lon="5.33031">
        <ele>225.39999389648</ele>
        <time>2022-05-31T12:18:44.000Z</time>
      </trkpt>
      <trkpt lat="46.49125" lon="5.32955">
        <ele>225</ele>
        <time>2022-05-31T12:18:51.000Z</time>
      </trkpt>
      <trkpt lat="46.49124" lon="5.32919">
        <ele>224.60000610352</ele>
        <time>2022-05-31T12:18:54.000Z</time>
      </trkpt>
      <trkpt lat="46.49125" lon="5.32895">
        <ele>224.19999694824</ele>
        <time>2022-05-31T12:18:56.000Z</time>
      </trkpt>
      <trkpt lat="46.49127" lon="5.32884">
        <ele>224.19999694824</ele>
        <time>2022-05-31T12:18:57.000Z</time>
      </trkpt>
      <trkpt lat="46.49141" lon="5.32829">
        <ele>223.80000305176</ele>
        <time>2022-05-31T12:19:02.000Z</time>
      </trkpt>
      <trkpt lat="46.49143" lon="5.32807">
        <ele>223.60000610352</ele>
        <time>2022-05-31T12:19:04.000Z</time>
      </trkpt>
      <trkpt lat="46.49142" lon="5.32788">
        <ele>223.60000610352</ele>
        <time>2022-05-31T12:19:06.000Z</time>
      </trkpt>
      <trkpt lat="46.49133" lon="5.32737">
        <ele>224.19999694824</ele>
        <time>2022-05-31T12:19:11.000Z</time>
      </trkpt>
      <trkpt lat="46.49126" lon="5.32718">
        <ele>224.39999389648</ele>
        <time>2022-05-31T12:19:13.000Z</time>
      </trkpt>
      <trkpt lat="46.49116" lon="5.32701">
        <ele>224.39999389648</ele>
        <time>2022-05-31T12:19:15.000Z</time>
      </trkpt>
      <trkpt lat="46.4911" lon="5.32696">
        <ele>224.39999389648</ele>
        <time>2022-05-31T12:19:16.000Z</time>
      </trkpt>
      <trkpt lat="46.49102" lon="5.32694">
        <ele>224.39999389648</ele>
        <time>2022-05-31T12:19:17.000Z</time>
      </trkpt>
      <trkpt lat="46.49086" lon="5.32695">
        <ele>224.39999389648</ele>
        <time>2022-05-31T12:19:19.000Z</time>
      </trkpt>
      <trkpt lat="46.49077" lon="5.32696">
        <ele>224.19999694824</ele>
        <time>2022-05-31T12:19:20.000Z</time>
      </trkpt>
      <trkpt lat="46.49044" lon="5.32702">
        <ele>223.39999389648</ele>
        <time>2022-05-31T12:19:24.000Z</time>
      </trkpt>
      <trkpt lat="46.49014" lon="5.32708">
        <ele>222.80000305176</ele>
        <time>2022-05-31T12:19:27.000Z</time>
      </trkpt>
      <trkpt lat="46.48995" lon="5.32709">
        <ele>221.80000305176</ele>
        <time>2022-05-31T12:19:29.000Z</time>
      </trkpt>
      <trkpt lat="46.48986" lon="5.32709">
        <ele>221</ele>
        <time>2022-05-31T12:19:30.000Z</time>
      </trkpt>
      <trkpt lat="46.48976" lon="5.32708">
        <ele>220.60000610352</ele>
        <time>2022-05-31T12:19:31.000Z</time>
      </trkpt>
      <trkpt lat="46.48956" lon="5.327">
        <ele>219.39999389648</ele>
        <time>2022-05-31T12:19:33.000Z</time>
      </trkpt>
      <trkpt lat="46.48947" lon="5.32694">
        <ele>218.80000305176</ele>
        <time>2022-05-31T12:19:34.000Z</time>
      </trkpt>
      <trkpt lat="46.48938" lon="5.32687">
        <ele>217.80000305176</ele>
        <time>2022-05-31T12:19:35.000Z</time>
      </trkpt>
      <trkpt lat="46.48929" lon="5.32678">
        <ele>217.39999389648</ele>
        <time>2022-05-31T12:19:36.000Z</time>
      </trkpt>
      <trkpt lat="46.48916" lon="5.32657">
        <ele>216.60000610352</ele>
        <time>2022-05-31T12:19:38.000Z</time>
      </trkpt>
      <trkpt lat="46.48914" lon="5.32644">
        <ele>215.60000610352</ele>
        <time>2022-05-31T12:19:39.000Z</time>
      </trkpt>
      <trkpt lat="46.48917" lon="5.3263">
        <ele>215</ele>
        <time>2022-05-31T12:19:40.000Z</time>
      </trkpt>
      <trkpt lat="46.48922" lon="5.32617">
        <ele>214.39999389648</ele>
        <time>2022-05-31T12:19:41.000Z</time>
      </trkpt>
      <trkpt lat="46.48928" lon="5.32605">
        <ele>213.39999389648</ele>
        <time>2022-05-31T12:19:42.000Z</time>
      </trkpt>
      <trkpt lat="46.48943" lon="5.32582">
        <ele>211.80000305176</ele>
        <time>2022-05-31T12:19:44.000Z</time>
      </trkpt>
      <trkpt lat="46.48949" lon="5.32571">
        <ele>211.60000610352</ele>
        <time>2022-05-31T12:19:45.000Z</time>
      </trkpt>
      <trkpt lat="46.48955" lon="5.32541">
        <ele>210.80000305176</ele>
        <time>2022-05-31T12:19:47.000Z</time>
      </trkpt>
      <trkpt lat="46.4895" lon="5.3251">
        <ele>209.60000610352</ele>
        <time>2022-05-31T12:19:49.000Z</time>
      </trkpt>
      <trkpt lat="46.48948" lon="5.325">
        <ele>209.39999389648</ele>
        <time>2022-05-31T12:19:50.000Z</time>
      </trkpt>
      <trkpt lat="46.48939" lon="5.32472">
        <ele>208.60000610352</ele>
        <time>2022-05-31T12:19:52.000Z</time>
      </trkpt>
      <trkpt lat="46.48928" lon="5.32435">
        <ele>207.80000305176</ele>
        <time>2022-05-31T12:19:55.000Z</time>
      </trkpt>
      <trkpt lat="46.48909" lon="5.32364">
        <ele>207.60000610352</ele>
        <time>2022-05-31T12:20:01.000Z</time>
      </trkpt>
      <trkpt lat="46.48897" lon="5.32335">
        <ele>208</ele>
        <time>2022-05-31T12:20:04.000Z</time>
      </trkpt>
      <trkpt lat="46.48893" lon="5.32327">
        <ele>208</ele>
        <time>2022-05-31T12:20:05.000Z</time>
      </trkpt>
      <trkpt lat="46.48873" lon="5.32296">
        <ele>208.60000610352</ele>
        <time>2022-05-31T12:20:10.000Z</time>
      </trkpt>
      <trkpt lat="46.4886" lon="5.32276">
        <ele>209.80000305176</ele>
        <time>2022-05-31T12:20:14.000Z</time>
      </trkpt>
      <trkpt lat="46.48851" lon="5.32262">
        <ele>210.80000305176</ele>
        <time>2022-05-31T12:20:17.000Z</time>
      </trkpt>
      <trkpt lat="46.48841" lon="5.32245">
        <ele>212.19999694824</ele>
        <time>2022-05-31T12:20:21.000Z</time>
      </trkpt>
      <trkpt lat="46.48839" lon="5.32241">
        <ele>212.60000610352</ele>
        <time>2022-05-31T12:20:22.000Z</time>
      </trkpt>
      <trkpt lat="46.48836" lon="5.32235">
        <ele>213.19999694824</ele>
        <time>2022-05-31T12:20:23.000Z</time>
      </trkpt>
      <trkpt lat="46.48833" lon="5.32229">
        <ele>213.60000610352</ele>
        <time>2022-05-31T12:20:24.000Z</time>
      </trkpt>
      <trkpt lat="46.4883" lon="5.32214">
        <ele>214</ele>
        <time>2022-05-31T12:20:26.000Z</time>
      </trkpt>
      <trkpt lat="46.48829" lon="5.32208">
        <ele>214.19999694824</ele>
        <time>2022-05-31T12:20:27.000Z</time>
      </trkpt>
      <trkpt lat="46.48825" lon="5.32149">
        <ele>214</ele>
        <time>2022-05-31T12:20:33.000Z</time>
      </trkpt>
      <trkpt lat="46.48825" lon="5.32136">
        <ele>214</ele>
        <time>2022-05-31T12:20:34.000Z</time>
      </trkpt>
      <trkpt lat="46.4883" lon="5.32104">
        <ele>213.39999389648</ele>
        <time>2022-05-31T12:20:37.000Z</time>
      </trkpt>
      <trkpt lat="46.48841" lon="5.32048">
        <ele>212.39999389648</ele>
        <time>2022-05-31T12:20:42.000Z</time>
      </trkpt>
      <trkpt lat="46.48844" lon="5.32028">
        <ele>211.80000305176</ele>
        <time>2022-05-31T12:20:44.000Z</time>
      </trkpt>
      <trkpt lat="46.48849" lon="5.31982">
        <ele>211.39999389648</ele>
        <time>2022-05-31T12:20:48.000Z</time>
      </trkpt>
      <trkpt lat="46.48848" lon="5.3197">
        <ele>211.19999694824</ele>
        <time>2022-05-31T12:20:49.000Z</time>
      </trkpt>
      <trkpt lat="46.48843" lon="5.31896">
        <ele>210.60000610352</ele>
        <time>2022-05-31T12:20:55.000Z</time>
      </trkpt>
      <trkpt lat="46.48841" lon="5.31884">
        <ele>210.19999694824</ele>
        <time>2022-05-31T12:20:56.000Z</time>
      </trkpt>
      <trkpt lat="46.48837" lon="5.31873">
        <ele>210.19999694824</ele>
        <time>2022-05-31T12:20:57.000Z</time>
      </trkpt>
      <trkpt lat="46.48826" lon="5.31858">
        <ele>209.80000305176</ele>
        <time>2022-05-31T12:20:59.000Z</time>
      </trkpt>
      <trkpt lat="46.48811" lon="5.31849">
        <ele>209.60000610352</ele>
        <time>2022-05-31T12:21:01.000Z</time>
      </trkpt>
      <trkpt lat="46.48804" lon="5.31846">
        <ele>209.19999694824</ele>
        <time>2022-05-31T12:21:02.000Z</time>
      </trkpt>
      <trkpt lat="46.48796" lon="5.31842">
        <ele>209.19999694824</ele>
        <time>2022-05-31T12:21:03.000Z</time>
      </trkpt>
      <trkpt lat="46.48785" lon="5.31828">
        <ele>209</ele>
        <time>2022-05-31T12:21:05.000Z</time>
      </trkpt>
      <trkpt lat="46.48782" lon="5.31807">
        <ele>209</ele>
        <time>2022-05-31T12:21:07.000Z</time>
      </trkpt>
      <trkpt lat="46.48781" lon="5.31796">
        <ele>209</ele>
        <time>2022-05-31T12:21:08.000Z</time>
      </trkpt>
      <trkpt lat="46.48777" lon="5.31731">
        <ele>209</ele>
        <time>2022-05-31T12:21:14.000Z</time>
      </trkpt>
      <trkpt lat="46.48774" lon="5.31721">
        <ele>209</ele>
        <time>2022-05-31T12:21:15.000Z</time>
      </trkpt>
      <trkpt lat="46.4877" lon="5.31712">
        <ele>209.19999694824</ele>
        <time>2022-05-31T12:21:16.000Z</time>
      </trkpt>
      <trkpt lat="46.48761" lon="5.31697">
        <ele>209.19999694824</ele>
        <time>2022-05-31T12:21:18.000Z</time>
      </trkpt>
      <trkpt lat="46.48756" lon="5.31691">
        <ele>209.19999694824</ele>
        <time>2022-05-31T12:21:19.000Z</time>
      </trkpt>
      <trkpt lat="46.48724" lon="5.31653">
        <ele>209.60000610352</ele>
        <time>2022-05-31T12:21:25.000Z</time>
      </trkpt>
      <trkpt lat="46.48678" lon="5.31596">
        <ele>210</ele>
        <time>2022-05-31T12:21:34.000Z</time>
      </trkpt>
      <trkpt lat="46.48672" lon="5.31589">
        <ele>210</ele>
        <time>2022-05-31T12:21:35.000Z</time>
      </trkpt>
      <trkpt lat="46.48646" lon="5.31557">
        <ele>210.19999694824</ele>
        <time>2022-05-31T12:21:40.000Z</time>
      </trkpt>
      <trkpt lat="46.48637" lon="5.31546">
        <ele>210.39999389648</ele>
        <time>2022-05-31T12:21:42.000Z</time>
      </trkpt>
      <trkpt lat="46.48627" lon="5.31533">
        <ele>210.19999694824</ele>
        <time>2022-05-31T12:21:44.000Z</time>
      </trkpt>
      <trkpt lat="46.48615" lon="5.31513">
        <ele>210.19999694824</ele>
        <time>2022-05-31T12:21:47.000Z</time>
      </trkpt>
      <trkpt lat="46.48612" lon="5.31496">
        <ele>210.19999694824</ele>
        <time>2022-05-31T12:21:49.000Z</time>
      </trkpt>
      <trkpt lat="46.48611" lon="5.31487">
        <ele>210</ele>
        <time>2022-05-31T12:21:50.000Z</time>
      </trkpt>
      <trkpt lat="46.48611" lon="5.31476">
        <ele>210</ele>
        <time>2022-05-31T12:21:51.000Z</time>
      </trkpt>
      <trkpt lat="46.4861" lon="5.31454">
        <ele>209.80000305176</ele>
        <time>2022-05-31T12:21:53.000Z</time>
      </trkpt>
      <trkpt lat="46.48608" lon="5.31444">
        <ele>209.80000305176</ele>
        <time>2022-05-31T12:21:54.000Z</time>
      </trkpt>
      <trkpt lat="46.48606" lon="5.31434">
        <ele>209.80000305176</ele>
        <time>2022-05-31T12:21:55.000Z</time>
      </trkpt>
      <trkpt lat="46.48599" lon="5.31416">
        <ele>209.80000305176</ele>
        <time>2022-05-31T12:21:57.000Z</time>
      </trkpt>
      <trkpt lat="46.48595" lon="5.3141">
        <ele>209.80000305176</ele>
        <time>2022-05-31T12:21:58.000Z</time>
      </trkpt>
      <trkpt lat="46.4857" lon="5.31378">
        <ele>210.80000305176</ele>
        <time>2022-05-31T12:22:04.000Z</time>
      </trkpt>
      <trkpt lat="46.48565" lon="5.31367">
        <ele>211</ele>
        <time>2022-05-31T12:22:06.000Z</time>
      </trkpt>
      <trkpt lat="46.48563" lon="5.31362">
        <ele>211.39999389648</ele>
        <time>2022-05-31T12:22:07.000Z</time>
      </trkpt>
      <trkpt lat="46.48562" lon="5.31356">
        <ele>211.60000610352</ele>
        <time>2022-05-31T12:22:08.000Z</time>
      </trkpt>
      <trkpt lat="46.48559" lon="5.31344">
        <ele>212.60000610352</ele>
        <time>2022-05-31T12:22:10.000Z</time>
      </trkpt>
      <trkpt lat="46.48558" lon="5.31337">
        <ele>212.60000610352</ele>
        <time>2022-05-31T12:22:11.000Z</time>
      </trkpt>
      <trkpt lat="46.48557" lon="5.31318">
        <ele>213.19999694824</ele>
        <time>2022-05-31T12:22:14.000Z</time>
      </trkpt>
      <trkpt lat="46.48555" lon="5.31303">
        <ele>214</ele>
        <time>2022-05-31T12:22:16.000Z</time>
      </trkpt>
      <trkpt lat="46.48553" lon="5.31272">
        <ele>215</ele>
        <time>2022-05-31T12:22:20.000Z</time>
      </trkpt>
      <trkpt lat="46.48553" lon="5.31264">
        <ele>215.39999389648</ele>
        <time>2022-05-31T12:22:21.000Z</time>
      </trkpt>
      <trkpt lat="46.48553" lon="5.31256">
        <ele>215.39999389648</ele>
        <time>2022-05-31T12:22:22.000Z</time>
      </trkpt>
      <trkpt lat="46.48555" lon="5.31239">
        <ele>215.60000610352</ele>
        <time>2022-05-31T12:22:24.000Z</time>
      </trkpt>
      <trkpt lat="46.48557" lon="5.31232">
        <ele>215.80000305176</ele>
        <time>2022-05-31T12:22:25.000Z</time>
      </trkpt>
      <trkpt lat="46.48565" lon="5.31212">
        <ele>216.39999389648</ele>
        <time>2022-05-31T12:22:28.000Z</time>
      </trkpt>
      <trkpt lat="46.48575" lon="5.31192">
        <ele>216.80000305176</ele>
        <time>2022-05-31T12:22:31.000Z</time>
      </trkpt>
      <trkpt lat="46.48588" lon="5.31165">
        <ele>217.60000610352</ele>
        <time>2022-05-31T12:22:35.000Z</time>
      </trkpt>
      <trkpt lat="46.486" lon="5.3114">
        <ele>218.39999389648</ele>
        <time>2022-05-31T12:22:39.000Z</time>
      </trkpt>
      <trkpt lat="46.48606" lon="5.31129">
        <ele>218.60000610352</ele>
        <time>2022-05-31T12:22:41.000Z</time>
      </trkpt>
      <trkpt lat="46.48625" lon="5.3109">
        <ele>219.80000305176</ele>
        <time>2022-05-31T12:22:47.000Z</time>
      </trkpt>
      <trkpt lat="46.48628" lon="5.31083">
        <ele>220</ele>
        <time>2022-05-31T12:22:48.000Z</time>
      </trkpt>
      <trkpt lat="46.48643" lon="5.31052">
        <ele>221</ele>
        <time>2022-05-31T12:22:53.000Z</time>
      </trkpt>
      <trkpt lat="46.48655" lon="5.31027">
        <ele>221.39999389648</ele>
        <time>2022-05-31T12:22:57.000Z</time>
      </trkpt>
      <trkpt lat="46.48664" lon="5.31008">
        <ele>222</ele>
        <time>2022-05-31T12:23:00.000Z</time>
      </trkpt>
      <trkpt lat="46.48686" lon="5.30964">
        <ele>223.19999694824</ele>
        <time>2022-05-31T12:23:07.000Z</time>
      </trkpt>
      <trkpt lat="46.48705" lon="5.30926">
        <ele>223.39999389648</ele>
        <time>2022-05-31T12:23:12.000Z</time>
      </trkpt>
      <trkpt lat="46.48716" lon="5.30912">
        <ele>223.39999389648</ele>
        <time>2022-05-31T12:23:14.000Z</time>
      </trkpt>
      <trkpt lat="46.48721" lon="5.30903">
        <ele>223.39999389648</ele>
        <time>2022-05-31T12:23:15.000Z</time>
      </trkpt>
      <trkpt lat="46.48723" lon="5.30892">
        <ele>223.19999694824</ele>
        <time>2022-05-31T12:23:16.000Z</time>
      </trkpt>
      <trkpt lat="46.48722" lon="5.30883">
        <ele>222.60000610352</ele>
        <time>2022-05-31T12:23:17.000Z</time>
      </trkpt>
      <trkpt lat="46.48719" lon="5.3087">
        <ele>222.60000610352</ele>
        <time>2022-05-31T12:23:18.000Z</time>
      </trkpt>
      <trkpt lat="46.48715" lon="5.30861">
        <ele>222</ele>
        <time>2022-05-31T12:23:19.000Z</time>
      </trkpt>
      <trkpt lat="46.48709" lon="5.30852">
        <ele>221.19999694824</ele>
        <time>2022-05-31T12:23:20.000Z</time>
      </trkpt>
      <trkpt lat="46.48703" lon="5.30846">
        <ele>220.60000610352</ele>
        <time>2022-05-31T12:23:21.000Z</time>
      </trkpt>
      <trkpt lat="46.48696" lon="5.3084">
        <ele>220.60000610352</ele>
        <time>2022-05-31T12:23:22.000Z</time>
      </trkpt>
      <trkpt lat="46.48681" lon="5.3083">
        <ele>220</ele>
        <time>2022-05-31T12:23:24.000Z</time>
      </trkpt>
      <trkpt lat="46.48674" lon="5.30825">
        <ele>219.60000610352</ele>
        <time>2022-05-31T12:23:25.000Z</time>
      </trkpt>
      <trkpt lat="46.48643" lon="5.30806">
        <ele>218.80000305176</ele>
        <time>2022-05-31T12:23:29.000Z</time>
      </trkpt>
      <trkpt lat="46.48612" lon="5.30785">
        <ele>217.80000305176</ele>
        <time>2022-05-31T12:23:33.000Z</time>
      </trkpt>
      <trkpt lat="46.48605" lon="5.30779">
        <ele>217.80000305176</ele>
        <time>2022-05-31T12:23:34.000Z</time>
      </trkpt>
      <trkpt lat="46.48574" lon="5.30752">
        <ele>217.39999389648</ele>
        <time>2022-05-31T12:23:39.000Z</time>
      </trkpt>
      <trkpt lat="46.48565" lon="5.3074">
        <ele>217.80000305176</ele>
        <time>2022-05-31T12:23:41.000Z</time>
      </trkpt>
      <trkpt lat="46.48557" lon="5.30727">
        <ele>218</ele>
        <time>2022-05-31T12:23:43.000Z</time>
      </trkpt>
      <trkpt lat="46.48549" lon="5.30705">
        <ele>218.60000610352</ele>
        <time>2022-05-31T12:23:46.000Z</time>
      </trkpt>
      <trkpt lat="46.48547" lon="5.30698">
        <ele>218.80000305176</ele>
        <time>2022-05-31T12:23:47.000Z</time>
      </trkpt>
      <trkpt lat="46.48545" lon="5.3069">
        <ele>219</ele>
        <time>2022-05-31T12:23:48.000Z</time>
      </trkpt>
      <trkpt lat="46.48544" lon="5.30684">
        <ele>219.39999389648</ele>
        <time>2022-05-31T12:23:49.000Z</time>
      </trkpt>
      <trkpt lat="46.48544" lon="5.30672">
        <ele>220</ele>
        <time>2022-05-31T12:23:51.000Z</time>
      </trkpt>
      <trkpt lat="46.48544" lon="5.30664">
        <ele>220</ele>
        <time>2022-05-31T12:23:52.000Z</time>
      </trkpt>
      <trkpt lat="46.48548" lon="5.30621">
        <ele>221</ele>
        <time>2022-05-31T12:23:58.000Z</time>
      </trkpt>
      <trkpt lat="46.48552" lon="5.30586">
        <ele>222.19999694824</ele>
        <time>2022-05-31T12:24:03.000Z</time>
      </trkpt>
      <trkpt lat="46.48553" lon="5.30572">
        <ele>222.80000305176</ele>
        <time>2022-05-31T12:24:05.000Z</time>
      </trkpt>
      <trkpt lat="46.48553" lon="5.30557">
        <ele>223.19999694824</ele>
        <time>2022-05-31T12:24:07.000Z</time>
      </trkpt>
      <trkpt lat="46.48554" lon="5.30551">
        <ele>223.60000610352</ele>
        <time>2022-05-31T12:24:08.000Z</time>
      </trkpt>
      <trkpt lat="46.48555" lon="5.30544">
        <ele>223.80000305176</ele>
        <time>2022-05-31T12:24:09.000Z</time>
      </trkpt>
      <trkpt lat="46.48558" lon="5.30516">
        <ele>224.19999694824</ele>
        <time>2022-05-31T12:24:13.000Z</time>
      </trkpt>
      <trkpt lat="46.48559" lon="5.30505">
        <ele>224.39999389648</ele>
        <time>2022-05-31T12:24:15.000Z</time>
      </trkpt>
      <trkpt lat="46.48557" lon="5.30499">
        <ele>224.60000610352</ele>
        <time>2022-05-31T12:24:16.000Z</time>
      </trkpt>
      <trkpt lat="46.48553" lon="5.30496">
        <ele>224.80000305176</ele>
        <time>2022-05-31T12:24:17.000Z</time>
      </trkpt>
      <trkpt lat="46.48548" lon="5.30496">
        <ele>224.80000305176</ele>
        <time>2022-05-31T12:24:18.000Z</time>
      </trkpt>
      <trkpt lat="46.48544" lon="5.30497">
        <ele>224.80000305176</ele>
        <time>2022-05-31T12:24:19.000Z</time>
      </trkpt>
      <trkpt lat="46.48539" lon="5.305">
        <ele>224.80000305176</ele>
        <time>2022-05-31T12:24:20.000Z</time>
      </trkpt>
      <trkpt lat="46.48524" lon="5.3051">
        <ele>225</ele>
        <time>2022-05-31T12:24:23.000Z</time>
      </trkpt>
      <trkpt lat="46.48483" lon="5.30545">
        <ele>225.60000610352</ele>
        <time>2022-05-31T12:24:31.000Z</time>
      </trkpt>
      <trkpt lat="46.48472" lon="5.30555">
        <ele>225.80000305176</ele>
        <time>2022-05-31T12:24:33.000Z</time>
      </trkpt>
      <trkpt lat="46.48426" lon="5.30598">
        <ele>225.60000610352</ele>
        <time>2022-05-31T12:24:42.000Z</time>
      </trkpt>
      <trkpt lat="46.48383" lon="5.30638">
        <ele>224.80000305176</ele>
        <time>2022-05-31T12:24:50.000Z</time>
      </trkpt>
      <trkpt lat="46.48378" lon="5.30643">
        <ele>224.60000610352</ele>
        <time>2022-05-31T12:24:51.000Z</time>
      </trkpt>
      <trkpt lat="46.48338" lon="5.3068">
        <ele>224</ele>
        <time>2022-05-31T12:24:58.000Z</time>
      </trkpt>
      <trkpt lat="46.48318" lon="5.30691">
        <ele>223.60000610352</ele>
        <time>2022-05-31T12:25:01.000Z</time>
      </trkpt>
      <trkpt lat="46.48306" lon="5.30695">
        <ele>223.39999389648</ele>
        <time>2022-05-31T12:25:03.000Z</time>
      </trkpt>
      <trkpt lat="46.48285" lon="5.30695">
        <ele>223</ele>
        <time>2022-05-31T12:25:06.000Z</time>
      </trkpt>
      <trkpt lat="46.48273" lon="5.30692">
        <ele>222.80000305176</ele>
        <time>2022-05-31T12:25:08.000Z</time>
      </trkpt>
      <trkpt lat="46.48237" lon="5.30682">
        <ele>223.19999694824</ele>
        <time>2022-05-31T12:25:14.000Z</time>
      </trkpt>
      <trkpt lat="46.48222" lon="5.3068">
        <ele>223.60000610352</ele>
        <time>2022-05-31T12:25:17.000Z</time>
      </trkpt>
      <trkpt lat="46.48206" lon="5.30683">
        <ele>223.80000305176</ele>
        <time>2022-05-31T12:25:20.000Z</time>
      </trkpt>
      <trkpt lat="46.48174" lon="5.30698">
        <ele>224.60000610352</ele>
        <time>2022-05-31T12:25:27.000Z</time>
      </trkpt>
      <trkpt lat="46.48166" lon="5.30703">
        <ele>224.80000305176</ele>
        <time>2022-05-31T12:25:29.000Z</time>
      </trkpt>
      <trkpt lat="46.48138" lon="5.30721">
        <ele>225.60000610352</ele>
        <time>2022-05-31T12:25:35.000Z</time>
      </trkpt>
      <trkpt lat="46.48133" lon="5.30724">
        <ele>225.80000305176</ele>
        <time>2022-05-31T12:25:36.000Z</time>
      </trkpt>
      <trkpt lat="46.48104" lon="5.3074">
        <ele>227</ele>
        <time>2022-05-31T12:25:42.000Z</time>
      </trkpt>
      <trkpt lat="46.48052" lon="5.30767">
        <ele>227.80000305176</ele>
        <time>2022-05-31T12:25:52.000Z</time>
      </trkpt>
      <trkpt lat="46.48009" lon="5.30792">
        <ele>227.80000305176</ele>
        <time>2022-05-31T12:25:59.000Z</time>
      </trkpt>
      <trkpt lat="46.47955" lon="5.30816">
        <ele>226.39999389648</ele>
        <time>2022-05-31T12:26:07.000Z</time>
      </trkpt>
      <trkpt lat="46.47941" lon="5.30817">
        <ele>226</ele>
        <time>2022-05-31T12:26:09.000Z</time>
      </trkpt>
      <trkpt lat="46.47923" lon="5.30815">
        <ele>225.80000305176</ele>
        <time>2022-05-31T12:26:12.000Z</time>
      </trkpt>
      <trkpt lat="46.47894" lon="5.30803">
        <ele>226.39999389648</ele>
        <time>2022-05-31T12:26:18.000Z</time>
      </trkpt>
      <trkpt lat="46.4788" lon="5.30799">
        <ele>227.19999694824</ele>
        <time>2022-05-31T12:26:21.000Z</time>
      </trkpt>
      <trkpt lat="46.47866" lon="5.30796">
        <ele>228.19999694824</ele>
        <time>2022-05-31T12:26:24.000Z</time>
      </trkpt>
      <trkpt lat="46.47861" lon="5.30795">
        <ele>228.39999389648</ele>
        <time>2022-05-31T12:26:25.000Z</time>
      </trkpt>
      <trkpt lat="46.47856" lon="5.30794">
        <ele>228.60000610352</ele>
        <time>2022-05-31T12:26:26.000Z</time>
      </trkpt>
      <trkpt lat="46.47848" lon="5.30788">
        <ele>229.19999694824</ele>
        <time>2022-05-31T12:26:28.000Z</time>
      </trkpt>
      <trkpt lat="46.47843" lon="5.30784">
        <ele>229.60000610352</ele>
        <time>2022-05-31T12:26:29.000Z</time>
      </trkpt>
      <trkpt lat="46.47838" lon="5.30778">
        <ele>229.60000610352</ele>
        <time>2022-05-31T12:26:30.000Z</time>
      </trkpt>
      <trkpt lat="46.47826" lon="5.30771">
        <ele>229.80000305176</ele>
        <time>2022-05-31T12:26:32.000Z</time>
      </trkpt>
      <trkpt lat="46.47819" lon="5.30769">
        <ele>230</ele>
        <time>2022-05-31T12:26:33.000Z</time>
      </trkpt>
      <trkpt lat="46.4778" lon="5.30771">
        <ele>229.60000610352</ele>
        <time>2022-05-31T12:26:38.000Z</time>
      </trkpt>
      <trkpt lat="46.4773" lon="5.30779">
        <ele>228.39999389648</ele>
        <time>2022-05-31T12:26:45.000Z</time>
      </trkpt>
      <trkpt lat="46.47724" lon="5.30781">
        <ele>228.39999389648</ele>
        <time>2022-05-31T12:26:46.000Z</time>
      </trkpt>
      <trkpt lat="46.47687" lon="5.30787">
        <ele>228.60000610352</ele>
        <time>2022-05-31T12:26:52.000Z</time>
      </trkpt>
      <trkpt lat="46.47634" lon="5.30795">
        <ele>229.19999694824</ele>
        <time>2022-05-31T12:27:01.000Z</time>
      </trkpt>
      <trkpt lat="46.47578" lon="5.30804">
        <ele>229.19999694824</ele>
        <time>2022-05-31T12:27:10.000Z</time>
      </trkpt>
      <trkpt lat="46.47526" lon="5.30816">
        <ele>229</ele>
        <time>2022-05-31T12:27:18.000Z</time>
      </trkpt>
      <trkpt lat="46.47486" lon="5.30834">
        <ele>228.80000305176</ele>
        <time>2022-05-31T12:27:24.000Z</time>
      </trkpt>
      <trkpt lat="46.47428" lon="5.30865">
        <ele>228.39999389648</ele>
        <time>2022-05-31T12:27:32.000Z</time>
      </trkpt>
      <trkpt lat="46.47379" lon="5.30887">
        <ele>228.19999694824</ele>
        <time>2022-05-31T12:27:39.000Z</time>
      </trkpt>
      <trkpt lat="46.47347" lon="5.30896">
        <ele>228.19999694824</ele>
        <time>2022-05-31T12:27:44.000Z</time>
      </trkpt>
      <trkpt lat="46.47339" lon="5.30893">
        <ele>228.19999694824</ele>
        <time>2022-05-31T12:27:45.000Z</time>
      </trkpt>
      <trkpt lat="46.47334" lon="5.30888">
        <ele>228.19999694824</ele>
        <time>2022-05-31T12:27:46.000Z</time>
      </trkpt>
      <trkpt lat="46.4733" lon="5.30881">
        <ele>228.19999694824</ele>
        <time>2022-05-31T12:27:47.000Z</time>
      </trkpt>
      <trkpt lat="46.47328" lon="5.30872">
        <ele>228.19999694824</ele>
        <time>2022-05-31T12:27:48.000Z</time>
      </trkpt>
      <trkpt lat="46.47325" lon="5.30843">
        <ele>228</ele>
        <time>2022-05-31T12:27:51.000Z</time>
      </trkpt>
      <trkpt lat="46.47321" lon="5.30788">
        <ele>227.39999389648</ele>
        <time>2022-05-31T12:27:56.000Z</time>
      </trkpt>
      <trkpt lat="46.4732" lon="5.30777">
        <ele>227.19999694824</ele>
        <time>2022-05-31T12:27:57.000Z</time>
      </trkpt>
      <trkpt lat="46.47317" lon="5.30696">
        <ele>227.60000610352</ele>
        <time>2022-05-31T12:28:05.000Z</time>
      </trkpt>
      <trkpt lat="46.47317" lon="5.30686">
        <ele>227.60000610352</ele>
        <time>2022-05-31T12:28:06.000Z</time>
      </trkpt>
      <trkpt lat="46.47315" lon="5.30666">
        <ele>227.80000305176</ele>
        <time>2022-05-31T12:28:08.000Z</time>
      </trkpt>
      <trkpt lat="46.47311" lon="5.30649">
        <ele>228</ele>
        <time>2022-05-31T12:28:10.000Z</time>
      </trkpt>
      <trkpt lat="46.47302" lon="5.30634">
        <ele>228.19999694824</ele>
        <time>2022-05-31T12:28:12.000Z</time>
      </trkpt>
      <trkpt lat="46.47292" lon="5.30623">
        <ele>228.19999694824</ele>
        <time>2022-05-31T12:28:14.000Z</time>
      </trkpt>
      <trkpt lat="46.47288" lon="5.30617">
        <ele>228.60000610352</ele>
        <time>2022-05-31T12:28:15.000Z</time>
      </trkpt>
      <trkpt lat="46.47264" lon="5.30587">
        <ele>228.39999389648</ele>
        <time>2022-05-31T12:28:20.000Z</time>
      </trkpt>
      <trkpt lat="46.47244" lon="5.30568">
        <ele>228.39999389648</ele>
        <time>2022-05-31T12:28:24.000Z</time>
      </trkpt>
      <trkpt lat="46.4723" lon="5.3056">
        <ele>228.39999389648</ele>
        <time>2022-05-31T12:28:26.000Z</time>
      </trkpt>
      <trkpt lat="46.47217" lon="5.30557">
        <ele>228</ele>
        <time>2022-05-31T12:28:28.000Z</time>
      </trkpt>
      <trkpt lat="46.47204" lon="5.30557">
        <ele>228.19999694824</ele>
        <time>2022-05-31T12:28:30.000Z</time>
      </trkpt>
      <trkpt lat="46.47161" lon="5.30558">
        <ele>228.19999694824</ele>
        <time>2022-05-31T12:28:37.000Z</time>
      </trkpt>
      <trkpt lat="46.47148" lon="5.30555">
        <ele>228.39999389648</ele>
        <time>2022-05-31T12:28:39.000Z</time>
      </trkpt>
      <trkpt lat="46.47126" lon="5.30545">
        <ele>228.60000610352</ele>
        <time>2022-05-31T12:28:43.000Z</time>
      </trkpt>
      <trkpt lat="46.47079" lon="5.30513">
        <ele>229.19999694824</ele>
        <time>2022-05-31T12:28:51.000Z</time>
      </trkpt>
      <trkpt lat="46.47034" lon="5.30474">
        <ele>229.39999389648</ele>
        <time>2022-05-31T12:28:59.000Z</time>
      </trkpt>
      <trkpt lat="46.46988" lon="5.30434">
        <ele>228.19999694824</ele>
        <time>2022-05-31T12:29:07.000Z</time>
      </trkpt>
      <trkpt lat="46.46982" lon="5.30429">
        <ele>228.19999694824</ele>
        <time>2022-05-31T12:29:08.000Z</time>
      </trkpt>
      <trkpt lat="46.46938" lon="5.30399">
        <ele>228</ele>
        <time>2022-05-31T12:29:15.000Z</time>
      </trkpt>
      <trkpt lat="46.46891" lon="5.3038">
        <ele>227.60000610352</ele>
        <time>2022-05-31T12:29:23.000Z</time>
      </trkpt>
      <trkpt lat="46.46884" lon="5.30376">
        <ele>227.60000610352</ele>
        <time>2022-05-31T12:29:24.000Z</time>
      </trkpt>
      <trkpt lat="46.46854" lon="5.30352">
        <ele>227.60000610352</ele>
        <time>2022-05-31T12:29:30.000Z</time>
      </trkpt>
      <trkpt lat="46.4682" lon="5.3031">
        <ele>227.60000610352</ele>
        <time>2022-05-31T12:29:37.000Z</time>
      </trkpt>
      <trkpt lat="46.46776" lon="5.30258">
        <ele>228.19999694824</ele>
        <time>2022-05-31T12:29:46.000Z</time>
      </trkpt>
      <trkpt lat="46.46766" lon="5.30246">
        <ele>228.80000305176</ele>
        <time>2022-05-31T12:29:48.000Z</time>
      </trkpt>
      <trkpt lat="46.46742" lon="5.30214">
        <ele>229</ele>
        <time>2022-05-31T12:29:53.000Z</time>
      </trkpt>
      <trkpt lat="46.46738" lon="5.30206">
        <ele>229.19999694824</ele>
        <time>2022-05-31T12:29:54.000Z</time>
      </trkpt>
      <trkpt lat="46.46723" lon="5.30152">
        <ele>228.80000305176</ele>
        <time>2022-05-31T12:30:00.000Z</time>
      </trkpt>
      <trkpt lat="46.46707" lon="5.30087">
        <ele>228.39999389648</ele>
        <time>2022-05-31T12:30:06.000Z</time>
      </trkpt>
      <trkpt lat="46.4669" lon="5.30027">
        <ele>227.80000305176</ele>
        <time>2022-05-31T12:30:12.000Z</time>
      </trkpt>
      <trkpt lat="46.46683" lon="5.29999">
        <ele>227.60000610352</ele>
        <time>2022-05-31T12:30:15.000Z</time>
      </trkpt>
      <trkpt lat="46.46671" lon="5.29957">
        <ele>227.39999389648</ele>
        <time>2022-05-31T12:30:20.000Z</time>
      </trkpt>
      <trkpt lat="46.46654" lon="5.29895">
        <ele>228.19999694824</ele>
        <time>2022-05-31T12:30:27.000Z</time>
      </trkpt>
      <trkpt lat="46.46642" lon="5.29849">
        <ele>228.80000305176</ele>
        <time>2022-05-31T12:30:32.000Z</time>
      </trkpt>
      <trkpt lat="46.46639" lon="5.29841">
        <ele>228.80000305176</ele>
        <time>2022-05-31T12:30:33.000Z</time>
      </trkpt>
      <trkpt lat="46.46637" lon="5.29831">
        <ele>229</ele>
        <time>2022-05-31T12:30:34.000Z</time>
      </trkpt>
      <trkpt lat="46.46624" lon="5.29781">
        <ele>229.19999694824</ele>
        <time>2022-05-31T12:30:39.000Z</time>
      </trkpt>
      <trkpt lat="46.46604" lon="5.29704">
        <ele>229.80000305176</ele>
        <time>2022-05-31T12:30:46.000Z</time>
      </trkpt>
      <trkpt lat="46.46602" lon="5.29694">
        <ele>229.80000305176</ele>
        <time>2022-05-31T12:30:47.000Z</time>
      </trkpt>
      <trkpt lat="46.4658" lon="5.29612">
        <ele>229.19999694824</ele>
        <time>2022-05-31T12:30:55.000Z</time>
      </trkpt>
      <trkpt lat="46.46575" lon="5.2959">
        <ele>229</ele>
        <time>2022-05-31T12:30:57.000Z</time>
      </trkpt>
      <trkpt lat="46.46564" lon="5.29547">
        <ele>228</ele>
        <time>2022-05-31T12:31:01.000Z</time>
      </trkpt>
      <trkpt lat="46.46557" lon="5.29523">
        <ele>227.39999389648</ele>
        <time>2022-05-31T12:31:03.000Z</time>
      </trkpt>
      <trkpt lat="46.46545" lon="5.29477">
        <ele>227</ele>
        <time>2022-05-31T12:31:07.000Z</time>
      </trkpt>
      <trkpt lat="46.46533" lon="5.29423">
        <ele>226.80000305176</ele>
        <time>2022-05-31T12:31:12.000Z</time>
      </trkpt>
      <trkpt lat="46.46518" lon="5.29351">
        <ele>227.19999694824</ele>
        <time>2022-05-31T12:31:19.000Z</time>
      </trkpt>
      <trkpt lat="46.465" lon="5.2927">
        <ele>227.19999694824</ele>
        <time>2022-05-31T12:31:27.000Z</time>
      </trkpt>
      <trkpt lat="46.46486" lon="5.29197">
        <ele>227.39999389648</ele>
        <time>2022-05-31T12:31:35.000Z</time>
      </trkpt>
      <trkpt lat="46.46476" lon="5.29146">
        <ele>227.39999389648</ele>
        <time>2022-05-31T12:31:41.000Z</time>
      </trkpt>
      <trkpt lat="46.46465" lon="5.29091">
        <ele>228</ele>
        <time>2022-05-31T12:31:47.000Z</time>
      </trkpt>
      <trkpt lat="46.46461" lon="5.29072">
        <ele>228.39999389648</ele>
        <time>2022-05-31T12:31:49.000Z</time>
      </trkpt>
      <trkpt lat="46.46444" lon="5.28994">
        <ele>228.60000610352</ele>
        <time>2022-05-31T12:31:57.000Z</time>
      </trkpt>
      <trkpt lat="46.46437" lon="5.28964">
        <ele>229</ele>
        <time>2022-05-31T12:32:00.000Z</time>
      </trkpt>
      <trkpt lat="46.46421" lon="5.2889">
        <ele>228.80000305176</ele>
        <time>2022-05-31T12:32:07.000Z</time>
      </trkpt>
      <trkpt lat="46.46415" lon="5.28869">
        <ele>228.39999389648</ele>
        <time>2022-05-31T12:32:09.000Z</time>
      </trkpt>
      <trkpt lat="46.46404" lon="5.28841">
        <ele>228</ele>
        <time>2022-05-31T12:32:12.000Z</time>
      </trkpt>
      <trkpt lat="46.464" lon="5.28832">
        <ele>228</ele>
        <time>2022-05-31T12:32:13.000Z</time>
      </trkpt>
      <trkpt lat="46.46387" lon="5.28809">
        <ele>227.80000305176</ele>
        <time>2022-05-31T12:32:16.000Z</time>
      </trkpt>
      <trkpt lat="46.46381" lon="5.28802">
        <ele>227.80000305176</ele>
        <time>2022-05-31T12:32:17.000Z</time>
      </trkpt>
      <trkpt lat="46.46344" lon="5.28771">
        <ele>227</ele>
        <time>2022-05-31T12:32:23.000Z</time>
      </trkpt>
      <trkpt lat="46.46302" lon="5.28743">
        <ele>225.80000305176</ele>
        <time>2022-05-31T12:32:29.000Z</time>
      </trkpt>
      <trkpt lat="46.46288" lon="5.28733">
        <ele>225.39999389648</ele>
        <time>2022-05-31T12:32:31.000Z</time>
      </trkpt>
      <trkpt lat="46.46281" lon="5.28729">
        <ele>225.19999694824</ele>
        <time>2022-05-31T12:32:32.000Z</time>
      </trkpt>
      <trkpt lat="46.46274" lon="5.28724">
        <ele>224.80000305176</ele>
        <time>2022-05-31T12:32:33.000Z</time>
      </trkpt>
      <trkpt lat="46.46254" lon="5.28711">
        <ele>223.80000305176</ele>
        <time>2022-05-31T12:32:36.000Z</time>
      </trkpt>
      <trkpt lat="46.46236" lon="5.28696">
        <ele>223.19999694824</ele>
        <time>2022-05-31T12:32:39.000Z</time>
      </trkpt>
      <trkpt lat="46.46227" lon="5.28682">
        <ele>223</ele>
        <time>2022-05-31T12:32:41.000Z</time>
      </trkpt>
      <trkpt lat="46.46225" lon="5.28673">
        <ele>222.60000610352</ele>
        <time>2022-05-31T12:32:42.000Z</time>
      </trkpt>
      <trkpt lat="46.46221" lon="5.28652">
        <ele>221.60000610352</ele>
        <time>2022-05-31T12:32:44.000Z</time>
      </trkpt>
      <trkpt lat="46.46217" lon="5.28627">
        <ele>220.39999389648</ele>
        <time>2022-05-31T12:32:46.000Z</time>
      </trkpt>
      <trkpt lat="46.46212" lon="5.28587">
        <ele>219.19999694824</ele>
        <time>2022-05-31T12:32:49.000Z</time>
      </trkpt>
      <trkpt lat="46.46205" lon="5.28543">
        <ele>217.60000610352</ele>
        <time>2022-05-31T12:32:52.000Z</time>
      </trkpt>
      <trkpt lat="46.46201" lon="5.28514">
        <ele>216.60000610352</ele>
        <time>2022-05-31T12:32:54.000Z</time>
      </trkpt>
      <trkpt lat="46.46197" lon="5.28484">
        <ele>215.39999389648</ele>
        <time>2022-05-31T12:32:56.000Z</time>
      </trkpt>
      <trkpt lat="46.4619" lon="5.28438">
        <ele>214</ele>
        <time>2022-05-31T12:32:59.000Z</time>
      </trkpt>
      <trkpt lat="46.46188" lon="5.28423">
        <ele>213.60000610352</ele>
        <time>2022-05-31T12:33:00.000Z</time>
      </trkpt>
      <trkpt lat="46.46186" lon="5.28408">
        <ele>212.60000610352</ele>
        <time>2022-05-31T12:33:01.000Z</time>
      </trkpt>
      <trkpt lat="46.46182" lon="5.28378">
        <ele>211.19999694824</ele>
        <time>2022-05-31T12:33:03.000Z</time>
      </trkpt>
      <trkpt lat="46.46175" lon="5.28337">
        <ele>209.80000305176</ele>
        <time>2022-05-31T12:33:06.000Z</time>
      </trkpt>
      <trkpt lat="46.46173" lon="5.28325">
        <ele>209.60000610352</ele>
        <time>2022-05-31T12:33:07.000Z</time>
      </trkpt>
      <trkpt lat="46.46168" lon="5.28269">
        <ele>209.39999389648</ele>
        <time>2022-05-31T12:33:12.000Z</time>
      </trkpt>
      <trkpt lat="46.46169" lon="5.2824">
        <ele>210.39999389648</ele>
        <time>2022-05-31T12:33:15.000Z</time>
      </trkpt>
      <trkpt lat="46.46172" lon="5.28222">
        <ele>211</ele>
        <time>2022-05-31T12:33:17.000Z</time>
      </trkpt>
      <trkpt lat="46.46178" lon="5.28188">
        <ele>212.39999389648</ele>
        <time>2022-05-31T12:33:21.000Z</time>
      </trkpt>
      <trkpt lat="46.46182" lon="5.28162">
        <ele>213</ele>
        <time>2022-05-31T12:33:24.000Z</time>
      </trkpt>
      <trkpt lat="46.46185" lon="5.28143">
        <ele>213.60000610352</ele>
        <time>2022-05-31T12:33:26.000Z</time>
      </trkpt>
      <trkpt lat="46.46188" lon="5.28111">
        <ele>213.60000610352</ele>
        <time>2022-05-31T12:33:29.000Z</time>
      </trkpt>
      <trkpt lat="46.46194" lon="5.28037">
        <ele>214</ele>
        <time>2022-05-31T12:33:36.000Z</time>
      </trkpt>
      <trkpt lat="46.46195" lon="5.28017">
        <ele>214.19999694824</ele>
        <time>2022-05-31T12:33:38.000Z</time>
      </trkpt>
      <trkpt lat="46.46191" lon="5.28001">
        <ele>214</ele>
        <time>2022-05-31T12:33:40.000Z</time>
      </trkpt>
      <trkpt lat="46.46171" lon="5.27986">
        <ele>214.19999694824</ele>
        <time>2022-05-31T12:33:43.000Z</time>
      </trkpt>
      <trkpt lat="46.46141" lon="5.27963">
        <ele>213.80000305176</ele>
        <time>2022-05-31T12:33:47.000Z</time>
      </trkpt>
      <trkpt lat="46.46134" lon="5.27953">
        <ele>213.80000305176</ele>
        <time>2022-05-31T12:33:48.000Z</time>
      </trkpt>
      <trkpt lat="46.46129" lon="5.27942">
        <ele>213.60000610352</ele>
        <time>2022-05-31T12:33:49.000Z</time>
      </trkpt>
      <trkpt lat="46.46126" lon="5.27929">
        <ele>213.60000610352</ele>
        <time>2022-05-31T12:33:50.000Z</time>
      </trkpt>
      <trkpt lat="46.46125" lon="5.27899">
        <ele>211.19999694824</ele>
        <time>2022-05-31T12:33:52.000Z</time>
      </trkpt>
      <trkpt lat="46.46123" lon="5.27866">
        <ele>209.60000610352</ele>
        <time>2022-05-31T12:33:54.000Z</time>
      </trkpt>
      <trkpt lat="46.46122" lon="5.27833">
        <ele>208</ele>
        <time>2022-05-31T12:33:56.000Z</time>
      </trkpt>
      <trkpt lat="46.46122" lon="5.27801">
        <ele>206.39999389648</ele>
        <time>2022-05-31T12:33:58.000Z</time>
      </trkpt>
      <trkpt lat="46.46123" lon="5.27769">
        <ele>205</ele>
        <time>2022-05-31T12:34:00.000Z</time>
      </trkpt>
      <trkpt lat="46.46124" lon="5.27737">
        <ele>203.80000305176</ele>
        <time>2022-05-31T12:34:02.000Z</time>
      </trkpt>
      <trkpt lat="46.46125" lon="5.27689">
        <ele>202.60000610352</ele>
        <time>2022-05-31T12:34:05.000Z</time>
      </trkpt>
      <trkpt lat="46.46127" lon="5.2761">
        <ele>201.19999694824</ele>
        <time>2022-05-31T12:34:10.000Z</time>
      </trkpt>
      <trkpt lat="46.46128" lon="5.27595">
        <ele>201</ele>
        <time>2022-05-31T12:34:11.000Z</time>
      </trkpt>
      <trkpt lat="46.46128" lon="5.27565">
        <ele>200.19999694824</ele>
        <time>2022-05-31T12:34:13.000Z</time>
      </trkpt>
      <trkpt lat="46.4613" lon="5.27507">
        <ele>199.19999694824</ele>
        <time>2022-05-31T12:34:17.000Z</time>
      </trkpt>
      <trkpt lat="46.4613" lon="5.27493">
        <ele>199</ele>
        <time>2022-05-31T12:34:18.000Z</time>
      </trkpt>
      <trkpt lat="46.46132" lon="5.27413">
        <ele>199.19999694824</ele>
        <time>2022-05-31T12:34:24.000Z</time>
      </trkpt>
      <trkpt lat="46.46133" lon="5.274">
        <ele>199.19999694824</ele>
        <time>2022-05-31T12:34:25.000Z</time>
      </trkpt>
      <trkpt lat="46.46135" lon="5.27311">
        <ele>199.39999389648</ele>
        <time>2022-05-31T12:34:32.000Z</time>
      </trkpt>
      <trkpt lat="46.46135" lon="5.27299">
        <ele>199.39999389648</ele>
        <time>2022-05-31T12:34:33.000Z</time>
      </trkpt>
      <trkpt lat="46.46137" lon="5.27214">
        <ele>199.60000610352</ele>
        <time>2022-05-31T12:34:40.000Z</time>
      </trkpt>
      <trkpt lat="46.46138" lon="5.27202">
        <ele>199.60000610352</ele>
        <time>2022-05-31T12:34:41.000Z</time>
      </trkpt>
      <trkpt lat="46.4614" lon="5.27124">
        <ele>199.80000305176</ele>
        <time>2022-05-31T12:34:48.000Z</time>
      </trkpt>
      <trkpt lat="46.46141" lon="5.27113">
        <ele>200</ele>
        <time>2022-05-31T12:34:49.000Z</time>
      </trkpt>
      <trkpt lat="46.46142" lon="5.27062">
        <ele>200.39999389648</ele>
        <time>2022-05-31T12:34:54.000Z</time>
      </trkpt>
      <trkpt lat="46.46144" lon="5.26982">
        <ele>201.19999694824</ele>
        <time>2022-05-31T12:35:02.000Z</time>
      </trkpt>
      <trkpt lat="46.46145" lon="5.26949">
        <ele>201.19999694824</ele>
        <time>2022-05-31T12:35:05.000Z</time>
      </trkpt>
      <trkpt lat="46.46147" lon="5.2687">
        <ele>201.19999694824</ele>
        <time>2022-05-31T12:35:12.000Z</time>
      </trkpt>
      <trkpt lat="46.46149" lon="5.2679">
        <ele>201.19999694824</ele>
        <time>2022-05-31T12:35:20.000Z</time>
      </trkpt>
      <trkpt lat="46.4615" lon="5.26754">
        <ele>201.60000610352</ele>
        <time>2022-05-31T12:35:24.000Z</time>
      </trkpt>
      <trkpt lat="46.46151" lon="5.26728">
        <ele>202</ele>
        <time>2022-05-31T12:35:27.000Z</time>
      </trkpt>
      <trkpt lat="46.46152" lon="5.26695">
        <ele>202.60000610352</ele>
        <time>2022-05-31T12:35:31.000Z</time>
      </trkpt>
      <trkpt lat="46.46154" lon="5.26665">
        <ele>203</ele>
        <time>2022-05-31T12:35:35.000Z</time>
      </trkpt>
      <trkpt lat="46.46155" lon="5.26633">
        <ele>203.80000305176</ele>
        <time>2022-05-31T12:35:40.000Z</time>
      </trkpt>
      <trkpt lat="46.46155" lon="5.26626">
        <ele>204</ele>
        <time>2022-05-31T12:35:41.000Z</time>
      </trkpt>
      <trkpt lat="46.46156" lon="5.26614">
        <ele>204.39999389648</ele>
        <time>2022-05-31T12:35:43.000Z</time>
      </trkpt>
      <trkpt lat="46.46157" lon="5.26602">
        <ele>205.19999694824</ele>
        <time>2022-05-31T12:35:45.000Z</time>
      </trkpt>
      <trkpt lat="46.46158" lon="5.26591">
        <ele>205.80000305176</ele>
        <time>2022-05-31T12:35:47.000Z</time>
      </trkpt>
      <trkpt lat="46.46159" lon="5.2658">
        <ele>206.60000610352</ele>
        <time>2022-05-31T12:35:49.000Z</time>
      </trkpt>
      <trkpt lat="46.46162" lon="5.26552">
        <ele>207.60000610352</ele>
        <time>2022-05-31T12:35:54.000Z</time>
      </trkpt>
      <trkpt lat="46.46162" lon="5.26546">
        <ele>207.80000305176</ele>
        <time>2022-05-31T12:35:55.000Z</time>
      </trkpt>
      <trkpt lat="46.46165" lon="5.26518">
        <ele>208.60000610352</ele>
        <time>2022-05-31T12:36:00.000Z</time>
      </trkpt>
      <trkpt lat="46.46168" lon="5.26489">
        <ele>209.60000610352</ele>
        <time>2022-05-31T12:36:05.000Z</time>
      </trkpt>
      <trkpt lat="46.46169" lon="5.26483">
        <ele>209.80000305176</ele>
        <time>2022-05-31T12:36:06.000Z</time>
      </trkpt>
      <trkpt lat="46.46173" lon="5.26442">
        <ele>210.80000305176</ele>
        <time>2022-05-31T12:36:13.000Z</time>
      </trkpt>
      <trkpt lat="46.46174" lon="5.26425">
        <ele>211.80000305176</ele>
        <time>2022-05-31T12:36:16.000Z</time>
      </trkpt>
      <trkpt lat="46.46175" lon="5.26419">
        <ele>212.19999694824</ele>
        <time>2022-05-31T12:36:17.000Z</time>
      </trkpt>
      <trkpt lat="46.46178" lon="5.26384">
        <ele>213.39999389648</ele>
        <time>2022-05-31T12:36:23.000Z</time>
      </trkpt>
      <trkpt lat="46.46178" lon="5.26379">
        <ele>213.60000610352</ele>
        <time>2022-05-31T12:36:24.000Z</time>
      </trkpt>
      <trkpt lat="46.46181" lon="5.26357">
        <ele>214.60000610352</ele>
        <time>2022-05-31T12:36:28.000Z</time>
      </trkpt>
      <trkpt lat="46.46183" lon="5.26328">
        <ele>215.80000305176</ele>
        <time>2022-05-31T12:36:33.000Z</time>
      </trkpt>
      <trkpt lat="46.46185" lon="5.26301">
        <ele>217.19999694824</ele>
        <time>2022-05-31T12:36:38.000Z</time>
      </trkpt>
      <trkpt lat="46.46188" lon="5.26278">
        <ele>218.19999694824</ele>
        <time>2022-05-31T12:36:42.000Z</time>
      </trkpt>
      <trkpt lat="46.46188" lon="5.26272">
        <ele>218.39999389648</ele>
        <time>2022-05-31T12:36:43.000Z</time>
      </trkpt>
      <trkpt lat="46.4619" lon="5.26248">
        <ele>219.39999389648</ele>
        <time>2022-05-31T12:36:47.000Z</time>
      </trkpt>
      <trkpt lat="46.46193" lon="5.26217">
        <ele>220.60000610352</ele>
        <time>2022-05-31T12:36:52.000Z</time>
      </trkpt>
      <trkpt lat="46.46195" lon="5.2619">
        <ele>221.60000610352</ele>
        <time>2022-05-31T12:36:56.000Z</time>
      </trkpt>
      <trkpt lat="46.46199" lon="5.26147">
        <ele>222.60000610352</ele>
        <time>2022-05-31T12:37:02.000Z</time>
      </trkpt>
      <trkpt lat="46.46199" lon="5.26142">
        <ele>222.80000305176</ele>
        <time>2022-05-31T12:37:03.000Z</time>
      </trkpt>
      <trkpt lat="46.46205" lon="5.26076">
        <ele>223.80000305176</ele>
        <time>2022-05-31T12:37:12.000Z</time>
      </trkpt>
      <trkpt lat="46.46206" lon="5.26068">
        <ele>223.80000305176</ele>
        <time>2022-05-31T12:37:13.000Z</time>
      </trkpt>
      <trkpt lat="46.46214" lon="5.26008">
        <ele>224</ele>
        <time>2022-05-31T12:37:20.000Z</time>
      </trkpt>
      <trkpt lat="46.46227" lon="5.25957">
        <ele>223.80000305176</ele>
        <time>2022-05-31T12:37:25.000Z</time>
      </trkpt>
      <trkpt lat="46.46248" lon="5.25895">
        <ele>222.39999389648</ele>
        <time>2022-05-31T12:37:30.000Z</time>
      </trkpt>
      <trkpt lat="46.46251" lon="5.25881">
        <ele>222.19999694824</ele>
        <time>2022-05-31T12:37:31.000Z</time>
      </trkpt>
      <trkpt lat="46.46254" lon="5.25852">
        <ele>221.39999389648</ele>
        <time>2022-05-31T12:37:33.000Z</time>
      </trkpt>
      <trkpt lat="46.46251" lon="5.2582">
        <ele>221</ele>
        <time>2022-05-31T12:37:35.000Z</time>
      </trkpt>
      <trkpt lat="46.46248" lon="5.25805">
        <ele>220.39999389648</ele>
        <time>2022-05-31T12:37:36.000Z</time>
      </trkpt>
      <trkpt lat="46.46242" lon="5.25777">
        <ele>218.80000305176</ele>
        <time>2022-05-31T12:37:38.000Z</time>
      </trkpt>
      <trkpt lat="46.46236" lon="5.25744">
        <ele>217</ele>
        <time>2022-05-31T12:37:40.000Z</time>
      </trkpt>
      <trkpt lat="46.46231" lon="5.25716">
        <ele>216</ele>
        <time>2022-05-31T12:37:42.000Z</time>
      </trkpt>
      <trkpt lat="46.46229" lon="5.25702">
        <ele>215.80000305176</ele>
        <time>2022-05-31T12:37:43.000Z</time>
      </trkpt>
      <trkpt lat="46.46231" lon="5.25654">
        <ele>215.60000610352</ele>
        <time>2022-05-31T12:37:47.000Z</time>
      </trkpt>
      <trkpt lat="46.46244" lon="5.25591">
        <ele>216.80000305176</ele>
        <time>2022-05-31T12:37:53.000Z</time>
      </trkpt>
      <trkpt lat="46.46251" lon="5.25568">
        <ele>217</ele>
        <time>2022-05-31T12:37:55.000Z</time>
      </trkpt>
      <trkpt lat="46.46262" lon="5.25534">
        <ele>217.60000610352</ele>
        <time>2022-05-31T12:37:58.000Z</time>
      </trkpt>
      <trkpt lat="46.46288" lon="5.25483">
        <ele>217.39999389648</ele>
        <time>2022-05-31T12:38:03.000Z</time>
      </trkpt>
      <trkpt lat="46.46323" lon="5.25423">
        <ele>216.80000305176</ele>
        <time>2022-05-31T12:38:09.000Z</time>
      </trkpt>
      <trkpt lat="46.46341" lon="5.25392">
        <ele>216.39999389648</ele>
        <time>2022-05-31T12:38:12.000Z</time>
      </trkpt>
      <trkpt lat="46.46346" lon="5.25384">
        <ele>216.19999694824</ele>
        <time>2022-05-31T12:38:13.000Z</time>
      </trkpt>
      <trkpt lat="46.46382" lon="5.25323">
        <ele>215.19999694824</ele>
        <time>2022-05-31T12:38:19.000Z</time>
      </trkpt>
      <trkpt lat="46.46389" lon="5.25313">
        <ele>215.19999694824</ele>
        <time>2022-05-31T12:38:20.000Z</time>
      </trkpt>
      <trkpt lat="46.46427" lon="5.25275">
        <ele>214.39999389648</ele>
        <time>2022-05-31T12:38:25.000Z</time>
      </trkpt>
      <trkpt lat="46.46445" lon="5.25261">
        <ele>214</ele>
        <time>2022-05-31T12:38:27.000Z</time>
      </trkpt>
      <trkpt lat="46.46472" lon="5.25239">
        <ele>213</ele>
        <time>2022-05-31T12:38:30.000Z</time>
      </trkpt>
      <trkpt lat="46.46492" lon="5.25223">
        <ele>212.60000610352</ele>
        <time>2022-05-31T12:38:32.000Z</time>
      </trkpt>
      <trkpt lat="46.46509" lon="5.25209">
        <ele>211.80000305176</ele>
        <time>2022-05-31T12:38:34.000Z</time>
      </trkpt>
      <trkpt lat="46.46556" lon="5.25174">
        <ele>210.39999389648</ele>
        <time>2022-05-31T12:38:39.000Z</time>
      </trkpt>
      <trkpt lat="46.466" lon="5.25139">
        <ele>209.19999694824</ele>
        <time>2022-05-31T12:38:44.000Z</time>
      </trkpt>
      <trkpt lat="46.46617" lon="5.25125">
        <ele>209</ele>
        <time>2022-05-31T12:38:46.000Z</time>
      </trkpt>
      <trkpt lat="46.46657" lon="5.25095">
        <ele>208.19999694824</ele>
        <time>2022-05-31T12:38:51.000Z</time>
      </trkpt>
      <trkpt lat="46.46666" lon="5.25088">
        <ele>208.19999694824</ele>
        <time>2022-05-31T12:38:52.000Z</time>
      </trkpt>
      <trkpt lat="46.4672" lon="5.25045">
        <ele>207.39999389648</ele>
        <time>2022-05-31T12:38:58.000Z</time>
      </trkpt>
      <trkpt lat="46.46729" lon="5.25039">
        <ele>207.39999389648</ele>
        <time>2022-05-31T12:38:59.000Z</time>
      </trkpt>
      <trkpt lat="46.46769" lon="5.25006">
        <ele>207.19999694824</ele>
        <time>2022-05-31T12:39:04.000Z</time>
      </trkpt>
      <trkpt lat="46.46776" lon="5.25">
        <ele>207.19999694824</ele>
        <time>2022-05-31T12:39:05.000Z</time>
      </trkpt>
      <trkpt lat="46.46829" lon="5.24956">
        <ele>206.60000610352</ele>
        <time>2022-05-31T12:39:11.000Z</time>
      </trkpt>
      <trkpt lat="46.46856" lon="5.24934">
        <ele>205.80000305176</ele>
        <time>2022-05-31T12:39:14.000Z</time>
      </trkpt>
      <trkpt lat="46.46901" lon="5.24896">
        <ele>205</ele>
        <time>2022-05-31T12:39:19.000Z</time>
      </trkpt>
      <trkpt lat="46.46909" lon="5.24888">
        <ele>204.80000305176</ele>
        <time>2022-05-31T12:39:20.000Z</time>
      </trkpt>
      <trkpt lat="46.46964" lon="5.24844">
        <ele>203.60000610352</ele>
        <time>2022-05-31T12:39:26.000Z</time>
      </trkpt>
      <trkpt lat="46.4699" lon="5.24822">
        <ele>202.39999389648</ele>
        <time>2022-05-31T12:39:29.000Z</time>
      </trkpt>
      <trkpt lat="46.47028" lon="5.24787">
        <ele>201.39999389648</ele>
        <time>2022-05-31T12:39:34.000Z</time>
      </trkpt>
      <trkpt lat="46.47055" lon="5.24752">
        <ele>202.19999694824</ele>
        <time>2022-05-31T12:39:39.000Z</time>
      </trkpt>
      <trkpt lat="46.47073" lon="5.24719">
        <ele>203.60000610352</ele>
        <time>2022-05-31T12:39:44.000Z</time>
      </trkpt>
      <trkpt lat="46.47076" lon="5.24713">
        <ele>204.19999694824</ele>
        <time>2022-05-31T12:39:45.000Z</time>
      </trkpt>
      <trkpt lat="46.47079" lon="5.24706">
        <ele>204.80000305176</ele>
        <time>2022-05-31T12:39:46.000Z</time>
      </trkpt>
      <trkpt lat="46.47087" lon="5.24685">
        <ele>205.80000305176</ele>
        <time>2022-05-31T12:39:49.000Z</time>
      </trkpt>
      <trkpt lat="46.47095" lon="5.2466">
        <ele>206.60000610352</ele>
        <time>2022-05-31T12:39:52.000Z</time>
      </trkpt>
      <trkpt lat="46.47097" lon="5.24654">
        <ele>206.80000305176</ele>
        <time>2022-05-31T12:39:53.000Z</time>
      </trkpt>
      <trkpt lat="46.47103" lon="5.24643">
        <ele>207</ele>
        <time>2022-05-31T12:39:55.000Z</time>
      </trkpt>
      <trkpt lat="46.47105" lon="5.2464">
        <ele>207.19999694824</ele>
        <time>2022-05-31T12:39:56.000Z</time>
      </trkpt>
      <trkpt lat="46.47112" lon="5.24636">
        <ele>207.39999389648</ele>
        <time>2022-05-31T12:40:00.000Z</time>
      </trkpt>
      <trkpt lat="46.47128" lon="5.24643">
        <ele>207.39999389648</ele>
        <time>2022-05-31T12:40:05.000Z</time>
      </trkpt>
      <trkpt lat="46.47157" lon="5.24654">
        <ele>208.19999694824</ele>
        <time>2022-05-31T12:40:11.000Z</time>
      </trkpt>
      <trkpt lat="46.47188" lon="5.24662">
        <ele>209.19999694824</ele>
        <time>2022-05-31T12:40:17.000Z</time>
      </trkpt>
      <trkpt lat="46.47194" lon="5.24663">
        <ele>209.39999389648</ele>
        <time>2022-05-31T12:40:18.000Z</time>
      </trkpt>
      <trkpt lat="46.47205" lon="5.24665">
        <ele>209.80000305176</ele>
        <time>2022-05-31T12:40:20.000Z</time>
      </trkpt>
      <trkpt lat="46.47217" lon="5.24665">
        <ele>210.19999694824</ele>
        <time>2022-05-31T12:40:22.000Z</time>
      </trkpt>
      <trkpt lat="46.47222" lon="5.24665">
        <ele>210.39999389648</ele>
        <time>2022-05-31T12:40:23.000Z</time>
      </trkpt>
      <trkpt lat="46.47245" lon="5.24664">
        <ele>211.60000610352</ele>
        <time>2022-05-31T12:40:27.000Z</time>
      </trkpt>
      <trkpt lat="46.47279" lon="5.24662">
        <ele>212</ele>
        <time>2022-05-31T12:40:33.000Z</time>
      </trkpt>
      <trkpt lat="46.47296" lon="5.24661">
        <ele>212.60000610352</ele>
        <time>2022-05-31T12:40:36.000Z</time>
      </trkpt>
      <trkpt lat="46.47334" lon="5.24657">
        <ele>210.19999694824</ele>
        <time>2022-05-31T12:40:43.000Z</time>
      </trkpt>
      <trkpt lat="46.47367" lon="5.24653">
        <ele>214.60000610352</ele>
        <time>2022-05-31T12:40:49.000Z</time>
      </trkpt>
      <trkpt lat="46.47379" lon="5.24653">
        <ele>215</ele>
        <time>2022-05-31T12:40:51.000Z</time>
      </trkpt>
      <trkpt lat="46.47419" lon="5.24649">
        <ele>215.80000305176</ele>
        <time>2022-05-31T12:40:58.000Z</time>
      </trkpt>
      <trkpt lat="46.47431" lon="5.24649">
        <ele>216</ele>
        <time>2022-05-31T12:41:00.000Z</time>
      </trkpt>
      <trkpt lat="46.47483" lon="5.24643">
        <ele>216.19999694824</ele>
        <time>2022-05-31T12:41:08.000Z</time>
      </trkpt>
      <trkpt lat="46.47515" lon="5.24633">
        <ele>216.60000610352</ele>
        <time>2022-05-31T12:41:13.000Z</time>
      </trkpt>
      <trkpt lat="46.47521" lon="5.2463">
        <ele>216.60000610352</ele>
        <time>2022-05-31T12:41:14.000Z</time>
      </trkpt>
      <trkpt lat="46.47527" lon="5.24627">
        <ele>216.80000305176</ele>
        <time>2022-05-31T12:41:15.000Z</time>
      </trkpt>
      <trkpt lat="46.47571" lon="5.24601">
        <ele>217.19999694824</ele>
        <time>2022-05-31T12:41:22.000Z</time>
      </trkpt>
      <trkpt lat="46.47621" lon="5.24573">
        <ele>217.80000305176</ele>
        <time>2022-05-31T12:41:30.000Z</time>
      </trkpt>
      <trkpt lat="46.4764" lon="5.24563">
        <ele>218.19999694824</ele>
        <time>2022-05-31T12:41:33.000Z</time>
      </trkpt>
      <trkpt lat="46.47694" lon="5.24534">
        <ele>218.60000610352</ele>
        <time>2022-05-31T12:41:41.000Z</time>
      </trkpt>
      <trkpt lat="46.47701" lon="5.24531">
        <ele>218.60000610352</ele>
        <time>2022-05-31T12:41:42.000Z</time>
      </trkpt>
      <trkpt lat="46.47755" lon="5.24511">
        <ele>218.60000610352</ele>
        <time>2022-05-31T12:41:49.000Z</time>
      </trkpt>
      <trkpt lat="46.47809" lon="5.24504">
        <ele>218.80000305176</ele>
        <time>2022-05-31T12:41:56.000Z</time>
      </trkpt>
      <trkpt lat="46.47845" lon="5.24503">
        <ele>219.39999389648</ele>
        <time>2022-05-31T12:42:01.000Z</time>
      </trkpt>
      <trkpt lat="46.4786" lon="5.24504">
        <ele>219.60000610352</ele>
        <time>2022-05-31T12:42:03.000Z</time>
      </trkpt>
      <trkpt lat="46.47916" lon="5.24503">
        <ele>220.39999389648</ele>
        <time>2022-05-31T12:42:11.000Z</time>
      </trkpt>
      <trkpt lat="46.47923" lon="5.24501">
        <ele>220.39999389648</ele>
        <time>2022-05-31T12:42:12.000Z</time>
      </trkpt>
      <trkpt lat="46.47945" lon="5.2449">
        <ele>221</ele>
        <time>2022-05-31T12:42:15.000Z</time>
      </trkpt>
      <trkpt lat="46.47991" lon="5.24459">
        <ele>220.60000610352</ele>
        <time>2022-05-31T12:42:21.000Z</time>
      </trkpt>
      <trkpt lat="46.48037" lon="5.24429">
        <ele>220</ele>
        <time>2022-05-31T12:42:27.000Z</time>
      </trkpt>
      <trkpt lat="46.48088" lon="5.2439">
        <ele>219.80000305176</ele>
        <time>2022-05-31T12:42:34.000Z</time>
      </trkpt>
      <trkpt lat="46.48133" lon="5.2434">
        <ele>219.39999389648</ele>
        <time>2022-05-31T12:42:41.000Z</time>
      </trkpt>
      <trkpt lat="46.48168" lon="5.24297">
        <ele>219.80000305176</ele>
        <time>2022-05-31T12:42:47.000Z</time>
      </trkpt>
      <trkpt lat="46.48195" lon="5.24263">
        <ele>220.39999389648</ele>
        <time>2022-05-31T12:42:52.000Z</time>
      </trkpt>
      <trkpt lat="46.48201" lon="5.24259">
        <ele>220.60000610352</ele>
        <time>2022-05-31T12:42:53.000Z</time>
      </trkpt>
      <trkpt lat="46.48207" lon="5.24257">
        <ele>220.60000610352</ele>
        <time>2022-05-31T12:42:54.000Z</time>
      </trkpt>
      <trkpt lat="46.48221" lon="5.24257">
        <ele>220.80000305176</ele>
        <time>2022-05-31T12:42:56.000Z</time>
      </trkpt>
      <trkpt lat="46.48265" lon="5.24266">
        <ele>221.19999694824</ele>
        <time>2022-05-31T12:43:02.000Z</time>
      </trkpt>
      <trkpt lat="46.48301" lon="5.24278">
        <ele>221.19999694824</ele>
        <time>2022-05-31T12:43:07.000Z</time>
      </trkpt>
      <trkpt lat="46.48309" lon="5.24283">
        <ele>221.19999694824</ele>
        <time>2022-05-31T12:43:08.000Z</time>
      </trkpt>
      <trkpt lat="46.48316" lon="5.24289">
        <ele>221.19999694824</ele>
        <time>2022-05-31T12:43:09.000Z</time>
      </trkpt>
      <trkpt lat="46.48334" lon="5.24312">
        <ele>221</ele>
        <time>2022-05-31T12:43:12.000Z</time>
      </trkpt>
      <trkpt lat="46.48353" lon="5.24334">
        <ele>220.80000305176</ele>
        <time>2022-05-31T12:43:15.000Z</time>
      </trkpt>
      <trkpt lat="46.48369" lon="5.24344">
        <ele>220.60000610352</ele>
        <time>2022-05-31T12:43:17.000Z</time>
      </trkpt>
      <trkpt lat="46.48405" lon="5.2436">
        <ele>219.39999389648</ele>
        <time>2022-05-31T12:43:21.000Z</time>
      </trkpt>
      <trkpt lat="46.48414" lon="5.24366">
        <ele>219</ele>
        <time>2022-05-31T12:43:22.000Z</time>
      </trkpt>
      <trkpt lat="46.48438" lon="5.24389">
        <ele>218</ele>
        <time>2022-05-31T12:43:25.000Z</time>
      </trkpt>
      <trkpt lat="46.48467" lon="5.24422">
        <ele>216.39999389648</ele>
        <time>2022-05-31T12:43:29.000Z</time>
      </trkpt>
      <trkpt lat="46.48487" lon="5.24447">
        <ele>216</ele>
        <time>2022-05-31T12:43:32.000Z</time>
      </trkpt>
      <trkpt lat="46.4853" lon="5.24499">
        <ele>216</ele>
        <time>2022-05-31T12:43:39.000Z</time>
      </trkpt>
      <trkpt lat="46.48573" lon="5.24549">
        <ele>217</ele>
        <time>2022-05-31T12:43:46.000Z</time>
      </trkpt>
      <trkpt lat="46.48579" lon="5.24556">
        <ele>217.19999694824</ele>
        <time>2022-05-31T12:43:47.000Z</time>
      </trkpt>
      <trkpt lat="46.48593" lon="5.24567">
        <ele>217.80000305176</ele>
        <time>2022-05-31T12:43:49.000Z</time>
      </trkpt>
      <trkpt lat="46.486" lon="5.24573">
        <ele>217.80000305176</ele>
        <time>2022-05-31T12:43:50.000Z</time>
      </trkpt>
      <trkpt lat="46.48616" lon="5.24581">
        <ele>218</ele>
        <time>2022-05-31T12:43:52.000Z</time>
      </trkpt>
      <trkpt lat="46.48657" lon="5.24603">
        <ele>218.39999389648</ele>
        <time>2022-05-31T12:43:57.000Z</time>
      </trkpt>
      <trkpt lat="46.48714" lon="5.2463">
        <ele>218.19999694824</ele>
        <time>2022-05-31T12:44:04.000Z</time>
      </trkpt>
      <trkpt lat="46.48724" lon="5.24633">
        <ele>218</ele>
        <time>2022-05-31T12:44:05.000Z</time>
      </trkpt>
      <trkpt lat="46.48747" lon="5.24636">
        <ele>218</ele>
        <time>2022-05-31T12:44:08.000Z</time>
      </trkpt>
      <trkpt lat="46.48753" lon="5.24635">
        <ele>218.19999694824</ele>
        <time>2022-05-31T12:44:09.000Z</time>
      </trkpt>
      <trkpt lat="46.48784" lon="5.24623">
        <ele>218.39999389648</ele>
        <time>2022-05-31T12:44:13.000Z</time>
      </trkpt>
      <trkpt lat="46.48813" lon="5.24605">
        <ele>218.80000305176</ele>
        <time>2022-05-31T12:44:17.000Z</time>
      </trkpt>
      <trkpt lat="46.48843" lon="5.24585">
        <ele>219</ele>
        <time>2022-05-31T12:44:21.000Z</time>
      </trkpt>
      <trkpt lat="46.48891" lon="5.24552">
        <ele>218.60000610352</ele>
        <time>2022-05-31T12:44:27.000Z</time>
      </trkpt>
      <trkpt lat="46.48941" lon="5.24518">
        <ele>218</ele>
        <time>2022-05-31T12:44:33.000Z</time>
      </trkpt>
      <trkpt lat="46.48949" lon="5.24513">
        <ele>217.80000305176</ele>
        <time>2022-05-31T12:44:34.000Z</time>
      </trkpt>
      <trkpt lat="46.48958" lon="5.24507">
        <ele>217.60000610352</ele>
        <time>2022-05-31T12:44:35.000Z</time>
      </trkpt>
      <trkpt lat="46.49008" lon="5.24472">
        <ele>216.80000305176</ele>
        <time>2022-05-31T12:44:41.000Z</time>
      </trkpt>
      <trkpt lat="46.49016" lon="5.24467">
        <ele>216.60000610352</ele>
        <time>2022-05-31T12:44:42.000Z</time>
      </trkpt>
      <trkpt lat="46.49034" lon="5.24455">
        <ele>215.80000305176</ele>
        <time>2022-05-31T12:44:44.000Z</time>
      </trkpt>
      <trkpt lat="46.49059" lon="5.24437">
        <ele>215.39999389648</ele>
        <time>2022-05-31T12:44:47.000Z</time>
      </trkpt>
      <trkpt lat="46.49109" lon="5.24404">
        <ele>215.19999694824</ele>
        <time>2022-05-31T12:44:53.000Z</time>
      </trkpt>
      <trkpt lat="46.49125" lon="5.24392">
        <ele>215</ele>
        <time>2022-05-31T12:44:55.000Z</time>
      </trkpt>
      <trkpt lat="46.4918" lon="5.24356">
        <ele>214.80000305176</ele>
        <time>2022-05-31T12:45:02.000Z</time>
      </trkpt>
      <trkpt lat="46.49233" lon="5.2432">
        <ele>214.60000610352</ele>
        <time>2022-05-31T12:45:09.000Z</time>
      </trkpt>
      <trkpt lat="46.49256" lon="5.24304">
        <ele>214.60000610352</ele>
        <time>2022-05-31T12:45:13.000Z</time>
      </trkpt>
      <trkpt lat="46.49293" lon="5.24278">
        <ele>214.60000610352</ele>
        <time>2022-05-31T12:45:18.000Z</time>
      </trkpt>
      <trkpt lat="46.49346" lon="5.24243">
        <ele>214.80000305176</ele>
        <time>2022-05-31T12:45:25.000Z</time>
      </trkpt>
      <trkpt lat="46.49385" lon="5.24218">
        <ele>214.80000305176</ele>
        <time>2022-05-31T12:45:30.000Z</time>
      </trkpt>
      <trkpt lat="46.49408" lon="5.24202">
        <ele>214.39999389648</ele>
        <time>2022-05-31T12:45:33.000Z</time>
      </trkpt>
      <trkpt lat="46.49457" lon="5.24169">
        <ele>213.80000305176</ele>
        <time>2022-05-31T12:45:39.000Z</time>
      </trkpt>
      <trkpt lat="46.49482" lon="5.24152">
        <ele>213.39999389648</ele>
        <time>2022-05-31T12:45:42.000Z</time>
      </trkpt>
      <trkpt lat="46.49518" lon="5.24131">
        <ele>212.19999694824</ele>
        <time>2022-05-31T12:45:46.000Z</time>
      </trkpt>
      <trkpt lat="46.49577" lon="5.24108">
        <ele>210.80000305176</ele>
        <time>2022-05-31T12:45:52.000Z</time>
      </trkpt>
      <trkpt lat="46.49619" lon="5.24106">
        <ele>209.60000610352</ele>
        <time>2022-05-31T12:45:56.000Z</time>
      </trkpt>
      <trkpt lat="46.4963" lon="5.24108">
        <ele>209</ele>
        <time>2022-05-31T12:45:57.000Z</time>
      </trkpt>
      <trkpt lat="46.49652" lon="5.24113">
        <ele>208.39999389648</ele>
        <time>2022-05-31T12:45:59.000Z</time>
      </trkpt>
      <trkpt lat="46.49674" lon="5.24121">
        <ele>207.80000305176</ele>
        <time>2022-05-31T12:46:01.000Z</time>
      </trkpt>
      <trkpt lat="46.49696" lon="5.24132">
        <ele>207</ele>
        <time>2022-05-31T12:46:03.000Z</time>
      </trkpt>
      <trkpt lat="46.49729" lon="5.24151">
        <ele>205.60000610352</ele>
        <time>2022-05-31T12:46:06.000Z</time>
      </trkpt>
      <trkpt lat="46.4974" lon="5.24158">
        <ele>205.19999694824</ele>
        <time>2022-05-31T12:46:07.000Z</time>
      </trkpt>
      <trkpt lat="46.49773" lon="5.24178">
        <ele>204.19999694824</ele>
        <time>2022-05-31T12:46:10.000Z</time>
      </trkpt>
      <trkpt lat="46.49807" lon="5.24198">
        <ele>203.19999694824</ele>
        <time>2022-05-31T12:46:13.000Z</time>
      </trkpt>
      <trkpt lat="46.49841" lon="5.24217">
        <ele>202</ele>
        <time>2022-05-31T12:46:16.000Z</time>
      </trkpt>
      <trkpt lat="46.49887" lon="5.24243">
        <ele>200.60000610352</ele>
        <time>2022-05-31T12:46:20.000Z</time>
      </trkpt>
      <trkpt lat="46.4991" lon="5.24256">
        <ele>199.39999389648</ele>
        <time>2022-05-31T12:46:22.000Z</time>
      </trkpt>
      <trkpt lat="46.49933" lon="5.24269">
        <ele>198.19999694824</ele>
        <time>2022-05-31T12:46:24.000Z</time>
      </trkpt>
      <trkpt lat="46.49966" lon="5.24288">
        <ele>197</ele>
        <time>2022-05-31T12:46:27.000Z</time>
      </trkpt>
      <trkpt lat="46.50019" lon="5.24317">
        <ele>196.39999389648</ele>
        <time>2022-05-31T12:46:32.000Z</time>
      </trkpt>
      <trkpt lat="46.50029" lon="5.24323">
        <ele>196.39999389648</ele>
        <time>2022-05-31T12:46:33.000Z</time>
      </trkpt>
      <trkpt lat="46.50085" lon="5.24356">
        <ele>196.39999389648</ele>
        <time>2022-05-31T12:46:39.000Z</time>
      </trkpt>
      <trkpt lat="46.50094" lon="5.24361">
        <ele>196.39999389648</ele>
        <time>2022-05-31T12:46:40.000Z</time>
      </trkpt>
      <trkpt lat="46.50148" lon="5.24393">
        <ele>197.19999694824</ele>
        <time>2022-05-31T12:46:46.000Z</time>
      </trkpt>
      <trkpt lat="46.50158" lon="5.24398">
        <ele>197.19999694824</ele>
        <time>2022-05-31T12:46:47.000Z</time>
      </trkpt>
      <trkpt lat="46.50209" lon="5.24434">
        <ele>196.80000305176</ele>
        <time>2022-05-31T12:46:53.000Z</time>
      </trkpt>
      <trkpt lat="46.50225" lon="5.24446">
        <ele>196.80000305176</ele>
        <time>2022-05-31T12:46:55.000Z</time>
      </trkpt>
      <trkpt lat="46.50279" lon="5.24486">
        <ele>197.39999389648</ele>
        <time>2022-05-31T12:47:02.000Z</time>
      </trkpt>
      <trkpt lat="46.50287" lon="5.24492">
        <ele>197.60000610352</ele>
        <time>2022-05-31T12:47:03.000Z</time>
      </trkpt>
      <trkpt lat="46.50309" lon="5.24508">
        <ele>198.19999694824</ele>
        <time>2022-05-31T12:47:06.000Z</time>
      </trkpt>
      <trkpt lat="46.50338" lon="5.2453">
        <ele>199.19999694824</ele>
        <time>2022-05-31T12:47:10.000Z</time>
      </trkpt>
      <trkpt lat="46.50345" lon="5.24535">
        <ele>199.39999389648</ele>
        <time>2022-05-31T12:47:11.000Z</time>
      </trkpt>
      <trkpt lat="46.50395" lon="5.24571">
        <ele>200</ele>
        <time>2022-05-31T12:47:18.000Z</time>
      </trkpt>
      <trkpt lat="46.50409" lon="5.24581">
        <ele>200.19999694824</ele>
        <time>2022-05-31T12:47:20.000Z</time>
      </trkpt>
      <trkpt lat="46.50438" lon="5.24598">
        <ele>200.39999389648</ele>
        <time>2022-05-31T12:47:24.000Z</time>
      </trkpt>
      <trkpt lat="46.50452" lon="5.24604">
        <ele>200.60000610352</ele>
        <time>2022-05-31T12:47:26.000Z</time>
      </trkpt>
      <trkpt lat="46.50497" lon="5.24614">
        <ele>201.19999694824</ele>
        <time>2022-05-31T12:47:32.000Z</time>
      </trkpt>
      <trkpt lat="46.50543" lon="5.24613">
        <ele>201.60000610352</ele>
        <time>2022-05-31T12:47:38.000Z</time>
      </trkpt>
      <trkpt lat="46.50551" lon="5.24612">
        <ele>201.80000305176</ele>
        <time>2022-05-31T12:47:39.000Z</time>
      </trkpt>
      <trkpt lat="46.5061" lon="5.24605">
        <ele>202.39999389648</ele>
        <time>2022-05-31T12:47:46.000Z</time>
      </trkpt>
      <trkpt lat="46.50619" lon="5.24603">
        <ele>202.39999389648</ele>
        <time>2022-05-31T12:47:47.000Z</time>
      </trkpt>
      <trkpt lat="46.5068" lon="5.24594">
        <ele>202.19999694824</ele>
        <time>2022-05-31T12:47:54.000Z</time>
      </trkpt>
      <trkpt lat="46.50726" lon="5.24584">
        <ele>201</ele>
        <time>2022-05-31T12:47:59.000Z</time>
      </trkpt>
      <trkpt lat="46.50743" lon="5.24579">
        <ele>200.60000610352</ele>
        <time>2022-05-31T12:48:01.000Z</time>
      </trkpt>
      <trkpt lat="46.50791" lon="5.2456">
        <ele>199.39999389648</ele>
        <time>2022-05-31T12:48:06.000Z</time>
      </trkpt>
      <trkpt lat="46.50808" lon="5.24554">
        <ele>199</ele>
        <time>2022-05-31T12:48:08.000Z</time>
      </trkpt>
      <trkpt lat="46.50846" lon="5.24538">
        <ele>198.39999389648</ele>
        <time>2022-05-31T12:48:12.000Z</time>
      </trkpt>
      <trkpt lat="46.50898" lon="5.24518">
        <ele>197.60000610352</ele>
        <time>2022-05-31T12:48:18.000Z</time>
      </trkpt>
      <trkpt lat="46.50916" lon="5.24511">
        <ele>197.39999389648</ele>
        <time>2022-05-31T12:48:20.000Z</time>
      </trkpt>
      <trkpt lat="46.5097" lon="5.2449">
        <ele>196.39999389648</ele>
        <time>2022-05-31T12:48:26.000Z</time>
      </trkpt>
      <trkpt lat="46.50979" lon="5.24486">
        <ele>196.19999694824</ele>
        <time>2022-05-31T12:48:27.000Z</time>
      </trkpt>
      <trkpt lat="46.51034" lon="5.24464">
        <ele>195.39999389648</ele>
        <time>2022-05-31T12:48:33.000Z</time>
      </trkpt>
      <trkpt lat="46.51043" lon="5.24461">
        <ele>195.19999694824</ele>
        <time>2022-05-31T12:48:34.000Z</time>
      </trkpt>
      <trkpt lat="46.51069" lon="5.24451">
        <ele>195</ele>
        <time>2022-05-31T12:48:37.000Z</time>
      </trkpt>
      <trkpt lat="46.51128" lon="5.24428">
        <ele>195</ele>
        <time>2022-05-31T12:48:44.000Z</time>
      </trkpt>
      <trkpt lat="46.51147" lon="5.24421">
        <ele>195</ele>
        <time>2022-05-31T12:48:46.000Z</time>
      </trkpt>
      <trkpt lat="46.51199" lon="5.244">
        <ele>195</ele>
        <time>2022-05-31T12:48:52.000Z</time>
      </trkpt>
      <trkpt lat="46.51217" lon="5.24394">
        <ele>195</ele>
        <time>2022-05-31T12:48:54.000Z</time>
      </trkpt>
      <trkpt lat="46.51275" lon="5.24371">
        <ele>195.39999389648</ele>
        <time>2022-05-31T12:49:01.000Z</time>
      </trkpt>
      <trkpt lat="46.51307" lon="5.24359">
        <ele>195.60000610352</ele>
        <time>2022-05-31T12:49:05.000Z</time>
      </trkpt>
      <trkpt lat="46.51342" lon="5.24345">
        <ele>196.39999389648</ele>
        <time>2022-05-31T12:49:10.000Z</time>
      </trkpt>
      <trkpt lat="46.51357" lon="5.24339">
        <ele>196.80000305176</ele>
        <time>2022-05-31T12:49:12.000Z</time>
      </trkpt>
      <trkpt lat="46.5137" lon="5.24334">
        <ele>197.60000610352</ele>
        <time>2022-05-31T12:49:14.000Z</time>
      </trkpt>
      <trkpt lat="46.51406" lon="5.2432">
        <ele>198.60000610352</ele>
        <time>2022-05-31T12:49:19.000Z</time>
      </trkpt>
      <trkpt lat="46.5144" lon="5.24307">
        <ele>199.80000305176</ele>
        <time>2022-05-31T12:49:24.000Z</time>
      </trkpt>
      <trkpt lat="46.51459" lon="5.243">
        <ele>200.39999389648</ele>
        <time>2022-05-31T12:49:27.000Z</time>
      </trkpt>
      <trkpt lat="46.51485" lon="5.24289">
        <ele>201</ele>
        <time>2022-05-31T12:49:31.000Z</time>
      </trkpt>
      <trkpt lat="46.51516" lon="5.24276">
        <ele>202</ele>
        <time>2022-05-31T12:49:36.000Z</time>
      </trkpt>
      <trkpt lat="46.51559" lon="5.2426">
        <ele>203.19999694824</ele>
        <time>2022-05-31T12:49:43.000Z</time>
      </trkpt>
      <trkpt lat="46.51571" lon="5.24256">
        <ele>204</ele>
        <time>2022-05-31T12:49:45.000Z</time>
      </trkpt>
      <trkpt lat="46.51583" lon="5.24251">
        <ele>204.39999389648</ele>
        <time>2022-05-31T12:49:47.000Z</time>
      </trkpt>
      <trkpt lat="46.51613" lon="5.2424">
        <ele>205.80000305176</ele>
        <time>2022-05-31T12:49:52.000Z</time>
      </trkpt>
      <trkpt lat="46.51623" lon="5.24236">
        <ele>206.39999389648</ele>
        <time>2022-05-31T12:49:54.000Z</time>
      </trkpt>
      <trkpt lat="46.51636" lon="5.24231">
        <ele>206.80000305176</ele>
        <time>2022-05-31T12:49:56.000Z</time>
      </trkpt>
      <trkpt lat="46.51693" lon="5.24209">
        <ele>208</ele>
        <time>2022-05-31T12:50:05.000Z</time>
      </trkpt>
      <trkpt lat="46.51747" lon="5.24193">
        <ele>208.60000610352</ele>
        <time>2022-05-31T12:50:13.000Z</time>
      </trkpt>
      <trkpt lat="46.51764" lon="5.24191">
        <ele>208.39999389648</ele>
        <time>2022-05-31T12:50:15.000Z</time>
      </trkpt>
      <trkpt lat="46.51823" lon="5.24181">
        <ele>208</ele>
        <time>2022-05-31T12:50:22.000Z</time>
      </trkpt>
      <trkpt lat="46.51832" lon="5.2418">
        <ele>207.80000305176</ele>
        <time>2022-05-31T12:50:23.000Z</time>
      </trkpt>
      <trkpt lat="46.51885" lon="5.24171">
        <ele>207</ele>
        <time>2022-05-31T12:50:29.000Z</time>
      </trkpt>
      <trkpt lat="46.51903" lon="5.24168">
        <ele>206.80000305176</ele>
        <time>2022-05-31T12:50:31.000Z</time>
      </trkpt>
      <trkpt lat="46.51962" lon="5.24158">
        <ele>206</ele>
        <time>2022-05-31T12:50:38.000Z</time>
      </trkpt>
      <trkpt lat="46.51992" lon="5.24153">
        <ele>206</ele>
        <time>2022-05-31T12:50:42.000Z</time>
      </trkpt>
      <trkpt lat="46.52029" lon="5.24146">
        <ele>207.19999694824</ele>
        <time>2022-05-31T12:50:47.000Z</time>
      </trkpt>
      <trkpt lat="46.5208" lon="5.24139">
        <ele>208.19999694824</ele>
        <time>2022-05-31T12:50:54.000Z</time>
      </trkpt>
      <trkpt lat="46.52131" lon="5.2413">
        <ele>209.19999694824</ele>
        <time>2022-05-31T12:51:01.000Z</time>
      </trkpt>
      <trkpt lat="46.52166" lon="5.24125">
        <ele>210.19999694824</ele>
        <time>2022-05-31T12:51:06.000Z</time>
      </trkpt>
      <trkpt lat="46.52203" lon="5.24118">
        <ele>211.19999694824</ele>
        <time>2022-05-31T12:51:11.000Z</time>
      </trkpt>
      <trkpt lat="46.5221" lon="5.24117">
        <ele>211.39999389648</ele>
        <time>2022-05-31T12:51:12.000Z</time>
      </trkpt>
      <trkpt lat="46.52264" lon="5.24109">
        <ele>212.19999694824</ele>
        <time>2022-05-31T12:51:19.000Z</time>
      </trkpt>
      <trkpt lat="46.52272" lon="5.24107">
        <ele>212.19999694824</ele>
        <time>2022-05-31T12:51:20.000Z</time>
      </trkpt>
      <trkpt lat="46.52287" lon="5.24105">
        <ele>212.39999389648</ele>
        <time>2022-05-31T12:51:22.000Z</time>
      </trkpt>
      <trkpt lat="46.52333" lon="5.241">
        <ele>212.80000305176</ele>
        <time>2022-05-31T12:51:28.000Z</time>
      </trkpt>
      <trkpt lat="46.52386" lon="5.24105">
        <ele>213.39999389648</ele>
        <time>2022-05-31T12:51:35.000Z</time>
      </trkpt>
      <trkpt lat="46.52416" lon="5.24113">
        <ele>213.39999389648</ele>
        <time>2022-05-31T12:51:39.000Z</time>
      </trkpt>
      <trkpt lat="46.52454" lon="5.24122">
        <ele>214</ele>
        <time>2022-05-31T12:51:44.000Z</time>
      </trkpt>
      <trkpt lat="46.52515" lon="5.24137">
        <ele>214.19999694824</ele>
        <time>2022-05-31T12:51:52.000Z</time>
      </trkpt>
      <trkpt lat="46.52522" lon="5.24138">
        <ele>214.19999694824</ele>
        <time>2022-05-31T12:51:53.000Z</time>
      </trkpt>
      <trkpt lat="46.52577" lon="5.24151">
        <ele>214.39999389648</ele>
        <time>2022-05-31T12:52:00.000Z</time>
      </trkpt>
      <trkpt lat="46.52618" lon="5.24161">
        <ele>215</ele>
        <time>2022-05-31T12:52:05.000Z</time>
      </trkpt>
      <trkpt lat="46.52676" lon="5.24174">
        <ele>214.80000305176</ele>
        <time>2022-05-31T12:52:12.000Z</time>
      </trkpt>
      <trkpt lat="46.52702" lon="5.24181">
        <ele>214.19999694824</ele>
        <time>2022-05-31T12:52:15.000Z</time>
      </trkpt>
      <trkpt lat="46.52761" lon="5.24195">
        <ele>214.19999694824</ele>
        <time>2022-05-31T12:52:22.000Z</time>
      </trkpt>
      <trkpt lat="46.52778" lon="5.24199">
        <ele>214.39999389648</ele>
        <time>2022-05-31T12:52:24.000Z</time>
      </trkpt>
      <trkpt lat="46.52838" lon="5.24213">
        <ele>214.39999389648</ele>
        <time>2022-05-31T12:52:31.000Z</time>
      </trkpt>
      <trkpt lat="46.52864" lon="5.24219">
        <ele>214.19999694824</ele>
        <time>2022-05-31T12:52:34.000Z</time>
      </trkpt>
      <trkpt lat="46.52919" lon="5.24231">
        <ele>214</ele>
        <time>2022-05-31T12:52:40.000Z</time>
      </trkpt>
      <trkpt lat="46.52937" lon="5.24235">
        <ele>213.80000305176</ele>
        <time>2022-05-31T12:52:42.000Z</time>
      </trkpt>
      <trkpt lat="46.52998" lon="5.2425">
        <ele>213.80000305176</ele>
        <time>2022-05-31T12:52:49.000Z</time>
      </trkpt>
      <trkpt lat="46.53016" lon="5.24254">
        <ele>213.60000610352</ele>
        <time>2022-05-31T12:52:51.000Z</time>
      </trkpt>
      <trkpt lat="46.5305" lon="5.24263">
        <ele>213.39999389648</ele>
        <time>2022-05-31T12:52:55.000Z</time>
      </trkpt>
      <trkpt lat="46.53113" lon="5.24278">
        <ele>213</ele>
        <time>2022-05-31T12:53:02.000Z</time>
      </trkpt>
      <trkpt lat="46.53132" lon="5.24283">
        <ele>213</ele>
        <time>2022-05-31T12:53:04.000Z</time>
      </trkpt>
      <trkpt lat="46.5319" lon="5.24296">
        <ele>212.80000305176</ele>
        <time>2022-05-31T12:53:10.000Z</time>
      </trkpt>
      <trkpt lat="46.5321" lon="5.243">
        <ele>212.60000610352</ele>
        <time>2022-05-31T12:53:12.000Z</time>
      </trkpt>
      <trkpt lat="46.5322" lon="5.24302">
        <ele>212.60000610352</ele>
        <time>2022-05-31T12:53:13.000Z</time>
      </trkpt>
      <trkpt lat="46.53278" lon="5.24314">
        <ele>212.39999389648</ele>
        <time>2022-05-31T12:53:19.000Z</time>
      </trkpt>
      <trkpt lat="46.53316" lon="5.24321">
        <ele>212.39999389648</ele>
        <time>2022-05-31T12:53:23.000Z</time>
      </trkpt>
      <trkpt lat="46.53372" lon="5.24331">
        <ele>212</ele>
        <time>2022-05-31T12:53:29.000Z</time>
      </trkpt>
      <trkpt lat="46.53399" lon="5.24336">
        <ele>211.80000305176</ele>
        <time>2022-05-31T12:53:32.000Z</time>
      </trkpt>
      <trkpt lat="46.53455" lon="5.24346">
        <ele>211.80000305176</ele>
        <time>2022-05-31T12:53:38.000Z</time>
      </trkpt>
      <trkpt lat="46.53483" lon="5.24351">
        <ele>211.60000610352</ele>
        <time>2022-05-31T12:53:41.000Z</time>
      </trkpt>
      <trkpt lat="46.53511" lon="5.24357">
        <ele>211.60000610352</ele>
        <time>2022-05-31T12:53:44.000Z</time>
      </trkpt>
      <trkpt lat="46.53566" lon="5.24367">
        <ele>211.39999389648</ele>
        <time>2022-05-31T12:53:50.000Z</time>
      </trkpt>
      <trkpt lat="46.5362" lon="5.24377">
        <ele>211</ele>
        <time>2022-05-31T12:53:56.000Z</time>
      </trkpt>
      <trkpt lat="46.53648" lon="5.24382">
        <ele>210.80000305176</ele>
        <time>2022-05-31T12:53:59.000Z</time>
      </trkpt>
      <trkpt lat="46.53693" lon="5.2439">
        <ele>210.60000610352</ele>
        <time>2022-05-31T12:54:04.000Z</time>
      </trkpt>
      <trkpt lat="46.53738" lon="5.24398">
        <ele>210.39999389648</ele>
        <time>2022-05-31T12:54:09.000Z</time>
      </trkpt>
      <trkpt lat="46.53794" lon="5.24409">
        <ele>209.80000305176</ele>
        <time>2022-05-31T12:54:15.000Z</time>
      </trkpt>
      <trkpt lat="46.53804" lon="5.2441">
        <ele>209.60000610352</ele>
        <time>2022-05-31T12:54:16.000Z</time>
      </trkpt>
      <trkpt lat="46.53865" lon="5.24421">
        <ele>209</ele>
        <time>2022-05-31T12:54:22.000Z</time>
      </trkpt>
      <trkpt lat="46.53886" lon="5.24424">
        <ele>208.60000610352</ele>
        <time>2022-05-31T12:54:24.000Z</time>
      </trkpt>
      <trkpt lat="46.53919" lon="5.2443">
        <ele>207.39999389648</ele>
        <time>2022-05-31T12:54:27.000Z</time>
      </trkpt>
      <trkpt lat="46.53953" lon="5.24437">
        <ele>206.60000610352</ele>
        <time>2022-05-31T12:54:30.000Z</time>
      </trkpt>
      <trkpt lat="46.53976" lon="5.24441">
        <ele>206.19999694824</ele>
        <time>2022-05-31T12:54:32.000Z</time>
      </trkpt>
      <trkpt lat="46.54011" lon="5.24447">
        <ele>205</ele>
        <time>2022-05-31T12:54:35.000Z</time>
      </trkpt>
      <trkpt lat="46.54034" lon="5.24452">
        <ele>204.39999389648</ele>
        <time>2022-05-31T12:54:37.000Z</time>
      </trkpt>
      <trkpt lat="46.54046" lon="5.24454">
        <ele>204</ele>
        <time>2022-05-31T12:54:38.000Z</time>
      </trkpt>
      <trkpt lat="46.54093" lon="5.24462">
        <ele>202.60000610352</ele>
        <time>2022-05-31T12:54:42.000Z</time>
      </trkpt>
      <trkpt lat="46.54137" lon="5.2447">
        <ele>201.39999389648</ele>
        <time>2022-05-31T12:54:46.000Z</time>
      </trkpt>
      <trkpt lat="46.54147" lon="5.24472">
        <ele>201.19999694824</ele>
        <time>2022-05-31T12:54:47.000Z</time>
      </trkpt>
      <trkpt lat="46.54208" lon="5.24484">
        <ele>200.39999389648</ele>
        <time>2022-05-31T12:54:53.000Z</time>
      </trkpt>
      <trkpt lat="46.54216" lon="5.24486">
        <ele>200.39999389648</ele>
        <time>2022-05-31T12:54:54.000Z</time>
      </trkpt>
      <trkpt lat="46.54274" lon="5.24497">
        <ele>200.39999389648</ele>
        <time>2022-05-31T12:55:00.000Z</time>
      </trkpt>
      <trkpt lat="46.54283" lon="5.24498">
        <ele>200.39999389648</ele>
        <time>2022-05-31T12:55:01.000Z</time>
      </trkpt>
      <trkpt lat="46.54342" lon="5.24509">
        <ele>201.19999694824</ele>
        <time>2022-05-31T12:55:08.000Z</time>
      </trkpt>
      <trkpt lat="46.54358" lon="5.24513">
        <ele>201.39999389648</ele>
        <time>2022-05-31T12:55:10.000Z</time>
      </trkpt>
      <trkpt lat="46.54415" lon="5.24525">
        <ele>202.19999694824</ele>
        <time>2022-05-31T12:55:17.000Z</time>
      </trkpt>
      <trkpt lat="46.54423" lon="5.24526">
        <ele>202.19999694824</ele>
        <time>2022-05-31T12:55:18.000Z</time>
      </trkpt>
      <trkpt lat="46.54479" lon="5.24538">
        <ele>202.19999694824</ele>
        <time>2022-05-31T12:55:25.000Z</time>
      </trkpt>
      <trkpt lat="46.54509" lon="5.24546">
        <ele>202.60000610352</ele>
        <time>2022-05-31T12:55:29.000Z</time>
      </trkpt>
      <trkpt lat="46.54525" lon="5.24549">
        <ele>202.39999389648</ele>
        <time>2022-05-31T12:55:31.000Z</time>
      </trkpt>
      <trkpt lat="46.54575" lon="5.2456">
        <ele>203.39999389648</ele>
        <time>2022-05-31T12:55:38.000Z</time>
      </trkpt>
      <trkpt lat="46.54584" lon="5.24562">
        <ele>203.60000610352</ele>
        <time>2022-05-31T12:55:39.000Z</time>
      </trkpt>
      <trkpt lat="46.54633" lon="5.24574">
        <ele>204.60000610352</ele>
        <time>2022-05-31T12:55:46.000Z</time>
      </trkpt>
      <trkpt lat="46.54639" lon="5.24575">
        <ele>204.80000305176</ele>
        <time>2022-05-31T12:55:47.000Z</time>
      </trkpt>
      <trkpt lat="46.54667" lon="5.24582">
        <ele>206</ele>
        <time>2022-05-31T12:55:51.000Z</time>
      </trkpt>
      <trkpt lat="46.54695" lon="5.24587">
        <ele>206.60000610352</ele>
        <time>2022-05-31T12:55:55.000Z</time>
      </trkpt>
      <trkpt lat="46.54709" lon="5.2459">
        <ele>207</ele>
        <time>2022-05-31T12:55:57.000Z</time>
      </trkpt>
      <trkpt lat="46.54736" lon="5.24591">
        <ele>207.60000610352</ele>
        <time>2022-05-31T12:56:01.000Z</time>
      </trkpt>
      <trkpt lat="46.54755" lon="5.24588">
        <ele>208</ele>
        <time>2022-05-31T12:56:04.000Z</time>
      </trkpt>
      <trkpt lat="46.54777" lon="5.2458">
        <ele>208.60000610352</ele>
        <time>2022-05-31T12:56:07.000Z</time>
      </trkpt>
      <trkpt lat="46.54802" lon="5.24567">
        <ele>209.19999694824</ele>
        <time>2022-05-31T12:56:11.000Z</time>
      </trkpt>
      <trkpt lat="46.54816" lon="5.24559">
        <ele>209.60000610352</ele>
        <time>2022-05-31T12:56:13.000Z</time>
      </trkpt>
      <trkpt lat="46.54835" lon="5.24548">
        <ele>210.19999694824</ele>
        <time>2022-05-31T12:56:16.000Z</time>
      </trkpt>
      <trkpt lat="46.54869" lon="5.24528">
        <ele>211</ele>
        <time>2022-05-31T12:56:22.000Z</time>
      </trkpt>
      <trkpt lat="46.54887" lon="5.24517">
        <ele>211.60000610352</ele>
        <time>2022-05-31T12:56:25.000Z</time>
      </trkpt>
      <trkpt lat="46.54916" lon="5.24499">
        <ele>212.60000610352</ele>
        <time>2022-05-31T12:56:30.000Z</time>
      </trkpt>
      <trkpt lat="46.54928" lon="5.24491">
        <ele>212.60000610352</ele>
        <time>2022-05-31T12:56:32.000Z</time>
      </trkpt>
      <trkpt lat="46.54959" lon="5.24474">
        <ele>213.39999389648</ele>
        <time>2022-05-31T12:56:37.000Z</time>
      </trkpt>
      <trkpt lat="46.54987" lon="5.24458">
        <ele>213.60000610352</ele>
        <time>2022-05-31T12:56:41.000Z</time>
      </trkpt>
      <trkpt lat="46.54993" lon="5.24454">
        <ele>213.60000610352</ele>
        <time>2022-05-31T12:56:42.000Z</time>
      </trkpt>
      <trkpt lat="46.55046" lon="5.24421">
        <ele>213.80000305176</ele>
        <time>2022-05-31T12:56:50.000Z</time>
      </trkpt>
      <trkpt lat="46.55053" lon="5.24416">
        <ele>213.80000305176</ele>
        <time>2022-05-31T12:56:51.000Z</time>
      </trkpt>
      <trkpt lat="46.5511" lon="5.24382">
        <ele>213.39999389648</ele>
        <time>2022-05-31T12:56:59.000Z</time>
      </trkpt>
      <trkpt lat="46.55118" lon="5.24378">
        <ele>213.19999694824</ele>
        <time>2022-05-31T12:57:00.000Z</time>
      </trkpt>
      <trkpt lat="46.55135" lon="5.2437">
        <ele>212.60000610352</ele>
        <time>2022-05-31T12:57:02.000Z</time>
      </trkpt>
      <trkpt lat="46.5516" lon="5.24361">
        <ele>212</ele>
        <time>2022-05-31T12:57:05.000Z</time>
      </trkpt>
      <trkpt lat="46.55179" lon="5.24358">
        <ele>211.39999389648</ele>
        <time>2022-05-31T12:57:07.000Z</time>
      </trkpt>
      <trkpt lat="46.55215" lon="5.24355">
        <ele>210.80000305176</ele>
        <time>2022-05-31T12:57:11.000Z</time>
      </trkpt>
      <trkpt lat="46.55224" lon="5.24354">
        <ele>210.19999694824</ele>
        <time>2022-05-31T12:57:12.000Z</time>
      </trkpt>
      <trkpt lat="46.55284" lon="5.2435">
        <ele>209.60000610352</ele>
        <time>2022-05-31T12:57:19.000Z</time>
      </trkpt>
      <trkpt lat="46.5534" lon="5.24346">
        <ele>209.19999694824</ele>
        <time>2022-05-31T12:57:26.000Z</time>
      </trkpt>
      <trkpt lat="46.55348" lon="5.24346">
        <ele>209.19999694824</ele>
        <time>2022-05-31T12:57:27.000Z</time>
      </trkpt>
      <trkpt lat="46.55402" lon="5.24341">
        <ele>209.80000305176</ele>
        <time>2022-05-31T12:57:34.000Z</time>
      </trkpt>
      <trkpt lat="46.55417" lon="5.24341">
        <ele>209.80000305176</ele>
        <time>2022-05-31T12:57:36.000Z</time>
      </trkpt>
      <trkpt lat="46.55475" lon="5.24337">
        <ele>209.39999389648</ele>
        <time>2022-05-31T12:57:43.000Z</time>
      </trkpt>
      <trkpt lat="46.55494" lon="5.24336">
        <ele>209.19999694824</ele>
        <time>2022-05-31T12:57:45.000Z</time>
      </trkpt>
      <trkpt lat="46.55512" lon="5.24335">
        <ele>209</ele>
        <time>2022-05-31T12:57:47.000Z</time>
      </trkpt>
      <trkpt lat="46.55565" lon="5.24331">
        <ele>208.60000610352</ele>
        <time>2022-05-31T12:57:53.000Z</time>
      </trkpt>
      <trkpt lat="46.55626" lon="5.24326">
        <ele>208</ele>
        <time>2022-05-31T12:58:00.000Z</time>
      </trkpt>
      <trkpt lat="46.55651" lon="5.24324">
        <ele>207.80000305176</ele>
        <time>2022-05-31T12:58:03.000Z</time>
      </trkpt>
      <trkpt lat="46.55708" lon="5.24319">
        <ele>208</ele>
        <time>2022-05-31T12:58:10.000Z</time>
      </trkpt>
      <trkpt lat="46.55716" lon="5.24319">
        <ele>208.19999694824</ele>
        <time>2022-05-31T12:58:11.000Z</time>
      </trkpt>
      <trkpt lat="46.55771" lon="5.24314">
        <ele>209</ele>
        <time>2022-05-31T12:58:18.000Z</time>
      </trkpt>
      <trkpt lat="46.55801" lon="5.24311">
        <ele>209.19999694824</ele>
        <time>2022-05-31T12:58:22.000Z</time>
      </trkpt>
      <trkpt lat="46.55815" lon="5.24309">
        <ele>209.19999694824</ele>
        <time>2022-05-31T12:58:24.000Z</time>
      </trkpt>
      <trkpt lat="46.55829" lon="5.2431">
        <ele>209.39999389648</ele>
        <time>2022-05-31T12:58:26.000Z</time>
      </trkpt>
      <trkpt lat="46.55849" lon="5.24309">
        <ele>210.19999694824</ele>
        <time>2022-05-31T12:58:29.000Z</time>
      </trkpt>
      <trkpt lat="46.55891" lon="5.24304">
        <ele>211</ele>
        <time>2022-05-31T12:58:35.000Z</time>
      </trkpt>
      <trkpt lat="46.55904" lon="5.24304">
        <ele>211.19999694824</ele>
        <time>2022-05-31T12:58:37.000Z</time>
      </trkpt>
      <trkpt lat="46.55945" lon="5.24303">
        <ele>211.80000305176</ele>
        <time>2022-05-31T12:58:43.000Z</time>
      </trkpt>
      <trkpt lat="46.55951" lon="5.24301">
        <ele>212</ele>
        <time>2022-05-31T12:58:44.000Z</time>
      </trkpt>
      <trkpt lat="46.55962" lon="5.24289">
        <ele>212.19999694824</ele>
        <time>2022-05-31T12:58:46.000Z</time>
      </trkpt>
      <trkpt lat="46.55963" lon="5.2428">
        <ele>212.39999389648</ele>
        <time>2022-05-31T12:58:47.000Z</time>
      </trkpt>
      <trkpt lat="46.55962" lon="5.2427">
        <ele>212.60000610352</ele>
        <time>2022-05-31T12:58:48.000Z</time>
      </trkpt>
      <trkpt lat="46.55951" lon="5.24205">
        <ele>213.19999694824</ele>
        <time>2022-05-31T12:58:54.000Z</time>
      </trkpt>
      <trkpt lat="46.55947" lon="5.24184">
        <ele>213.19999694824</ele>
        <time>2022-05-31T12:58:56.000Z</time>
      </trkpt>
      <trkpt lat="46.55944" lon="5.24174">
        <ele>213.39999389648</ele>
        <time>2022-05-31T12:58:57.000Z</time>
      </trkpt>
      <trkpt lat="46.55938" lon="5.24154">
        <ele>213.39999389648</ele>
        <time>2022-05-31T12:58:59.000Z</time>
      </trkpt>
      <trkpt lat="46.55921" lon="5.24106">
        <ele>214.19999694824</ele>
        <time>2022-05-31T12:59:04.000Z</time>
      </trkpt>
      <trkpt lat="46.55915" lon="5.24086">
        <ele>214.39999389648</ele>
        <time>2022-05-31T12:59:06.000Z</time>
      </trkpt>
      <trkpt lat="46.55906" lon="5.24058">
        <ele>214.60000610352</ele>
        <time>2022-05-31T12:59:09.000Z</time>
      </trkpt>
      <trkpt lat="46.5589" lon="5.2401">
        <ele>214.60000610352</ele>
        <time>2022-05-31T12:59:14.000Z</time>
      </trkpt>
      <trkpt lat="46.55867" lon="5.23947">
        <ele>214.80000305176</ele>
        <time>2022-05-31T12:59:20.000Z</time>
      </trkpt>
      <trkpt lat="46.55859" lon="5.23931">
        <ele>215</ele>
        <time>2022-05-31T12:59:22.000Z</time>
      </trkpt>
      <trkpt lat="46.55848" lon="5.23918">
        <ele>215</ele>
        <time>2022-05-31T12:59:24.000Z</time>
      </trkpt>
      <trkpt lat="46.55822" lon="5.23899">
        <ele>215</ele>
        <time>2022-05-31T12:59:28.000Z</time>
      </trkpt>
      <trkpt lat="46.55816" lon="5.23894">
        <ele>215</ele>
        <time>2022-05-31T12:59:29.000Z</time>
      </trkpt>
      <trkpt lat="46.55774" lon="5.23863">
        <ele>215</ele>
        <time>2022-05-31T12:59:35.000Z</time>
      </trkpt>
      <trkpt lat="46.55726" lon="5.23829">
        <ele>215.19999694824</ele>
        <time>2022-05-31T12:59:42.000Z</time>
      </trkpt>
      <trkpt lat="46.55719" lon="5.23825">
        <ele>215.19999694824</ele>
        <time>2022-05-31T12:59:43.000Z</time>
      </trkpt>
      <trkpt lat="46.55697" lon="5.2382">
        <ele>215.19999694824</ele>
        <time>2022-05-31T12:59:46.000Z</time>
      </trkpt>
      <trkpt lat="46.5569" lon="5.2382">
        <ele>215.19999694824</ele>
        <time>2022-05-31T12:59:47.000Z</time>
      </trkpt>
      <trkpt lat="46.5565" lon="5.23821">
        <ele>215.19999694824</ele>
        <time>2022-05-31T12:59:52.000Z</time>
      </trkpt>
      <trkpt lat="46.55611" lon="5.23822">
        <ele>214.39999389648</ele>
        <time>2022-05-31T12:59:56.000Z</time>
      </trkpt>
      <trkpt lat="46.5558" lon="5.2382">
        <ele>213.19999694824</ele>
        <time>2022-05-31T12:59:59.000Z</time>
      </trkpt>
      <trkpt lat="46.55559" lon="5.23818">
        <ele>211.80000305176</ele>
        <time>2022-05-31T13:00:01.000Z</time>
      </trkpt>
      <trkpt lat="46.55538" lon="5.23811">
        <ele>211</ele>
        <time>2022-05-31T13:00:03.000Z</time>
      </trkpt>
      <trkpt lat="46.55527" lon="5.23805">
        <ele>209.60000610352</ele>
        <time>2022-05-31T13:00:04.000Z</time>
      </trkpt>
      <trkpt lat="46.55517" lon="5.23799">
        <ele>208.60000610352</ele>
        <time>2022-05-31T13:00:05.000Z</time>
      </trkpt>
      <trkpt lat="46.55486" lon="5.23778">
        <ele>207.39999389648</ele>
        <time>2022-05-31T13:00:08.000Z</time>
      </trkpt>
      <trkpt lat="46.55455" lon="5.23756">
        <ele>205.80000305176</ele>
        <time>2022-05-31T13:00:11.000Z</time>
      </trkpt>
      <trkpt lat="46.55445" lon="5.23749">
        <ele>204.80000305176</ele>
        <time>2022-05-31T13:00:12.000Z</time>
      </trkpt>
      <trkpt lat="46.55435" lon="5.23741">
        <ele>204.39999389648</ele>
        <time>2022-05-31T13:00:13.000Z</time>
      </trkpt>
      <trkpt lat="46.55415" lon="5.23727">
        <ele>203.39999389648</ele>
        <time>2022-05-31T13:00:15.000Z</time>
      </trkpt>
      <trkpt lat="46.55385" lon="5.23707">
        <ele>202</ele>
        <time>2022-05-31T13:00:18.000Z</time>
      </trkpt>
      <trkpt lat="46.55366" lon="5.23693">
        <ele>201.39999389648</ele>
        <time>2022-05-31T13:00:20.000Z</time>
      </trkpt>
      <trkpt lat="46.55341" lon="5.23674">
        <ele>200.80000305176</ele>
        <time>2022-05-31T13:00:23.000Z</time>
      </trkpt>
      <trkpt lat="46.55317" lon="5.23656">
        <ele>200.19999694824</ele>
        <time>2022-05-31T13:00:26.000Z</time>
      </trkpt>
      <trkpt lat="46.55265" lon="5.23614">
        <ele>200.19999694824</ele>
        <time>2022-05-31T13:00:33.000Z</time>
      </trkpt>
      <trkpt lat="46.55258" lon="5.23608">
        <ele>200.19999694824</ele>
        <time>2022-05-31T13:00:34.000Z</time>
      </trkpt>
      <trkpt lat="46.55205" lon="5.23565">
        <ele>200.60000610352</ele>
        <time>2022-05-31T13:00:42.000Z</time>
      </trkpt>
      <trkpt lat="46.55198" lon="5.23559">
        <ele>200.60000610352</ele>
        <time>2022-05-31T13:00:43.000Z</time>
      </trkpt>
      <trkpt lat="46.55147" lon="5.23517">
        <ele>200.60000610352</ele>
        <time>2022-05-31T13:00:51.000Z</time>
      </trkpt>
      <trkpt lat="46.55098" lon="5.23471">
        <ele>200.60000610352</ele>
        <time>2022-05-31T13:00:59.000Z</time>
      </trkpt>
      <trkpt lat="46.55093" lon="5.23465">
        <ele>200.60000610352</ele>
        <time>2022-05-31T13:01:00.000Z</time>
      </trkpt>
      <trkpt lat="46.55047" lon="5.23406">
        <ele>200.39999389648</ele>
        <time>2022-05-31T13:01:08.000Z</time>
      </trkpt>
      <trkpt lat="46.55041" lon="5.23398">
        <ele>200.19999694824</ele>
        <time>2022-05-31T13:01:09.000Z</time>
      </trkpt>
      <trkpt lat="46.55037" lon="5.23391">
        <ele>200.19999694824</ele>
        <time>2022-05-31T13:01:10.000Z</time>
      </trkpt>
      <trkpt lat="46.55029" lon="5.23372">
        <ele>199.80000305176</ele>
        <time>2022-05-31T13:01:12.000Z</time>
      </trkpt>
      <trkpt lat="46.55021" lon="5.23349">
        <ele>199.60000610352</ele>
        <time>2022-05-31T13:01:14.000Z</time>
      </trkpt>
      <trkpt lat="46.54998" lon="5.2327">
        <ele>200</ele>
        <time>2022-05-31T13:01:22.000Z</time>
      </trkpt>
      <trkpt lat="46.54979" lon="5.23216">
        <ele>200.19999694824</ele>
        <time>2022-05-31T13:01:29.000Z</time>
      </trkpt>
      <trkpt lat="46.54971" lon="5.23201">
        <ele>200.19999694824</ele>
        <time>2022-05-31T13:01:31.000Z</time>
      </trkpt>
      <trkpt lat="46.54963" lon="5.23192">
        <ele>200.60000610352</ele>
        <time>2022-05-31T13:01:33.000Z</time>
      </trkpt>
      <trkpt lat="46.54954" lon="5.23184">
        <ele>201</ele>
        <time>2022-05-31T13:01:35.000Z</time>
      </trkpt>
      <trkpt lat="46.54937" lon="5.2317">
        <ele>202.19999694824</ele>
        <time>2022-05-31T13:01:39.000Z</time>
      </trkpt>
      <trkpt lat="46.54922" lon="5.23155">
        <ele>203.19999694824</ele>
        <time>2022-05-31T13:01:43.000Z</time>
      </trkpt>
      <trkpt lat="46.54915" lon="5.23148">
        <ele>203.60000610352</ele>
        <time>2022-05-31T13:01:45.000Z</time>
      </trkpt>
      <trkpt lat="46.54912" lon="5.23144">
        <ele>204.19999694824</ele>
        <time>2022-05-31T13:01:46.000Z</time>
      </trkpt>
      <trkpt lat="46.54894" lon="5.23126">
        <ele>205.39999389648</ele>
        <time>2022-05-31T13:01:51.000Z</time>
      </trkpt>
      <trkpt lat="46.54887" lon="5.23119">
        <ele>205.80000305176</ele>
        <time>2022-05-31T13:01:53.000Z</time>
      </trkpt>
      <trkpt lat="46.5488" lon="5.23112">
        <ele>206.60000610352</ele>
        <time>2022-05-31T13:01:55.000Z</time>
      </trkpt>
      <trkpt lat="46.54863" lon="5.23096">
        <ele>207.60000610352</ele>
        <time>2022-05-31T13:02:00.000Z</time>
      </trkpt>
      <trkpt lat="46.54853" lon="5.23086">
        <ele>208</ele>
        <time>2022-05-31T13:02:03.000Z</time>
      </trkpt>
      <trkpt lat="46.54846" lon="5.2308">
        <ele>209</ele>
        <time>2022-05-31T13:02:05.000Z</time>
      </trkpt>
      <trkpt lat="46.54825" lon="5.2306">
        <ele>210.19999694824</ele>
        <time>2022-05-31T13:02:11.000Z</time>
      </trkpt>
      <trkpt lat="46.54806" lon="5.23042">
        <ele>211.19999694824</ele>
        <time>2022-05-31T13:02:16.000Z</time>
      </trkpt>
      <trkpt lat="46.5479" lon="5.23026">
        <ele>211.60000610352</ele>
        <time>2022-05-31T13:02:20.000Z</time>
      </trkpt>
      <trkpt lat="46.54748" lon="5.22985">
        <ele>212.19999694824</ele>
        <time>2022-05-31T13:02:29.000Z</time>
      </trkpt>
      <trkpt lat="46.54714" lon="5.22952">
        <ele>212.19999694824</ele>
        <time>2022-05-31T13:02:36.000Z</time>
      </trkpt>
      <trkpt lat="46.54709" lon="5.22948">
        <ele>212.39999389648</ele>
        <time>2022-05-31T13:02:37.000Z</time>
      </trkpt>
      <trkpt lat="46.547" lon="5.22941">
        <ele>212.60000610352</ele>
        <time>2022-05-31T13:02:39.000Z</time>
      </trkpt>
      <trkpt lat="46.54666" lon="5.22922">
        <ele>212.80000305176</ele>
        <time>2022-05-31T13:02:46.000Z</time>
      </trkpt>
      <trkpt lat="46.54618" lon="5.22897">
        <ele>213.19999694824</ele>
        <time>2022-05-31T13:02:56.000Z</time>
      </trkpt>
      <trkpt lat="46.54609" lon="5.22892">
        <ele>213.60000610352</ele>
        <time>2022-05-31T13:02:58.000Z</time>
      </trkpt>
      <trkpt lat="46.5457" lon="5.22871">
        <ele>214</ele>
        <time>2022-05-31T13:03:06.000Z</time>
      </trkpt>
      <trkpt lat="46.54528" lon="5.22845">
        <ele>214.60000610352</ele>
        <time>2022-05-31T13:03:14.000Z</time>
      </trkpt>
      <trkpt lat="46.54514" lon="5.22826">
        <ele>214.39999389648</ele>
        <time>2022-05-31T13:03:17.000Z</time>
      </trkpt>
      <trkpt lat="46.54509" lon="5.22816">
        <ele>214.39999389648</ele>
        <time>2022-05-31T13:03:18.000Z</time>
      </trkpt>
      <trkpt lat="46.54482" lon="5.22763">
        <ele>214.60000610352</ele>
        <time>2022-05-31T13:03:25.000Z</time>
      </trkpt>
      <trkpt lat="46.54469" lon="5.22739">
        <ele>214.60000610352</ele>
        <time>2022-05-31T13:03:28.000Z</time>
      </trkpt>
      <trkpt lat="46.54451" lon="5.22712">
        <ele>214.60000610352</ele>
        <time>2022-05-31T13:03:32.000Z</time>
      </trkpt>
      <trkpt lat="46.54414" lon="5.22673">
        <ele>214.60000610352</ele>
        <time>2022-05-31T13:03:38.000Z</time>
      </trkpt>
      <trkpt lat="46.54395" lon="5.22653">
        <ele>213.39999389648</ele>
        <time>2022-05-31T13:03:41.000Z</time>
      </trkpt>
      <trkpt lat="46.5437" lon="5.22629">
        <ele>213</ele>
        <time>2022-05-31T13:03:45.000Z</time>
      </trkpt>
      <trkpt lat="46.54322" lon="5.22583">
        <ele>213</ele>
        <time>2022-05-31T13:03:53.000Z</time>
      </trkpt>
      <trkpt lat="46.54317" lon="5.22577">
        <ele>213</ele>
        <time>2022-05-31T13:03:54.000Z</time>
      </trkpt>
      <trkpt lat="46.54282" lon="5.22541">
        <ele>213.19999694824</ele>
        <time>2022-05-31T13:04:00.000Z</time>
      </trkpt>
      <trkpt lat="46.54273" lon="5.22524">
        <ele>213.39999389648</ele>
        <time>2022-05-31T13:04:02.000Z</time>
      </trkpt>
      <trkpt lat="46.54267" lon="5.22503">
        <ele>213.19999694824</ele>
        <time>2022-05-31T13:04:04.000Z</time>
      </trkpt>
      <trkpt lat="46.54266" lon="5.22492">
        <ele>213.19999694824</ele>
        <time>2022-05-31T13:04:05.000Z</time>
      </trkpt>
      <trkpt lat="46.54267" lon="5.22444">
        <ele>213</ele>
        <time>2022-05-31T13:04:09.000Z</time>
      </trkpt>
      <trkpt lat="46.5427" lon="5.22363">
        <ele>212.39999389648</ele>
        <time>2022-05-31T13:04:15.000Z</time>
      </trkpt>
      <trkpt lat="46.54271" lon="5.22345">
        <ele>212.39999389648</ele>
        <time>2022-05-31T13:04:16.000Z</time>
      </trkpt>
      <trkpt lat="46.54273" lon="5.22287">
        <ele>210.60000610352</ele>
        <time>2022-05-31T13:04:20.000Z</time>
      </trkpt>
      <trkpt lat="46.54274" lon="5.22256">
        <ele>209.80000305176</ele>
        <time>2022-05-31T13:04:22.000Z</time>
      </trkpt>
      <trkpt lat="46.54276" lon="5.22212">
        <ele>208.19999694824</ele>
        <time>2022-05-31T13:04:25.000Z</time>
      </trkpt>
      <trkpt lat="46.54278" lon="5.22169">
        <ele>207.19999694824</ele>
        <time>2022-05-31T13:04:28.000Z</time>
      </trkpt>
      <trkpt lat="46.54277" lon="5.22142">
        <ele>207</ele>
        <time>2022-05-31T13:04:30.000Z</time>
      </trkpt>
      <trkpt lat="46.54275" lon="5.22129">
        <ele>207</ele>
        <time>2022-05-31T13:04:31.000Z</time>
      </trkpt>
      <trkpt lat="46.5427" lon="5.22105">
        <ele>206.80000305176</ele>
        <time>2022-05-31T13:04:33.000Z</time>
      </trkpt>
      <trkpt lat="46.54247" lon="5.22054">
        <ele>206.80000305176</ele>
        <time>2022-05-31T13:04:38.000Z</time>
      </trkpt>
      <trkpt lat="46.54223" lon="5.22003">
        <ele>207.19999694824</ele>
        <time>2022-05-31T13:04:44.000Z</time>
      </trkpt>
      <trkpt lat="46.54204" lon="5.21964">
        <ele>208.19999694824</ele>
        <time>2022-05-31T13:04:49.000Z</time>
      </trkpt>
      <trkpt lat="46.54193" lon="5.2194">
        <ele>209.39999389648</ele>
        <time>2022-05-31T13:04:52.000Z</time>
      </trkpt>
      <trkpt lat="46.54183" lon="5.21916">
        <ele>209.80000305176</ele>
        <time>2022-05-31T13:04:55.000Z</time>
      </trkpt>
      <trkpt lat="46.54164" lon="5.21865">
        <ele>210.19999694824</ele>
        <time>2022-05-31T13:05:01.000Z</time>
      </trkpt>
      <trkpt lat="46.54155" lon="5.2184">
        <ele>210.39999389648</ele>
        <time>2022-05-31T13:05:04.000Z</time>
      </trkpt>
      <trkpt lat="46.54136" lon="5.21777">
        <ele>211.60000610352</ele>
        <time>2022-05-31T13:05:11.000Z</time>
      </trkpt>
      <trkpt lat="46.54115" lon="5.21707">
        <ele>211.80000305176</ele>
        <time>2022-05-31T13:05:18.000Z</time>
      </trkpt>
      <trkpt lat="46.54105" lon="5.21681">
        <ele>211.60000610352</ele>
        <time>2022-05-31T13:05:21.000Z</time>
      </trkpt>
      <trkpt lat="46.54095" lon="5.21665">
        <ele>211.39999389648</ele>
        <time>2022-05-31T13:05:23.000Z</time>
      </trkpt>
      <trkpt lat="46.5406" lon="5.21627">
        <ele>211</ele>
        <time>2022-05-31T13:05:29.000Z</time>
      </trkpt>
      <trkpt lat="46.54015" lon="5.21583">
        <ele>210.80000305176</ele>
        <time>2022-05-31T13:05:36.000Z</time>
      </trkpt>
      <trkpt lat="46.54009" lon="5.21577">
        <ele>210.80000305176</ele>
        <time>2022-05-31T13:05:37.000Z</time>
      </trkpt>
      <trkpt lat="46.53966" lon="5.21535">
        <ele>210.80000305176</ele>
        <time>2022-05-31T13:05:45.000Z</time>
      </trkpt>
      <trkpt lat="46.5392" lon="5.21488">
        <ele>212</ele>
        <time>2022-05-31T13:05:54.000Z</time>
      </trkpt>
      <trkpt lat="46.53915" lon="5.21482">
        <ele>212.19999694824</ele>
        <time>2022-05-31T13:05:55.000Z</time>
      </trkpt>
      <trkpt lat="46.53879" lon="5.21428">
        <ele>212</ele>
        <time>2022-05-31T13:06:03.000Z</time>
      </trkpt>
      <trkpt lat="46.53846" lon="5.21378">
        <ele>212</ele>
        <time>2022-05-31T13:06:10.000Z</time>
      </trkpt>
      <trkpt lat="46.53816" lon="5.2133">
        <ele>212.39999389648</ele>
        <time>2022-05-31T13:06:17.000Z</time>
      </trkpt>
      <trkpt lat="46.53803" lon="5.21309">
        <ele>212.60000610352</ele>
        <time>2022-05-31T13:06:20.000Z</time>
      </trkpt>
      <trkpt lat="46.5378" lon="5.21274">
        <ele>213.19999694824</ele>
        <time>2022-05-31T13:06:25.000Z</time>
      </trkpt>
      <trkpt lat="46.53737" lon="5.21218">
        <ele>213.60000610352</ele>
        <time>2022-05-31T13:06:33.000Z</time>
      </trkpt>
      <trkpt lat="46.53691" lon="5.21162">
        <ele>213.39999389648</ele>
        <time>2022-05-31T13:06:41.000Z</time>
      </trkpt>
      <trkpt lat="46.53643" lon="5.21114">
        <ele>213.19999694824</ele>
        <time>2022-05-31T13:06:48.000Z</time>
      </trkpt>
      <trkpt lat="46.53631" lon="5.21103">
        <ele>213.19999694824</ele>
        <time>2022-05-31T13:06:50.000Z</time>
      </trkpt>
      <trkpt lat="46.53618" lon="5.21086">
        <ele>213</ele>
        <time>2022-05-31T13:06:52.000Z</time>
      </trkpt>
      <trkpt lat="46.53613" lon="5.21078">
        <ele>212.80000305176</ele>
        <time>2022-05-31T13:06:53.000Z</time>
      </trkpt>
      <trkpt lat="46.53592" lon="5.21034">
        <ele>212.60000610352</ele>
        <time>2022-05-31T13:06:58.000Z</time>
      </trkpt>
      <trkpt lat="46.53589" lon="5.21021">
        <ele>212.60000610352</ele>
        <time>2022-05-31T13:06:59.000Z</time>
      </trkpt>
      <trkpt lat="46.53588" lon="5.21011">
        <ele>212.60000610352</ele>
        <time>2022-05-31T13:07:00.000Z</time>
      </trkpt>
      <trkpt lat="46.53588" lon="5.20989">
        <ele>212.60000610352</ele>
        <time>2022-05-31T13:07:02.000Z</time>
      </trkpt>
      <trkpt lat="46.53589" lon="5.20914">
        <ele>212.60000610352</ele>
        <time>2022-05-31T13:07:09.000Z</time>
      </trkpt>
      <trkpt lat="46.53573" lon="5.2084">
        <ele>212.19999694824</ele>
        <time>2022-05-31T13:07:16.000Z</time>
      </trkpt>
      <trkpt lat="46.53563" lon="5.20821">
        <ele>212.19999694824</ele>
        <time>2022-05-31T13:07:18.000Z</time>
      </trkpt>
      <trkpt lat="46.53558" lon="5.20816">
        <ele>212</ele>
        <time>2022-05-31T13:07:19.000Z</time>
      </trkpt>
      <trkpt lat="46.53551" lon="5.20809">
        <ele>212.19999694824</ele>
        <time>2022-05-31T13:07:20.000Z</time>
      </trkpt>
      <trkpt lat="46.53537" lon="5.20798">
        <ele>211.60000610352</ele>
        <time>2022-05-31T13:07:23.000Z</time>
      </trkpt>
      <trkpt lat="46.53528" lon="5.20792">
        <ele>211.39999389648</ele>
        <time>2022-05-31T13:07:25.000Z</time>
      </trkpt>
      <trkpt lat="46.53509" lon="5.20778">
        <ele>211.19999694824</ele>
        <time>2022-05-31T13:07:28.000Z</time>
      </trkpt>
      <trkpt lat="46.5347" lon="5.20737">
        <ele>210.80000305176</ele>
        <time>2022-05-31T13:07:34.000Z</time>
      </trkpt>
      <trkpt lat="46.53464" lon="5.2073">
        <ele>210.60000610352</ele>
        <time>2022-05-31T13:07:35.000Z</time>
      </trkpt>
      <trkpt lat="46.53427" lon="5.20688">
        <ele>210</ele>
        <time>2022-05-31T13:07:41.000Z</time>
      </trkpt>
      <trkpt lat="46.53409" lon="5.20668">
        <ele>209.39999389648</ele>
        <time>2022-05-31T13:07:44.000Z</time>
      </trkpt>
      <trkpt lat="46.53406" lon="5.20661">
        <ele>209.39999389648</ele>
        <time>2022-05-31T13:07:45.000Z</time>
      </trkpt>
      <trkpt lat="46.53402" lon="5.20649">
        <ele>209.19999694824</ele>
        <time>2022-05-31T13:07:46.000Z</time>
      </trkpt>
      <trkpt lat="46.53402" lon="5.20639">
        <ele>209</ele>
        <time>2022-05-31T13:07:47.000Z</time>
      </trkpt>
      <trkpt lat="46.53405" lon="5.20629">
        <ele>208.80000305176</ele>
        <time>2022-05-31T13:07:48.000Z</time>
      </trkpt>
      <trkpt lat="46.53409" lon="5.20622">
        <ele>208.60000610352</ele>
        <time>2022-05-31T13:07:49.000Z</time>
      </trkpt>
      <trkpt lat="46.53422" lon="5.20603">
        <ele>208.19999694824</ele>
        <time>2022-05-31T13:07:51.000Z</time>
      </trkpt>
      <trkpt lat="46.53428" lon="5.20594">
        <ele>208</ele>
        <time>2022-05-31T13:07:52.000Z</time>
      </trkpt>
      <trkpt lat="46.53449" lon="5.20568">
        <ele>207.19999694824</ele>
        <time>2022-05-31T13:07:55.000Z</time>
      </trkpt>
      <trkpt lat="46.53471" lon="5.20539">
        <ele>206.60000610352</ele>
        <time>2022-05-31T13:07:58.000Z</time>
      </trkpt>
      <trkpt lat="46.53511" lon="5.20488">
        <ele>206</ele>
        <time>2022-05-31T13:08:03.000Z</time>
      </trkpt>
      <trkpt lat="46.53535" lon="5.20457">
        <ele>205.60000610352</ele>
        <time>2022-05-31T13:08:06.000Z</time>
      </trkpt>
      <trkpt lat="46.5355" lon="5.20436">
        <ele>205</ele>
        <time>2022-05-31T13:08:08.000Z</time>
      </trkpt>
      <trkpt lat="46.53585" lon="5.2039">
        <ele>204.39999389648</ele>
        <time>2022-05-31T13:08:13.000Z</time>
      </trkpt>
      <trkpt lat="46.53624" lon="5.20338">
        <ele>204.39999389648</ele>
        <time>2022-05-31T13:08:19.000Z</time>
      </trkpt>
      <trkpt lat="46.5366" lon="5.20282">
        <ele>205.80000305176</ele>
        <time>2022-05-31T13:08:26.000Z</time>
      </trkpt>
      <trkpt lat="46.53665" lon="5.20273">
        <ele>206.19999694824</ele>
        <time>2022-05-31T13:08:27.000Z</time>
      </trkpt>
      <trkpt lat="46.53689" lon="5.20229">
        <ele>207.39999389648</ele>
        <time>2022-05-31T13:08:32.000Z</time>
      </trkpt>
      <trkpt lat="46.53699" lon="5.20211">
        <ele>208</ele>
        <time>2022-05-31T13:08:34.000Z</time>
      </trkpt>
      <trkpt lat="46.53715" lon="5.20184">
        <ele>208.39999389648</ele>
        <time>2022-05-31T13:08:37.000Z</time>
      </trkpt>
      <trkpt lat="46.53731" lon="5.20157">
        <ele>208.80000305176</ele>
        <time>2022-05-31T13:08:40.000Z</time>
      </trkpt>
      <trkpt lat="46.53752" lon="5.20122">
        <ele>209.60000610352</ele>
        <time>2022-05-31T13:08:44.000Z</time>
      </trkpt>
      <trkpt lat="46.53778" lon="5.20079">
        <ele>210.19999694824</ele>
        <time>2022-05-31T13:08:49.000Z</time>
      </trkpt>
      <trkpt lat="46.53815" lon="5.2002">
        <ele>210.39999389648</ele>
        <time>2022-05-31T13:08:56.000Z</time>
      </trkpt>
      <trkpt lat="46.53834" lon="5.19994">
        <ele>210.19999694824</ele>
        <time>2022-05-31T13:08:59.000Z</time>
      </trkpt>
      <trkpt lat="46.53877" lon="5.19933">
        <ele>208.60000610352</ele>
        <time>2022-05-31T13:09:05.000Z</time>
      </trkpt>
      <trkpt lat="46.53892" lon="5.19912">
        <ele>207.60000610352</ele>
        <time>2022-05-31T13:09:07.000Z</time>
      </trkpt>
      <trkpt lat="46.53915" lon="5.19877">
        <ele>206.60000610352</ele>
        <time>2022-05-31T13:09:10.000Z</time>
      </trkpt>
      <trkpt lat="46.53923" lon="5.19865">
        <ele>206.19999694824</ele>
        <time>2022-05-31T13:09:11.000Z</time>
      </trkpt>
      <trkpt lat="46.53937" lon="5.1984">
        <ele>205.39999389648</ele>
        <time>2022-05-31T13:09:13.000Z</time>
      </trkpt>
      <trkpt lat="46.53949" lon="5.19812">
        <ele>204.80000305176</ele>
        <time>2022-05-31T13:09:15.000Z</time>
      </trkpt>
      <trkpt lat="46.53954" lon="5.19798">
        <ele>204.19999694824</ele>
        <time>2022-05-31T13:09:16.000Z</time>
      </trkpt>
      <trkpt lat="46.53965" lon="5.1977">
        <ele>203.19999694824</ele>
        <time>2022-05-31T13:09:18.000Z</time>
      </trkpt>
      <trkpt lat="46.53985" lon="5.19716">
        <ele>202.19999694824</ele>
        <time>2022-05-31T13:09:22.000Z</time>
      </trkpt>
      <trkpt lat="46.53995" lon="5.19691">
        <ele>201.80000305176</ele>
        <time>2022-05-31T13:09:24.000Z</time>
      </trkpt>
      <trkpt lat="46.54021" lon="5.19623">
        <ele>201.80000305176</ele>
        <time>2022-05-31T13:09:30.000Z</time>
      </trkpt>
      <trkpt lat="46.54034" lon="5.19593">
        <ele>201.80000305176</ele>
        <time>2022-05-31T13:09:33.000Z</time>
      </trkpt>
      <trkpt lat="46.54046" lon="5.19576">
        <ele>202</ele>
        <time>2022-05-31T13:09:35.000Z</time>
      </trkpt>
      <trkpt lat="46.54053" lon="5.19568">
        <ele>202</ele>
        <time>2022-05-31T13:09:36.000Z</time>
      </trkpt>
      <trkpt lat="46.54075" lon="5.1955">
        <ele>202.39999389648</ele>
        <time>2022-05-31T13:09:39.000Z</time>
      </trkpt>
      <trkpt lat="46.54126" lon="5.19525">
        <ele>202.60000610352</ele>
        <time>2022-05-31T13:09:45.000Z</time>
      </trkpt>
      <trkpt lat="46.54167" lon="5.19516">
        <ele>202.39999389648</ele>
        <time>2022-05-31T13:09:50.000Z</time>
      </trkpt>
      <trkpt lat="46.54224" lon="5.19502">
        <ele>202.39999389648</ele>
        <time>2022-05-31T13:09:57.000Z</time>
      </trkpt>
      <trkpt lat="46.5425" lon="5.19496">
        <ele>202.60000610352</ele>
        <time>2022-05-31T13:10:00.000Z</time>
      </trkpt>
      <trkpt lat="46.54309" lon="5.19482">
        <ele>202.60000610352</ele>
        <time>2022-05-31T13:10:07.000Z</time>
      </trkpt>
      <trkpt lat="46.54347" lon="5.19474">
        <ele>202.19999694824</ele>
        <time>2022-05-31T13:10:11.000Z</time>
      </trkpt>
      <trkpt lat="46.54385" lon="5.19463">
        <ele>201.80000305176</ele>
        <time>2022-05-31T13:10:15.000Z</time>
      </trkpt>
      <trkpt lat="46.54403" lon="5.19453">
        <ele>201.60000610352</ele>
        <time>2022-05-31T13:10:17.000Z</time>
      </trkpt>
      <trkpt lat="46.5442" lon="5.19436">
        <ele>201.19999694824</ele>
        <time>2022-05-31T13:10:19.000Z</time>
      </trkpt>
      <trkpt lat="46.54427" lon="5.19426">
        <ele>201</ele>
        <time>2022-05-31T13:10:20.000Z</time>
      </trkpt>
      <trkpt lat="46.54432" lon="5.19414">
        <ele>200.39999389648</ele>
        <time>2022-05-31T13:10:21.000Z</time>
      </trkpt>
      <trkpt lat="46.54437" lon="5.19402">
        <ele>200.39999389648</ele>
        <time>2022-05-31T13:10:22.000Z</time>
      </trkpt>
      <trkpt lat="46.54446" lon="5.19361">
        <ele>200</ele>
        <time>2022-05-31T13:10:25.000Z</time>
      </trkpt>
      <trkpt lat="46.54448" lon="5.19348">
        <ele>200.19999694824</ele>
        <time>2022-05-31T13:10:26.000Z</time>
      </trkpt>
      <trkpt lat="46.54449" lon="5.19335">
        <ele>200</ele>
        <time>2022-05-31T13:10:27.000Z</time>
      </trkpt>
      <trkpt lat="46.54448" lon="5.19296">
        <ele>200.19999694824</ele>
        <time>2022-05-31T13:10:30.000Z</time>
      </trkpt>
      <trkpt lat="46.5444" lon="5.19241">
        <ele>200.60000610352</ele>
        <time>2022-05-31T13:10:35.000Z</time>
      </trkpt>
      <trkpt lat="46.54434" lon="5.19192">
        <ele>200.80000305176</ele>
        <time>2022-05-31T13:10:40.000Z</time>
      </trkpt>
      <trkpt lat="46.54431" lon="5.19142">
        <ele>201.19999694824</ele>
        <time>2022-05-31T13:10:45.000Z</time>
      </trkpt>
      <trkpt lat="46.5443" lon="5.19122">
        <ele>201.39999389648</ele>
        <time>2022-05-31T13:10:47.000Z</time>
      </trkpt>
      <trkpt lat="46.54429" lon="5.19059">
        <ele>202.19999694824</ele>
        <time>2022-05-31T13:10:53.000Z</time>
      </trkpt>
      <trkpt lat="46.54429" lon="5.19049">
        <ele>202.39999389648</ele>
        <time>2022-05-31T13:10:54.000Z</time>
      </trkpt>
      <trkpt lat="46.5443" lon="5.18976">
        <ele>202.60000610352</ele>
        <time>2022-05-31T13:11:01.000Z</time>
      </trkpt>
      <trkpt lat="46.54436" lon="5.18906">
        <ele>203.39999389648</ele>
        <time>2022-05-31T13:11:08.000Z</time>
      </trkpt>
      <trkpt lat="46.54453" lon="5.18822">
        <ele>204.39999389648</ele>
        <time>2022-05-31T13:11:16.000Z</time>
      </trkpt>
      <trkpt lat="46.54471" lon="5.18748">
        <ele>205</ele>
        <time>2022-05-31T13:11:23.000Z</time>
      </trkpt>
      <trkpt lat="46.5449" lon="5.18689">
        <ele>205</ele>
        <time>2022-05-31T13:11:29.000Z</time>
      </trkpt>
      <trkpt lat="46.54501" lon="5.18672">
        <ele>205</ele>
        <time>2022-05-31T13:11:31.000Z</time>
      </trkpt>
      <trkpt lat="46.54514" lon="5.18658">
        <ele>204.80000305176</ele>
        <time>2022-05-31T13:11:33.000Z</time>
      </trkpt>
      <trkpt lat="46.54555" lon="5.18622">
        <ele>204</ele>
        <time>2022-05-31T13:11:38.000Z</time>
      </trkpt>
      <trkpt lat="46.54572" lon="5.18607">
        <ele>203</ele>
        <time>2022-05-31T13:11:40.000Z</time>
      </trkpt>
      <trkpt lat="46.54598" lon="5.18583">
        <ele>201.80000305176</ele>
        <time>2022-05-31T13:11:43.000Z</time>
      </trkpt>
      <trkpt lat="46.54606" lon="5.18576">
        <ele>201.60000610352</ele>
        <time>2022-05-31T13:11:44.000Z</time>
      </trkpt>
      <trkpt lat="46.5464" lon="5.18544">
        <ele>201.19999694824</ele>
        <time>2022-05-31T13:11:49.000Z</time>
      </trkpt>
      <trkpt lat="46.54678" lon="5.18518">
        <ele>202</ele>
        <time>2022-05-31T13:11:54.000Z</time>
      </trkpt>
      <trkpt lat="46.54713" lon="5.18502">
        <ele>203.19999694824</ele>
        <time>2022-05-31T13:11:59.000Z</time>
      </trkpt>
      <trkpt lat="46.54726" lon="5.18497">
        <ele>203.80000305176</ele>
        <time>2022-05-31T13:12:01.000Z</time>
      </trkpt>
      <trkpt lat="46.54739" lon="5.18491">
        <ele>204.19999694824</ele>
        <time>2022-05-31T13:12:03.000Z</time>
      </trkpt>
      <trkpt lat="46.54758" lon="5.18479">
        <ele>205.39999389648</ele>
        <time>2022-05-31T13:12:06.000Z</time>
      </trkpt>
      <trkpt lat="46.54764" lon="5.18474">
        <ele>206</ele>
        <time>2022-05-31T13:12:07.000Z</time>
      </trkpt>
      <trkpt lat="46.54774" lon="5.18461">
        <ele>206.19999694824</ele>
        <time>2022-05-31T13:12:09.000Z</time>
      </trkpt>
      <trkpt lat="46.54778" lon="5.18453">
        <ele>206.39999389648</ele>
        <time>2022-05-31T13:12:10.000Z</time>
      </trkpt>
      <trkpt lat="46.54782" lon="5.18444">
        <ele>206.80000305176</ele>
        <time>2022-05-31T13:12:11.000Z</time>
      </trkpt>
      <trkpt lat="46.54792" lon="5.18417">
        <ele>207.80000305176</ele>
        <time>2022-05-31T13:12:14.000Z</time>
      </trkpt>
      <trkpt lat="46.54794" lon="5.18408">
        <ele>208</ele>
        <time>2022-05-31T13:12:15.000Z</time>
      </trkpt>
      <trkpt lat="46.54795" lon="5.18397">
        <ele>208.39999389648</ele>
        <time>2022-05-31T13:12:16.000Z</time>
      </trkpt>
      <trkpt lat="46.54796" lon="5.18387">
        <ele>208.60000610352</ele>
        <time>2022-05-31T13:12:17.000Z</time>
      </trkpt>
      <trkpt lat="46.54796" lon="5.18376">
        <ele>209</ele>
        <time>2022-05-31T13:12:18.000Z</time>
      </trkpt>
      <trkpt lat="46.54794" lon="5.18364">
        <ele>209</ele>
        <time>2022-05-31T13:12:19.000Z</time>
      </trkpt>
      <trkpt lat="46.54793" lon="5.18353">
        <ele>209.19999694824</ele>
        <time>2022-05-31T13:12:20.000Z</time>
      </trkpt>
      <trkpt lat="46.54779" lon="5.18285">
        <ele>210</ele>
        <time>2022-05-31T13:12:26.000Z</time>
      </trkpt>
      <trkpt lat="46.54774" lon="5.18262">
        <ele>210</ele>
        <time>2022-05-31T13:12:28.000Z</time>
      </trkpt>
      <trkpt lat="46.54758" lon="5.18181">
        <ele>210</ele>
        <time>2022-05-31T13:12:35.000Z</time>
      </trkpt>
      <trkpt lat="46.54741" lon="5.18103">
        <ele>210</ele>
        <time>2022-05-31T13:12:42.000Z</time>
      </trkpt>
      <trkpt lat="46.54736" lon="5.18081">
        <ele>210</ele>
        <time>2022-05-31T13:12:44.000Z</time>
      </trkpt>
      <trkpt lat="46.54718" lon="5.18002">
        <ele>209</ele>
        <time>2022-05-31T13:12:51.000Z</time>
      </trkpt>
      <trkpt lat="46.54713" lon="5.17981">
        <ele>208.80000305176</ele>
        <time>2022-05-31T13:12:53.000Z</time>
      </trkpt>
      <trkpt lat="46.54703" lon="5.17927">
        <ele>208.80000305176</ele>
        <time>2022-05-31T13:12:58.000Z</time>
      </trkpt>
      <trkpt lat="46.54702" lon="5.17916">
        <ele>208.80000305176</ele>
        <time>2022-05-31T13:12:59.000Z</time>
      </trkpt>
      <trkpt lat="46.54702" lon="5.17894">
        <ele>208.80000305176</ele>
        <time>2022-05-31T13:13:01.000Z</time>
      </trkpt>
      <trkpt lat="46.54706" lon="5.17873">
        <ele>209.39999389648</ele>
        <time>2022-05-31T13:13:03.000Z</time>
      </trkpt>
      <trkpt lat="46.54723" lon="5.17811">
        <ele>209.60000610352</ele>
        <time>2022-05-31T13:13:09.000Z</time>
      </trkpt>
      <trkpt lat="46.54744" lon="5.17737">
        <ele>209.60000610352</ele>
        <time>2022-05-31T13:13:16.000Z</time>
      </trkpt>
      <trkpt lat="46.54748" lon="5.17726">
        <ele>209.60000610352</ele>
        <time>2022-05-31T13:13:17.000Z</time>
      </trkpt>
      <trkpt lat="46.54767" lon="5.1766">
        <ele>209.80000305176</ele>
        <time>2022-05-31T13:13:23.000Z</time>
      </trkpt>
      <trkpt lat="46.54777" lon="5.17625">
        <ele>209.60000610352</ele>
        <time>2022-05-31T13:13:26.000Z</time>
      </trkpt>
      <trkpt lat="46.548" lon="5.17544">
        <ele>208</ele>
        <time>2022-05-31T13:13:32.000Z</time>
      </trkpt>
      <trkpt lat="46.54808" lon="5.17514">
        <ele>206.80000305176</ele>
        <time>2022-05-31T13:13:34.000Z</time>
      </trkpt>
      <trkpt lat="46.54823" lon="5.17467">
        <ele>205.19999694824</ele>
        <time>2022-05-31T13:13:37.000Z</time>
      </trkpt>
      <trkpt lat="46.5484" lon="5.17441">
        <ele>203.60000610352</ele>
        <time>2022-05-31T13:13:39.000Z</time>
      </trkpt>
      <trkpt lat="46.54852" lon="5.1743">
        <ele>203.39999389648</ele>
        <time>2022-05-31T13:13:40.000Z</time>
      </trkpt>
      <trkpt lat="46.54862" lon="5.17423">
        <ele>202.19999694824</ele>
        <time>2022-05-31T13:13:41.000Z</time>
      </trkpt>
      <trkpt lat="46.54883" lon="5.17417">
        <ele>200.39999389648</ele>
        <time>2022-05-31T13:13:43.000Z</time>
      </trkpt>
      <trkpt lat="46.54894" lon="5.17414">
        <ele>199.39999389648</ele>
        <time>2022-05-31T13:13:44.000Z</time>
      </trkpt>
      <trkpt lat="46.54917" lon="5.17408">
        <ele>198.39999389648</ele>
        <time>2022-05-31T13:13:46.000Z</time>
      </trkpt>
      <trkpt lat="46.54939" lon="5.17402">
        <ele>198</ele>
        <time>2022-05-31T13:13:48.000Z</time>
      </trkpt>
      <trkpt lat="46.5496" lon="5.17392">
        <ele>197.80000305176</ele>
        <time>2022-05-31T13:13:50.000Z</time>
      </trkpt>
      <trkpt lat="46.54967" lon="5.17385">
        <ele>197.80000305176</ele>
        <time>2022-05-31T13:13:51.000Z</time>
      </trkpt>
      <trkpt lat="46.54975" lon="5.17375">
        <ele>197.80000305176</ele>
        <time>2022-05-31T13:13:52.000Z</time>
      </trkpt>
      <trkpt lat="46.54982" lon="5.1735">
        <ele>197.60000610352</ele>
        <time>2022-05-31T13:13:54.000Z</time>
      </trkpt>
      <trkpt lat="46.54982" lon="5.17305">
        <ele>197.60000610352</ele>
        <time>2022-05-31T13:13:57.000Z</time>
      </trkpt>
      <trkpt lat="46.54977" lon="5.17244">
        <ele>197.19999694824</ele>
        <time>2022-05-31T13:14:01.000Z</time>
      </trkpt>
      <trkpt lat="46.54977" lon="5.172">
        <ele>196.39999389648</ele>
        <time>2022-05-31T13:14:04.000Z</time>
      </trkpt>
      <trkpt lat="46.54979" lon="5.17186">
        <ele>196.19999694824</ele>
        <time>2022-05-31T13:14:05.000Z</time>
      </trkpt>
      <trkpt lat="46.54987" lon="5.17133">
        <ele>195.60000610352</ele>
        <time>2022-05-31T13:14:09.000Z</time>
      </trkpt>
      <trkpt lat="46.54996" lon="5.17077">
        <ele>195.60000610352</ele>
        <time>2022-05-31T13:14:14.000Z</time>
      </trkpt>
      <trkpt lat="46.54998" lon="5.17068">
        <ele>195.80000305176</ele>
        <time>2022-05-31T13:14:15.000Z</time>
      </trkpt>
      <trkpt lat="46.55008" lon="5.17051">
        <ele>195.80000305176</ele>
        <time>2022-05-31T13:14:17.000Z</time>
      </trkpt>
      <trkpt lat="46.55034" lon="5.17026">
        <ele>196.80000305176</ele>
        <time>2022-05-31T13:14:22.000Z</time>
      </trkpt>
      <trkpt lat="46.55037" lon="5.17021">
        <ele>197.19999694824</ele>
        <time>2022-05-31T13:14:23.000Z</time>
      </trkpt>
      <trkpt lat="46.5504" lon="5.17014">
        <ele>197.60000610352</ele>
        <time>2022-05-31T13:14:24.000Z</time>
      </trkpt>
      <trkpt lat="46.55043" lon="5.16997">
        <ele>198.39999389648</ele>
        <time>2022-05-31T13:14:26.000Z</time>
      </trkpt>
      <trkpt lat="46.55049" lon="5.1697">
        <ele>199.39999389648</ele>
        <time>2022-05-31T13:14:29.000Z</time>
      </trkpt>
      <trkpt lat="46.55057" lon="5.16932">
        <ele>200.19999694824</ele>
        <time>2022-05-31T13:14:33.000Z</time>
      </trkpt>
      <trkpt lat="46.55064" lon="5.16915">
        <ele>200.39999389648</ele>
        <time>2022-05-31T13:14:35.000Z</time>
      </trkpt>
      <trkpt lat="46.55069" lon="5.16909">
        <ele>200.60000610352</ele>
        <time>2022-05-31T13:14:36.000Z</time>
      </trkpt>
      <trkpt lat="46.55077" lon="5.16903">
        <ele>200.60000610352</ele>
        <time>2022-05-31T13:14:37.000Z</time>
      </trkpt>
      <trkpt lat="46.55113" lon="5.16889">
        <ele>200.80000305176</ele>
        <time>2022-05-31T13:14:42.000Z</time>
      </trkpt>
      <trkpt lat="46.55165" lon="5.16869">
        <ele>200.60000610352</ele>
        <time>2022-05-31T13:14:49.000Z</time>
      </trkpt>
      <trkpt lat="46.5518" lon="5.16862">
        <ele>200.60000610352</ele>
        <time>2022-05-31T13:14:51.000Z</time>
      </trkpt>
      <trkpt lat="46.55192" lon="5.16853">
        <ele>200.60000610352</ele>
        <time>2022-05-31T13:14:53.000Z</time>
      </trkpt>
      <trkpt lat="46.55212" lon="5.16835">
        <ele>200.39999389648</ele>
        <time>2022-05-31T13:14:56.000Z</time>
      </trkpt>
      <trkpt lat="46.55249" lon="5.1681">
        <ele>200.60000610352</ele>
        <time>2022-05-31T13:15:01.000Z</time>
      </trkpt>
      <trkpt lat="46.55299" lon="5.16779">
        <ele>200.60000610352</ele>
        <time>2022-05-31T13:15:08.000Z</time>
      </trkpt>
      <trkpt lat="46.55307" lon="5.16773">
        <ele>200.60000610352</ele>
        <time>2022-05-31T13:15:09.000Z</time>
      </trkpt>
      <trkpt lat="46.55347" lon="5.16735">
        <ele>200.60000610352</ele>
        <time>2022-05-31T13:15:15.000Z</time>
      </trkpt>
      <trkpt lat="46.55353" lon="5.16728">
        <ele>200.60000610352</ele>
        <time>2022-05-31T13:15:16.000Z</time>
      </trkpt>
      <trkpt lat="46.55373" lon="5.16706">
        <ele>200.60000610352</ele>
        <time>2022-05-31T13:15:19.000Z</time>
      </trkpt>
      <trkpt lat="46.55379" lon="5.16699">
        <ele>200.60000610352</ele>
        <time>2022-05-31T13:15:20.000Z</time>
      </trkpt>
      <trkpt lat="46.55424" lon="5.16645">
        <ele>200.60000610352</ele>
        <time>2022-05-31T13:15:27.000Z</time>
      </trkpt>
      <trkpt lat="46.55434" lon="5.16626">
        <ele>200.39999389648</ele>
        <time>2022-05-31T13:15:29.000Z</time>
      </trkpt>
      <trkpt lat="46.5544" lon="5.16607">
        <ele>200.39999389648</ele>
        <time>2022-05-31T13:15:31.000Z</time>
      </trkpt>
      <trkpt lat="46.55455" lon="5.16555">
        <ele>200.39999389648</ele>
        <time>2022-05-31T13:15:36.000Z</time>
      </trkpt>
      <trkpt lat="46.55459" lon="5.16547">
        <ele>200.60000610352</ele>
        <time>2022-05-31T13:15:37.000Z</time>
      </trkpt>
      <trkpt lat="46.55463" lon="5.1654">
        <ele>200.80000305176</ele>
        <time>2022-05-31T13:15:38.000Z</time>
      </trkpt>
      <trkpt lat="46.55479" lon="5.16525">
        <ele>201.19999694824</ele>
        <time>2022-05-31T13:15:41.000Z</time>
      </trkpt>
      <trkpt lat="46.55485" lon="5.16519">
        <ele>201.60000610352</ele>
        <time>2022-05-31T13:15:42.000Z</time>
      </trkpt>
      <trkpt lat="46.55489" lon="5.16513">
        <ele>202.19999694824</ele>
        <time>2022-05-31T13:15:43.000Z</time>
      </trkpt>
      <trkpt lat="46.55493" lon="5.16507">
        <ele>202.60000610352</ele>
        <time>2022-05-31T13:15:44.000Z</time>
      </trkpt>
      <trkpt lat="46.55495" lon="5.16502">
        <ele>202.80000305176</ele>
        <time>2022-05-31T13:15:45.000Z</time>
      </trkpt>
      <trkpt lat="46.55498" lon="5.16494">
        <ele>203.39999389648</ele>
        <time>2022-05-31T13:15:46.000Z</time>
      </trkpt>
      <trkpt lat="46.55502" lon="5.1648">
        <ele>204</ele>
        <time>2022-05-31T13:15:48.000Z</time>
      </trkpt>
      <trkpt lat="46.55503" lon="5.16475">
        <ele>204.19999694824</ele>
        <time>2022-05-31T13:15:49.000Z</time>
      </trkpt>
      <trkpt lat="46.55504" lon="5.16468">
        <ele>204.39999389648</ele>
        <time>2022-05-31T13:15:50.000Z</time>
      </trkpt>
      <trkpt lat="46.5551" lon="5.16449">
        <ele>205.39999389648</ele>
        <time>2022-05-31T13:15:53.000Z</time>
      </trkpt>
      <trkpt lat="46.55513" lon="5.16443">
        <ele>205.80000305176</ele>
        <time>2022-05-31T13:15:54.000Z</time>
      </trkpt>
      <trkpt lat="46.55516" lon="5.16437">
        <ele>206.19999694824</ele>
        <time>2022-05-31T13:15:55.000Z</time>
      </trkpt>
      <trkpt lat="46.5552" lon="5.16434">
        <ele>206.39999389648</ele>
        <time>2022-05-31T13:15:56.000Z</time>
      </trkpt>
      <trkpt lat="46.55525" lon="5.16431">
        <ele>206.80000305176</ele>
        <time>2022-05-31T13:15:57.000Z</time>
      </trkpt>
      <trkpt lat="46.55541" lon="5.16425">
        <ele>207.39999389648</ele>
        <time>2022-05-31T13:16:00.000Z</time>
      </trkpt>
      <trkpt lat="46.55551" lon="5.16421">
        <ele>207.80000305176</ele>
        <time>2022-05-31T13:16:02.000Z</time>
      </trkpt>
      <trkpt lat="46.55557" lon="5.16421">
        <ele>207.80000305176</ele>
        <time>2022-05-31T13:16:03.000Z</time>
      </trkpt>
      <trkpt lat="46.55562" lon="5.16422">
        <ele>208</ele>
        <time>2022-05-31T13:16:04.000Z</time>
      </trkpt>
      <trkpt lat="46.55596" lon="5.16426">
        <ele>208.80000305176</ele>
        <time>2022-05-31T13:16:10.000Z</time>
      </trkpt>
      <trkpt lat="46.55603" lon="5.16427">
        <ele>209.19999694824</ele>
        <time>2022-05-31T13:16:11.000Z</time>
      </trkpt>
      <trkpt lat="46.55633" lon="5.16431">
        <ele>210</ele>
        <time>2022-05-31T13:16:16.000Z</time>
      </trkpt>
      <trkpt lat="46.55646" lon="5.16432">
        <ele>210.19999694824</ele>
        <time>2022-05-31T13:16:18.000Z</time>
      </trkpt>
      <trkpt lat="46.55665" lon="5.16437">
        <ele>210.19999694824</ele>
        <time>2022-05-31T13:16:21.000Z</time>
      </trkpt>
      <trkpt lat="46.55679" lon="5.16445">
        <ele>210.19999694824</ele>
        <time>2022-05-31T13:16:23.000Z</time>
      </trkpt>
      <trkpt lat="46.55684" lon="5.1645">
        <ele>210.19999694824</ele>
        <time>2022-05-31T13:16:24.000Z</time>
      </trkpt>
      <trkpt lat="46.55689" lon="5.16456">
        <ele>210.19999694824</ele>
        <time>2022-05-31T13:16:25.000Z</time>
      </trkpt>
      <trkpt lat="46.55698" lon="5.16472">
        <ele>210.19999694824</ele>
        <time>2022-05-31T13:16:27.000Z</time>
      </trkpt>
      <trkpt lat="46.55697" lon="5.16494">
        <ele>210.19999694824</ele>
        <time>2022-05-31T13:16:29.000Z</time>
      </trkpt>
      <trkpt lat="46.55695" lon="5.16502">
        <ele>210.19999694824</ele>
        <time>2022-05-31T13:16:30.000Z</time>
      </trkpt>
      <trkpt lat="46.55673" lon="5.16581">
        <ele>209.60000610352</ele>
        <time>2022-05-31T13:16:37.000Z</time>
      </trkpt>
      <trkpt lat="46.55667" lon="5.16605">
        <ele>209.19999694824</ele>
        <time>2022-05-31T13:16:39.000Z</time>
      </trkpt>
      <trkpt lat="46.55664" lon="5.16618">
        <ele>209</ele>
        <time>2022-05-31T13:16:40.000Z</time>
      </trkpt>
      <trkpt lat="46.55651" lon="5.16668">
        <ele>208.39999389648</ele>
        <time>2022-05-31T13:16:44.000Z</time>
      </trkpt>
      <trkpt lat="46.55645" lon="5.16693">
        <ele>207.80000305176</ele>
        <time>2022-05-31T13:16:46.000Z</time>
      </trkpt>
      <trkpt lat="46.55631" lon="5.16751">
        <ele>207.39999389648</ele>
        <time>2022-05-31T13:16:51.000Z</time>
      </trkpt>
      <trkpt lat="46.55618" lon="5.16809">
        <ele>208</ele>
        <time>2022-05-31T13:16:57.000Z</time>
      </trkpt>
      <trkpt lat="46.55607" lon="5.16851">
        <ele>209</ele>
        <time>2022-05-31T13:17:02.000Z</time>
      </trkpt>
      <trkpt lat="46.55603" lon="5.16867">
        <ele>209</ele>
        <time>2022-05-31T13:17:04.000Z</time>
      </trkpt>
      <trkpt lat="46.55591" lon="5.16917">
        <ele>209.80000305176</ele>
        <time>2022-05-31T13:17:10.000Z</time>
      </trkpt>
      <trkpt lat="46.55587" lon="5.16934">
        <ele>210.19999694824</ele>
        <time>2022-05-31T13:17:12.000Z</time>
      </trkpt>
      <trkpt lat="46.55574" lon="5.16975">
        <ele>210.80000305176</ele>
        <time>2022-05-31T13:17:17.000Z</time>
      </trkpt>
      <trkpt lat="46.55569" lon="5.16992">
        <ele>211.19999694824</ele>
        <time>2022-05-31T13:17:19.000Z</time>
      </trkpt>
      <trkpt lat="46.55552" lon="5.17033">
        <ele>212</ele>
        <time>2022-05-31T13:17:24.000Z</time>
      </trkpt>
      <trkpt lat="46.55549" lon="5.17041">
        <ele>212.19999694824</ele>
        <time>2022-05-31T13:17:25.000Z</time>
      </trkpt>
      <trkpt lat="46.55526" lon="5.17099">
        <ele>213.39999389648</ele>
        <time>2022-05-31T13:17:32.000Z</time>
      </trkpt>
      <trkpt lat="46.55519" lon="5.17117">
        <ele>213.39999389648</ele>
        <time>2022-05-31T13:17:34.000Z</time>
      </trkpt>
      <trkpt lat="46.55493" lon="5.17171">
        <ele>213.60000610352</ele>
        <time>2022-05-31T13:17:41.000Z</time>
      </trkpt>
      <trkpt lat="46.5546" lon="5.1723">
        <ele>213.60000610352</ele>
        <time>2022-05-31T13:17:49.000Z</time>
      </trkpt>
      <trkpt lat="46.5545" lon="5.17254">
        <ele>213.80000305176</ele>
        <time>2022-05-31T13:17:52.000Z</time>
      </trkpt>
      <trkpt lat="46.55444" lon="5.17275">
        <ele>213.80000305176</ele>
        <time>2022-05-31T13:17:54.000Z</time>
      </trkpt>
      <trkpt lat="46.55428" lon="5.17341">
        <ele>213.60000610352</ele>
        <time>2022-05-31T13:18:00.000Z</time>
      </trkpt>
      <trkpt lat="46.5542" lon="5.17406">
        <ele>212.80000305176</ele>
        <time>2022-05-31T13:18:06.000Z</time>
      </trkpt>
      <trkpt lat="46.55415" lon="5.17473">
        <ele>212.19999694824</ele>
        <time>2022-05-31T13:18:12.000Z</time>
      </trkpt>
      <trkpt lat="46.5541" lon="5.17526">
        <ele>212.19999694824</ele>
        <time>2022-05-31T13:18:17.000Z</time>
      </trkpt>
      <trkpt lat="46.55403" lon="5.17609">
        <ele>213.39999389648</ele>
        <time>2022-05-31T13:18:25.000Z</time>
      </trkpt>
      <trkpt lat="46.55396" lon="5.17682">
        <ele>214.19999694824</ele>
        <time>2022-05-31T13:18:32.000Z</time>
      </trkpt>
      <trkpt lat="46.55391" lon="5.17757">
        <ele>214</ele>
        <time>2022-05-31T13:18:39.000Z</time>
      </trkpt>
      <trkpt lat="46.55391" lon="5.17837">
        <ele>213.60000610352</ele>
        <time>2022-05-31T13:18:46.000Z</time>
      </trkpt>
      <trkpt lat="46.55393" lon="5.17916">
        <ele>213.19999694824</ele>
        <time>2022-05-31T13:18:52.000Z</time>
      </trkpt>
      <trkpt lat="46.55397" lon="5.17978">
        <ele>212.60000610352</ele>
        <time>2022-05-31T13:18:57.000Z</time>
      </trkpt>
      <trkpt lat="46.55406" lon="5.18012">
        <ele>212</ele>
        <time>2022-05-31T13:19:00.000Z</time>
      </trkpt>
      <trkpt lat="46.5541" lon="5.18022">
        <ele>212</ele>
        <time>2022-05-31T13:19:01.000Z</time>
      </trkpt>
      <trkpt lat="46.55421" lon="5.1804">
        <ele>211.80000305176</ele>
        <time>2022-05-31T13:19:03.000Z</time>
      </trkpt>
      <trkpt lat="46.55432" lon="5.18057">
        <ele>211.80000305176</ele>
        <time>2022-05-31T13:19:05.000Z</time>
      </trkpt>
      <trkpt lat="46.55472" lon="5.18111">
        <ele>212.19999694824</ele>
        <time>2022-05-31T13:19:12.000Z</time>
      </trkpt>
      <trkpt lat="46.55506" lon="5.18158">
        <ele>212.39999389648</ele>
        <time>2022-05-31T13:19:18.000Z</time>
      </trkpt>
      <trkpt lat="46.55539" lon="5.1821">
        <ele>212.80000305176</ele>
        <time>2022-05-31T13:19:24.000Z</time>
      </trkpt>
      <trkpt lat="46.5556" lon="5.18266">
        <ele>213.19999694824</ele>
        <time>2022-05-31T13:19:29.000Z</time>
      </trkpt>
      <trkpt lat="46.55568" lon="5.18301">
        <ele>213.19999694824</ele>
        <time>2022-05-31T13:19:32.000Z</time>
      </trkpt>
      <trkpt lat="46.55576" lon="5.18348">
        <ele>213.39999389648</ele>
        <time>2022-05-31T13:19:36.000Z</time>
      </trkpt>
      <trkpt lat="46.5559" lon="5.18427">
        <ele>213.80000305176</ele>
        <time>2022-05-31T13:19:43.000Z</time>
      </trkpt>
      <trkpt lat="46.55603" lon="5.18504">
        <ele>213.60000610352</ele>
        <time>2022-05-31T13:19:50.000Z</time>
      </trkpt>
      <trkpt lat="46.55605" lon="5.18515">
        <ele>213.39999389648</ele>
        <time>2022-05-31T13:19:51.000Z</time>
      </trkpt>
      <trkpt lat="46.55619" lon="5.18593">
        <ele>213.60000610352</ele>
        <time>2022-05-31T13:19:58.000Z</time>
      </trkpt>
      <trkpt lat="46.55621" lon="5.18604">
        <ele>213.60000610352</ele>
        <time>2022-05-31T13:19:59.000Z</time>
      </trkpt>
      <trkpt lat="46.55623" lon="5.18615">
        <ele>213.80000305176</ele>
        <time>2022-05-31T13:20:00.000Z</time>
      </trkpt>
      <trkpt lat="46.55636" lon="5.18694">
        <ele>214</ele>
        <time>2022-05-31T13:20:07.000Z</time>
      </trkpt>
      <trkpt lat="46.5564" lon="5.18716">
        <ele>214</ele>
        <time>2022-05-31T13:20:09.000Z</time>
      </trkpt>
      <trkpt lat="46.55654" lon="5.18795">
        <ele>214.19999694824</ele>
        <time>2022-05-31T13:20:16.000Z</time>
      </trkpt>
      <trkpt lat="46.5566" lon="5.18829">
        <ele>213.80000305176</ele>
        <time>2022-05-31T13:20:19.000Z</time>
      </trkpt>
      <trkpt lat="46.55674" lon="5.18909">
        <ele>213.60000610352</ele>
        <time>2022-05-31T13:20:26.000Z</time>
      </trkpt>
      <trkpt lat="46.55678" lon="5.18932">
        <ele>213.80000305176</ele>
        <time>2022-05-31T13:20:28.000Z</time>
      </trkpt>
      <trkpt lat="46.55691" lon="5.1901">
        <ele>214</ele>
        <time>2022-05-31T13:20:35.000Z</time>
      </trkpt>
      <trkpt lat="46.55701" lon="5.19066">
        <ele>214.19999694824</ele>
        <time>2022-05-31T13:20:40.000Z</time>
      </trkpt>
      <trkpt lat="46.55713" lon="5.19146">
        <ele>214</ele>
        <time>2022-05-31T13:20:47.000Z</time>
      </trkpt>
      <trkpt lat="46.55715" lon="5.19169">
        <ele>214.19999694824</ele>
        <time>2022-05-31T13:20:49.000Z</time>
      </trkpt>
      <trkpt lat="46.55717" lon="5.19192">
        <ele>214</ele>
        <time>2022-05-31T13:20:51.000Z</time>
      </trkpt>
      <trkpt lat="46.55721" lon="5.19273">
        <ele>214.19999694824</ele>
        <time>2022-05-31T13:20:58.000Z</time>
      </trkpt>
      <trkpt lat="46.55723" lon="5.19296">
        <ele>214.39999389648</ele>
        <time>2022-05-31T13:21:00.000Z</time>
      </trkpt>
      <trkpt lat="46.55723" lon="5.19308">
        <ele>214.39999389648</ele>
        <time>2022-05-31T13:21:01.000Z</time>
      </trkpt>
      <trkpt lat="46.55728" lon="5.1939">
        <ele>214.80000305176</ele>
        <time>2022-05-31T13:21:08.000Z</time>
      </trkpt>
      <trkpt lat="46.5573" lon="5.19414">
        <ele>214.60000610352</ele>
        <time>2022-05-31T13:21:10.000Z</time>
      </trkpt>
      <trkpt lat="46.55734" lon="5.19498">
        <ele>214</ele>
        <time>2022-05-31T13:21:17.000Z</time>
      </trkpt>
      <trkpt lat="46.55737" lon="5.19545">
        <ele>213.80000305176</ele>
        <time>2022-05-31T13:21:21.000Z</time>
      </trkpt>
      <trkpt lat="46.55744" lon="5.19628">
        <ele>213.80000305176</ele>
        <time>2022-05-31T13:21:28.000Z</time>
      </trkpt>
      <trkpt lat="46.55747" lon="5.19639">
        <ele>213.80000305176</ele>
        <time>2022-05-31T13:21:29.000Z</time>
      </trkpt>
      <trkpt lat="46.55754" lon="5.19661">
        <ele>214</ele>
        <time>2022-05-31T13:21:31.000Z</time>
      </trkpt>
      <trkpt lat="46.55759" lon="5.19671">
        <ele>214</ele>
        <time>2022-05-31T13:21:32.000Z</time>
      </trkpt>
      <trkpt lat="46.5579" lon="5.19727">
        <ele>214</ele>
        <time>2022-05-31T13:21:38.000Z</time>
      </trkpt>
      <trkpt lat="46.55805" lon="5.19781">
        <ele>214</ele>
        <time>2022-05-31T13:21:43.000Z</time>
      </trkpt>
      <trkpt lat="46.55817" lon="5.19862">
        <ele>213.80000305176</ele>
        <time>2022-05-31T13:21:50.000Z</time>
      </trkpt>
      <trkpt lat="46.55825" lon="5.19921">
        <ele>214.19999694824</ele>
        <time>2022-05-31T13:21:55.000Z</time>
      </trkpt>
      <trkpt lat="46.55838" lon="5.20003">
        <ele>214.19999694824</ele>
        <time>2022-05-31T13:22:02.000Z</time>
      </trkpt>
      <trkpt lat="46.55843" lon="5.20038">
        <ele>214.19999694824</ele>
        <time>2022-05-31T13:22:05.000Z</time>
      </trkpt>
      <trkpt lat="46.55855" lon="5.20121">
        <ele>213.60000610352</ele>
        <time>2022-05-31T13:22:12.000Z</time>
      </trkpt>
      <trkpt lat="46.55857" lon="5.20133">
        <ele>213.39999389648</ele>
        <time>2022-05-31T13:22:13.000Z</time>
      </trkpt>
      <trkpt lat="46.55869" lon="5.20215">
        <ele>213.60000610352</ele>
        <time>2022-05-31T13:22:20.000Z</time>
      </trkpt>
      <trkpt lat="46.55871" lon="5.20226">
        <ele>213.60000610352</ele>
        <time>2022-05-31T13:22:21.000Z</time>
      </trkpt>
      <trkpt lat="46.55883" lon="5.20306">
        <ele>214.19999694824</ele>
        <time>2022-05-31T13:22:28.000Z</time>
      </trkpt>
      <trkpt lat="46.55888" lon="5.20338">
        <ele>214.39999389648</ele>
        <time>2022-05-31T13:22:31.000Z</time>
      </trkpt>
      <trkpt lat="46.55894" lon="5.20382">
        <ele>214.39999389648</ele>
        <time>2022-05-31T13:22:35.000Z</time>
      </trkpt>
      <trkpt lat="46.55898" lon="5.20405">
        <ele>214.39999389648</ele>
        <time>2022-05-31T13:22:37.000Z</time>
      </trkpt>
      <trkpt lat="46.5591" lon="5.20488">
        <ele>214</ele>
        <time>2022-05-31T13:22:44.000Z</time>
      </trkpt>
      <trkpt lat="46.55914" lon="5.20525">
        <ele>213.60000610352</ele>
        <time>2022-05-31T13:22:47.000Z</time>
      </trkpt>
      <trkpt lat="46.55913" lon="5.2055">
        <ele>213.39999389648</ele>
        <time>2022-05-31T13:22:49.000Z</time>
      </trkpt>
      <trkpt lat="46.5591" lon="5.20574">
        <ele>213.39999389648</ele>
        <time>2022-05-31T13:22:51.000Z</time>
      </trkpt>
      <trkpt lat="46.55904" lon="5.20595">
        <ele>213</ele>
        <time>2022-05-31T13:22:53.000Z</time>
      </trkpt>
      <trkpt lat="46.55877" lon="5.20654">
        <ele>212.80000305176</ele>
        <time>2022-05-31T13:22:59.000Z</time>
      </trkpt>
      <trkpt lat="46.55847" lon="5.20721">
        <ele>213</ele>
        <time>2022-05-31T13:23:06.000Z</time>
      </trkpt>
      <trkpt lat="46.55843" lon="5.20732">
        <ele>213</ele>
        <time>2022-05-31T13:23:07.000Z</time>
      </trkpt>
      <trkpt lat="46.55837" lon="5.20764">
        <ele>213</ele>
        <time>2022-05-31T13:23:10.000Z</time>
      </trkpt>
      <trkpt lat="46.55836" lon="5.20775">
        <ele>213</ele>
        <time>2022-05-31T13:23:11.000Z</time>
      </trkpt>
      <trkpt lat="46.55836" lon="5.20786">
        <ele>213</ele>
        <time>2022-05-31T13:23:12.000Z</time>
      </trkpt>
      <trkpt lat="46.55836" lon="5.20797">
        <ele>213.19999694824</ele>
        <time>2022-05-31T13:23:13.000Z</time>
      </trkpt>
      <trkpt lat="46.55838" lon="5.2083">
        <ele>213.19999694824</ele>
        <time>2022-05-31T13:23:16.000Z</time>
      </trkpt>
      <trkpt lat="46.55843" lon="5.20898">
        <ele>213.19999694824</ele>
        <time>2022-05-31T13:23:22.000Z</time>
      </trkpt>
      <trkpt lat="46.5585" lon="5.20978">
        <ele>213.19999694824</ele>
        <time>2022-05-31T13:23:29.000Z</time>
      </trkpt>
      <trkpt lat="46.55853" lon="5.21013">
        <ele>213.19999694824</ele>
        <time>2022-05-31T13:23:32.000Z</time>
      </trkpt>
      <trkpt lat="46.55859" lon="5.21098">
        <ele>213</ele>
        <time>2022-05-31T13:23:39.000Z</time>
      </trkpt>
      <trkpt lat="46.5586" lon="5.2111">
        <ele>213</ele>
        <time>2022-05-31T13:23:40.000Z</time>
      </trkpt>
      <trkpt lat="46.55861" lon="5.21194">
        <ele>212.60000610352</ele>
        <time>2022-05-31T13:23:47.000Z</time>
      </trkpt>
      <trkpt lat="46.55861" lon="5.21206">
        <ele>212.60000610352</ele>
        <time>2022-05-31T13:23:48.000Z</time>
      </trkpt>
      <trkpt lat="46.5586" lon="5.21288">
        <ele>212.19999694824</ele>
        <time>2022-05-31T13:23:55.000Z</time>
      </trkpt>
      <trkpt lat="46.5586" lon="5.213">
        <ele>212.19999694824</ele>
        <time>2022-05-31T13:23:56.000Z</time>
      </trkpt>
      <trkpt lat="46.5586" lon="5.21379">
        <ele>212.80000305176</ele>
        <time>2022-05-31T13:24:03.000Z</time>
      </trkpt>
      <trkpt lat="46.5586" lon="5.2139">
        <ele>212.80000305176</ele>
        <time>2022-05-31T13:24:04.000Z</time>
      </trkpt>
      <trkpt lat="46.55859" lon="5.21475">
        <ele>212.80000305176</ele>
        <time>2022-05-31T13:24:11.000Z</time>
      </trkpt>
      <trkpt lat="46.5586" lon="5.21502">
        <ele>212.19999694824</ele>
        <time>2022-05-31T13:24:13.000Z</time>
      </trkpt>
      <trkpt lat="46.55862" lon="5.21546">
        <ele>211.39999389648</ele>
        <time>2022-05-31T13:24:16.000Z</time>
      </trkpt>
      <trkpt lat="46.55864" lon="5.21576">
        <ele>210.60000610352</ele>
        <time>2022-05-31T13:24:18.000Z</time>
      </trkpt>
      <trkpt lat="46.55866" lon="5.21592">
        <ele>210.19999694824</ele>
        <time>2022-05-31T13:24:19.000Z</time>
      </trkpt>
      <trkpt lat="46.55871" lon="5.21638">
        <ele>208.60000610352</ele>
        <time>2022-05-31T13:24:22.000Z</time>
      </trkpt>
      <trkpt lat="46.55872" lon="5.21654">
        <ele>208.39999389648</ele>
        <time>2022-05-31T13:24:23.000Z</time>
      </trkpt>
      <trkpt lat="46.55875" lon="5.21685">
        <ele>207.39999389648</ele>
        <time>2022-05-31T13:24:25.000Z</time>
      </trkpt>
      <trkpt lat="46.55879" lon="5.21716">
        <ele>206.39999389648</ele>
        <time>2022-05-31T13:24:27.000Z</time>
      </trkpt>
      <trkpt lat="46.55885" lon="5.21762">
        <ele>205.19999694824</ele>
        <time>2022-05-31T13:24:30.000Z</time>
      </trkpt>
      <trkpt lat="46.55901" lon="5.21823">
        <ele>204</ele>
        <time>2022-05-31T13:24:34.000Z</time>
      </trkpt>
      <trkpt lat="46.55906" lon="5.21838">
        <ele>203.60000610352</ele>
        <time>2022-05-31T13:24:35.000Z</time>
      </trkpt>
      <trkpt lat="46.5591" lon="5.21852">
        <ele>203</ele>
        <time>2022-05-31T13:24:36.000Z</time>
      </trkpt>
      <trkpt lat="46.55919" lon="5.2188">
        <ele>202</ele>
        <time>2022-05-31T13:24:38.000Z</time>
      </trkpt>
      <trkpt lat="46.55936" lon="5.21933">
        <ele>201</ele>
        <time>2022-05-31T13:24:42.000Z</time>
      </trkpt>
      <trkpt lat="46.5594" lon="5.21946">
        <ele>201</ele>
        <time>2022-05-31T13:24:43.000Z</time>
      </trkpt>
      <trkpt lat="46.55964" lon="5.22025">
        <ele>200</ele>
        <time>2022-05-31T13:24:49.000Z</time>
      </trkpt>
      <trkpt lat="46.55968" lon="5.22037">
        <ele>200</ele>
        <time>2022-05-31T13:24:50.000Z</time>
      </trkpt>
      <trkpt lat="46.5599" lon="5.22111">
        <ele>199.60000610352</ele>
        <time>2022-05-31T13:24:56.000Z</time>
      </trkpt>
      <trkpt lat="46.55997" lon="5.22134">
        <ele>199.60000610352</ele>
        <time>2022-05-31T13:24:58.000Z</time>
      </trkpt>
      <trkpt lat="46.56022" lon="5.22214">
        <ele>199.39999389648</ele>
        <time>2022-05-31T13:25:05.000Z</time>
      </trkpt>
      <trkpt lat="46.56047" lon="5.22297">
        <ele>199.80000305176</ele>
        <time>2022-05-31T13:25:12.000Z</time>
      </trkpt>
      <trkpt lat="46.56071" lon="5.2238">
        <ele>200.19999694824</ele>
        <time>2022-05-31T13:25:19.000Z</time>
      </trkpt>
      <trkpt lat="46.56085" lon="5.22426">
        <ele>200</ele>
        <time>2022-05-31T13:25:23.000Z</time>
      </trkpt>
      <trkpt lat="46.56109" lon="5.22506">
        <ele>200</ele>
        <time>2022-05-31T13:25:30.000Z</time>
      </trkpt>
      <trkpt lat="46.56113" lon="5.22519">
        <ele>200</ele>
        <time>2022-05-31T13:25:31.000Z</time>
      </trkpt>
      <trkpt lat="46.56136" lon="5.22594">
        <ele>199.80000305176</ele>
        <time>2022-05-31T13:25:38.000Z</time>
      </trkpt>
      <trkpt lat="46.56147" lon="5.22627">
        <ele>199.80000305176</ele>
        <time>2022-05-31T13:25:41.000Z</time>
      </trkpt>
      <trkpt lat="46.56175" lon="5.22701">
        <ele>199.60000610352</ele>
        <time>2022-05-31T13:25:48.000Z</time>
      </trkpt>
      <trkpt lat="46.56186" lon="5.22731">
        <ele>199.60000610352</ele>
        <time>2022-05-31T13:25:51.000Z</time>
      </trkpt>
      <trkpt lat="46.56215" lon="5.22799">
        <ele>200.19999694824</ele>
        <time>2022-05-31T13:25:58.000Z</time>
      </trkpt>
      <trkpt lat="46.56219" lon="5.22808">
        <ele>200.80000305176</ele>
        <time>2022-05-31T13:25:59.000Z</time>
      </trkpt>
      <trkpt lat="46.56223" lon="5.22818">
        <ele>201.19999694824</ele>
        <time>2022-05-31T13:26:00.000Z</time>
      </trkpt>
      <trkpt lat="46.56237" lon="5.22857">
        <ele>202.39999389648</ele>
        <time>2022-05-31T13:26:04.000Z</time>
      </trkpt>
      <trkpt lat="46.56249" lon="5.22896">
        <ele>203.60000610352</ele>
        <time>2022-05-31T13:26:08.000Z</time>
      </trkpt>
      <trkpt lat="46.56255" lon="5.22911">
        <ele>204.39999389648</ele>
        <time>2022-05-31T13:26:10.000Z</time>
      </trkpt>
      <trkpt lat="46.56257" lon="5.22921">
        <ele>205</ele>
        <time>2022-05-31T13:26:11.000Z</time>
      </trkpt>
      <trkpt lat="46.56262" lon="5.22937">
        <ele>206</ele>
        <time>2022-05-31T13:26:13.000Z</time>
      </trkpt>
      <trkpt lat="46.56264" lon="5.22944">
        <ele>206.60000610352</ele>
        <time>2022-05-31T13:26:14.000Z</time>
      </trkpt>
      <trkpt lat="46.56268" lon="5.22952">
        <ele>207</ele>
        <time>2022-05-31T13:26:15.000Z</time>
      </trkpt>
      <trkpt lat="46.56272" lon="5.22963">
        <ele>207.39999389648</ele>
        <time>2022-05-31T13:26:16.000Z</time>
      </trkpt>
      <trkpt lat="46.56276" lon="5.2297">
        <ele>207.39999389648</ele>
        <time>2022-05-31T13:26:17.000Z</time>
      </trkpt>
      <trkpt lat="46.56282" lon="5.22984">
        <ele>208.19999694824</ele>
        <time>2022-05-31T13:26:19.000Z</time>
      </trkpt>
      <trkpt lat="46.56284" lon="5.22991">
        <ele>208.80000305176</ele>
        <time>2022-05-31T13:26:20.000Z</time>
      </trkpt>
      <trkpt lat="46.56292" lon="5.23014">
        <ele>210.39999389648</ele>
        <time>2022-05-31T13:26:23.000Z</time>
      </trkpt>
      <trkpt lat="46.56304" lon="5.23041">
        <ele>211.60000610352</ele>
        <time>2022-05-31T13:26:27.000Z</time>
      </trkpt>
      <trkpt lat="46.56308" lon="5.23054">
        <ele>212.19999694824</ele>
        <time>2022-05-31T13:26:29.000Z</time>
      </trkpt>
      <trkpt lat="46.56312" lon="5.23061">
        <ele>212.80000305176</ele>
        <time>2022-05-31T13:26:30.000Z</time>
      </trkpt>
      <trkpt lat="46.56314" lon="5.23067">
        <ele>213</ele>
        <time>2022-05-31T13:26:31.000Z</time>
      </trkpt>
      <trkpt lat="46.56322" lon="5.23086">
        <ele>213.80000305176</ele>
        <time>2022-05-31T13:26:34.000Z</time>
      </trkpt>
      <trkpt lat="46.56328" lon="5.231">
        <ele>214</ele>
        <time>2022-05-31T13:26:36.000Z</time>
      </trkpt>
      <trkpt lat="46.56339" lon="5.2313">
        <ele>214.80000305176</ele>
        <time>2022-05-31T13:26:40.000Z</time>
      </trkpt>
      <trkpt lat="46.56345" lon="5.23146">
        <ele>215.19999694824</ele>
        <time>2022-05-31T13:26:42.000Z</time>
      </trkpt>
      <trkpt lat="46.56348" lon="5.23154">
        <ele>215.39999389648</ele>
        <time>2022-05-31T13:26:43.000Z</time>
      </trkpt>
      <trkpt lat="46.56368" lon="5.23213">
        <ele>215.60000610352</ele>
        <time>2022-05-31T13:26:50.000Z</time>
      </trkpt>
      <trkpt lat="46.56392" lon="5.23283">
        <ele>215.60000610352</ele>
        <time>2022-05-31T13:26:58.000Z</time>
      </trkpt>
      <trkpt lat="46.56412" lon="5.23337">
        <ele>215.60000610352</ele>
        <time>2022-05-31T13:27:04.000Z</time>
      </trkpt>
      <trkpt lat="46.56438" lon="5.23399">
        <ele>215.60000610352</ele>
        <time>2022-05-31T13:27:11.000Z</time>
      </trkpt>
      <trkpt lat="46.56459" lon="5.2344">
        <ele>215.39999389648</ele>
        <time>2022-05-31T13:27:16.000Z</time>
      </trkpt>
      <trkpt lat="46.56467" lon="5.23455">
        <ele>215.39999389648</ele>
        <time>2022-05-31T13:27:18.000Z</time>
      </trkpt>
      <trkpt lat="46.56494" lon="5.23494">
        <ele>215.19999694824</ele>
        <time>2022-05-31T13:27:23.000Z</time>
      </trkpt>
      <trkpt lat="46.56499" lon="5.23502">
        <ele>215.19999694824</ele>
        <time>2022-05-31T13:27:24.000Z</time>
      </trkpt>
      <trkpt lat="46.56537" lon="5.23549">
        <ele>215.39999389648</ele>
        <time>2022-05-31T13:27:30.000Z</time>
      </trkpt>
      <trkpt lat="46.56549" lon="5.23563">
        <ele>215.39999389648</ele>
        <time>2022-05-31T13:27:32.000Z</time>
      </trkpt>
      <trkpt lat="46.56571" lon="5.23581">
        <ele>215</ele>
        <time>2022-05-31T13:27:35.000Z</time>
      </trkpt>
      <trkpt lat="46.56626" lon="5.23619">
        <ele>214.60000610352</ele>
        <time>2022-05-31T13:27:42.000Z</time>
      </trkpt>
      <trkpt lat="46.56671" lon="5.2366">
        <ele>213.80000305176</ele>
        <time>2022-05-31T13:27:48.000Z</time>
      </trkpt>
      <trkpt lat="46.56685" lon="5.23679">
        <ele>213.60000610352</ele>
        <time>2022-05-31T13:27:50.000Z</time>
      </trkpt>
      <trkpt lat="46.56706" lon="5.23709">
        <ele>213</ele>
        <time>2022-05-31T13:27:53.000Z</time>
      </trkpt>
      <trkpt lat="46.5672" lon="5.2373">
        <ele>212.39999389648</ele>
        <time>2022-05-31T13:27:55.000Z</time>
      </trkpt>
      <trkpt lat="46.56746" lon="5.23775">
        <ele>211.60000610352</ele>
        <time>2022-05-31T13:27:59.000Z</time>
      </trkpt>
      <trkpt lat="46.5678" lon="5.23839">
        <ele>211.60000610352</ele>
        <time>2022-05-31T13:28:05.000Z</time>
      </trkpt>
      <trkpt lat="46.56808" lon="5.23869">
        <ele>211.60000610352</ele>
        <time>2022-05-31T13:28:09.000Z</time>
      </trkpt>
      <trkpt lat="46.56855" lon="5.239">
        <ele>211.60000610352</ele>
        <time>2022-05-31T13:28:15.000Z</time>
      </trkpt>
      <trkpt lat="46.569" lon="5.23928">
        <ele>211.80000305176</ele>
        <time>2022-05-31T13:28:21.000Z</time>
      </trkpt>
      <trkpt lat="46.56955" lon="5.23954">
        <ele>213.39999389648</ele>
        <time>2022-05-31T13:28:28.000Z</time>
      </trkpt>
      <trkpt lat="46.56964" lon="5.23957">
        <ele>213.60000610352</ele>
        <time>2022-05-31T13:28:29.000Z</time>
      </trkpt>
      <trkpt lat="46.57023" lon="5.23974">
        <ele>214.19999694824</ele>
        <time>2022-05-31T13:28:36.000Z</time>
      </trkpt>
      <trkpt lat="46.57031" lon="5.23976">
        <ele>214.19999694824</ele>
        <time>2022-05-31T13:28:37.000Z</time>
      </trkpt>
      <trkpt lat="46.57064" lon="5.23986">
        <ele>214.19999694824</ele>
        <time>2022-05-31T13:28:41.000Z</time>
      </trkpt>
      <trkpt lat="46.57097" lon="5.23997">
        <ele>214.19999694824</ele>
        <time>2022-05-31T13:28:45.000Z</time>
      </trkpt>
      <trkpt lat="46.57112" lon="5.24006">
        <ele>213.80000305176</ele>
        <time>2022-05-31T13:28:47.000Z</time>
      </trkpt>
      <trkpt lat="46.57127" lon="5.2402">
        <ele>213.80000305176</ele>
        <time>2022-05-31T13:28:49.000Z</time>
      </trkpt>
      <trkpt lat="46.57158" lon="5.24068">
        <ele>213.39999389648</ele>
        <time>2022-05-31T13:28:54.000Z</time>
      </trkpt>
      <trkpt lat="46.57187" lon="5.24131">
        <ele>212.39999389648</ele>
        <time>2022-05-31T13:28:59.000Z</time>
      </trkpt>
      <trkpt lat="46.57199" lon="5.24157">
        <ele>212</ele>
        <time>2022-05-31T13:29:01.000Z</time>
      </trkpt>
      <trkpt lat="46.57207" lon="5.24168">
        <ele>211.39999389648</ele>
        <time>2022-05-31T13:29:02.000Z</time>
      </trkpt>
      <trkpt lat="46.57216" lon="5.24177">
        <ele>211</ele>
        <time>2022-05-31T13:29:03.000Z</time>
      </trkpt>
      <trkpt lat="46.57249" lon="5.24197">
        <ele>210.39999389648</ele>
        <time>2022-05-31T13:29:06.000Z</time>
      </trkpt>
      <trkpt lat="46.57259" lon="5.24206">
        <ele>209.60000610352</ele>
        <time>2022-05-31T13:29:07.000Z</time>
      </trkpt>
      <trkpt lat="46.57269" lon="5.24217">
        <ele>209.19999694824</ele>
        <time>2022-05-31T13:29:08.000Z</time>
      </trkpt>
      <trkpt lat="46.57279" lon="5.2423">
        <ele>208.39999389648</ele>
        <time>2022-05-31T13:29:09.000Z</time>
      </trkpt>
      <trkpt lat="46.57286" lon="5.24245">
        <ele>208.19999694824</ele>
        <time>2022-05-31T13:29:10.000Z</time>
      </trkpt>
      <trkpt lat="46.57292" lon="5.24262">
        <ele>207.19999694824</ele>
        <time>2022-05-31T13:29:11.000Z</time>
      </trkpt>
      <trkpt lat="46.57297" lon="5.24279">
        <ele>206</ele>
        <time>2022-05-31T13:29:12.000Z</time>
      </trkpt>
      <trkpt lat="46.573" lon="5.24297">
        <ele>205.39999389648</ele>
        <time>2022-05-31T13:29:13.000Z</time>
      </trkpt>
      <trkpt lat="46.57303" lon="5.24315">
        <ele>203.60000610352</ele>
        <time>2022-05-31T13:29:14.000Z</time>
      </trkpt>
      <trkpt lat="46.57308" lon="5.2435">
        <ele>202</ele>
        <time>2022-05-31T13:29:16.000Z</time>
      </trkpt>
      <trkpt lat="46.5731" lon="5.24385">
        <ele>200.60000610352</ele>
        <time>2022-05-31T13:29:18.000Z</time>
      </trkpt>
      <trkpt lat="46.5731" lon="5.24402">
        <ele>199.80000305176</ele>
        <time>2022-05-31T13:29:19.000Z</time>
      </trkpt>
      <trkpt lat="46.57309" lon="5.24418">
        <ele>199.60000610352</ele>
        <time>2022-05-31T13:29:20.000Z</time>
      </trkpt>
      <trkpt lat="46.57306" lon="5.24434">
        <ele>198.60000610352</ele>
        <time>2022-05-31T13:29:21.000Z</time>
      </trkpt>
      <trkpt lat="46.57298" lon="5.24464">
        <ele>197.19999694824</ele>
        <time>2022-05-31T13:29:23.000Z</time>
      </trkpt>
      <trkpt lat="46.57291" lon="5.24492">
        <ele>196</ele>
        <time>2022-05-31T13:29:25.000Z</time>
      </trkpt>
      <trkpt lat="46.57281" lon="5.24531">
        <ele>194.60000610352</ele>
        <time>2022-05-31T13:29:28.000Z</time>
      </trkpt>
      <trkpt lat="46.57279" lon="5.24545">
        <ele>194.39999389648</ele>
        <time>2022-05-31T13:29:29.000Z</time>
      </trkpt>
      <trkpt lat="46.57277" lon="5.24597">
        <ele>193.39999389648</ele>
        <time>2022-05-31T13:29:33.000Z</time>
      </trkpt>
      <trkpt lat="46.57278" lon="5.24638">
        <ele>192.80000305176</ele>
        <time>2022-05-31T13:29:37.000Z</time>
      </trkpt>
      <trkpt lat="46.57277" lon="5.24643">
        <ele>192.60000610352</ele>
        <time>2022-05-31T13:29:38.000Z</time>
      </trkpt>
      <trkpt lat="46.57277" lon="5.24645">
        <ele>192.19999694824</ele>
        <time>2022-05-31T13:29:39.000Z</time>
      </trkpt>
      <trkpt lat="46.57277" lon="5.24646">
        <ele>191.80000305176</ele>
        <time>2022-05-31T13:29:40.000Z</time>
      </trkpt>
      <trkpt lat="46.57278" lon="5.24662">
        <ele>191.19999694824</ele>
        <time>2022-05-31T13:29:45.000Z</time>
      </trkpt>
      <trkpt lat="46.57289" lon="5.24691">
        <ele>191</ele>
        <time>2022-05-31T13:29:49.000Z</time>
      </trkpt>
      <trkpt lat="46.57298" lon="5.24715">
        <ele>190.80000305176</ele>
        <time>2022-05-31T13:29:52.000Z</time>
      </trkpt>
      <trkpt lat="46.57306" lon="5.24729">
        <ele>191</ele>
        <time>2022-05-31T13:29:54.000Z</time>
      </trkpt>
      <trkpt lat="46.57336" lon="5.24758">
        <ele>191.19999694824</ele>
        <time>2022-05-31T13:29:59.000Z</time>
      </trkpt>
      <trkpt lat="46.57366" lon="5.24788">
        <ele>191.80000305176</ele>
        <time>2022-05-31T13:30:04.000Z</time>
      </trkpt>
      <trkpt lat="46.57376" lon="5.24804">
        <ele>192</ele>
        <time>2022-05-31T13:30:06.000Z</time>
      </trkpt>
      <trkpt lat="46.57402" lon="5.24858">
        <ele>192.19999694824</ele>
        <time>2022-05-31T13:30:12.000Z</time>
      </trkpt>
      <trkpt lat="46.57421" lon="5.249">
        <ele>192.60000610352</ele>
        <time>2022-05-31T13:30:17.000Z</time>
      </trkpt>
      <trkpt lat="46.5743" lon="5.24916">
        <ele>192.80000305176</ele>
        <time>2022-05-31T13:30:19.000Z</time>
      </trkpt>
      <trkpt lat="46.57453" lon="5.24965">
        <ele>193</ele>
        <time>2022-05-31T13:30:25.000Z</time>
      </trkpt>
      <trkpt lat="46.57483" lon="5.25036">
        <ele>193</ele>
        <time>2022-05-31T13:30:33.000Z</time>
      </trkpt>
      <trkpt lat="46.57495" lon="5.25062">
        <ele>193</ele>
        <time>2022-05-31T13:30:36.000Z</time>
      </trkpt>
      <trkpt lat="46.57523" lon="5.25108">
        <ele>193</ele>
        <time>2022-05-31T13:30:42.000Z</time>
      </trkpt>
      <trkpt lat="46.57552" lon="5.25134">
        <ele>193</ele>
        <time>2022-05-31T13:30:47.000Z</time>
      </trkpt>
      <trkpt lat="46.57564" lon="5.25141">
        <ele>193.39999389648</ele>
        <time>2022-05-31T13:30:49.000Z</time>
      </trkpt>
      <trkpt lat="46.57577" lon="5.25145">
        <ele>193.80000305176</ele>
        <time>2022-05-31T13:30:51.000Z</time>
      </trkpt>
      <trkpt lat="46.57583" lon="5.25146">
        <ele>194</ele>
        <time>2022-05-31T13:30:52.000Z</time>
      </trkpt>
      <trkpt lat="46.57617" lon="5.25144">
        <ele>194.39999389648</ele>
        <time>2022-05-31T13:30:57.000Z</time>
      </trkpt>
      <trkpt lat="46.57624" lon="5.25141">
        <ele>194.80000305176</ele>
        <time>2022-05-31T13:30:58.000Z</time>
      </trkpt>
      <trkpt lat="46.57649" lon="5.25128">
        <ele>195.60000610352</ele>
        <time>2022-05-31T13:31:02.000Z</time>
      </trkpt>
      <trkpt lat="46.57661" lon="5.2512">
        <ele>195.80000305176</ele>
        <time>2022-05-31T13:31:04.000Z</time>
      </trkpt>
      <trkpt lat="46.57684" lon="5.25107">
        <ele>196.60000610352</ele>
        <time>2022-05-31T13:31:08.000Z</time>
      </trkpt>
      <trkpt lat="46.57702" lon="5.25102">
        <ele>197.39999389648</ele>
        <time>2022-05-31T13:31:11.000Z</time>
      </trkpt>
      <trkpt lat="46.57713" lon="5.251">
        <ele>197.80000305176</ele>
        <time>2022-05-31T13:31:13.000Z</time>
      </trkpt>
      <trkpt lat="46.57747" lon="5.25099">
        <ele>198.80000305176</ele>
        <time>2022-05-31T13:31:19.000Z</time>
      </trkpt>
      <trkpt lat="46.5776" lon="5.25099">
        <ele>199</ele>
        <time>2022-05-31T13:31:21.000Z</time>
      </trkpt>
      <trkpt lat="46.57819" lon="5.25102">
        <ele>199.80000305176</ele>
        <time>2022-05-31T13:31:30.000Z</time>
      </trkpt>
      <trkpt lat="46.57872" lon="5.25103">
        <ele>199.39999389648</ele>
        <time>2022-05-31T13:31:37.000Z</time>
      </trkpt>
      <trkpt lat="46.57912" lon="5.25103">
        <ele>198.60000610352</ele>
        <time>2022-05-31T13:31:42.000Z</time>
      </trkpt>
      <trkpt lat="46.57937" lon="5.25102">
        <ele>197.60000610352</ele>
        <time>2022-05-31T13:31:45.000Z</time>
      </trkpt>
      <trkpt lat="46.57973" lon="5.25099">
        <ele>196.80000305176</ele>
        <time>2022-05-31T13:31:49.000Z</time>
      </trkpt>
      <trkpt lat="46.57992" lon="5.25098">
        <ele>196.60000610352</ele>
        <time>2022-05-31T13:31:51.000Z</time>
      </trkpt>
      <trkpt lat="46.58039" lon="5.25096">
        <ele>195.60000610352</ele>
        <time>2022-05-31T13:31:56.000Z</time>
      </trkpt>
      <trkpt lat="46.58084" lon="5.25098">
        <ele>194.80000305176</ele>
        <time>2022-05-31T13:32:01.000Z</time>
      </trkpt>
      <trkpt lat="46.58118" lon="5.251">
        <ele>194.60000610352</ele>
        <time>2022-05-31T13:32:05.000Z</time>
      </trkpt>
      <trkpt lat="46.58177" lon="5.25095">
        <ele>194.60000610352</ele>
        <time>2022-05-31T13:32:12.000Z</time>
      </trkpt>
      <trkpt lat="46.58218" lon="5.25081">
        <ele>195</ele>
        <time>2022-05-31T13:32:17.000Z</time>
      </trkpt>
      <trkpt lat="46.58232" lon="5.25075">
        <ele>195</ele>
        <time>2022-05-31T13:32:19.000Z</time>
      </trkpt>
      <trkpt lat="46.58285" lon="5.25052">
        <ele>195</ele>
        <time>2022-05-31T13:32:25.000Z</time>
      </trkpt>
      <trkpt lat="46.58311" lon="5.25041">
        <ele>194.60000610352</ele>
        <time>2022-05-31T13:32:28.000Z</time>
      </trkpt>
      <trkpt lat="46.5837" lon="5.25016">
        <ele>193.80000305176</ele>
        <time>2022-05-31T13:32:35.000Z</time>
      </trkpt>
      <trkpt lat="46.58378" lon="5.25013">
        <ele>193.60000610352</ele>
        <time>2022-05-31T13:32:36.000Z</time>
      </trkpt>
      <trkpt lat="46.58425" lon="5.24993">
        <ele>193.80000305176</ele>
        <time>2022-05-31T13:32:42.000Z</time>
      </trkpt>
      <trkpt lat="46.58466" lon="5.24976">
        <ele>194.60000610352</ele>
        <time>2022-05-31T13:32:48.000Z</time>
      </trkpt>
      <trkpt lat="46.58486" lon="5.24968">
        <ele>195.39999389648</ele>
        <time>2022-05-31T13:32:51.000Z</time>
      </trkpt>
      <trkpt lat="46.58505" lon="5.2496">
        <ele>195.80000305176</ele>
        <time>2022-05-31T13:32:54.000Z</time>
      </trkpt>
      <trkpt lat="46.58517" lon="5.24954">
        <ele>195.80000305176</ele>
        <time>2022-05-31T13:32:56.000Z</time>
      </trkpt>
      <trkpt lat="46.58535" lon="5.24947">
        <ele>196.80000305176</ele>
        <time>2022-05-31T13:32:59.000Z</time>
      </trkpt>
      <trkpt lat="46.58547" lon="5.24942">
        <ele>197.60000610352</ele>
        <time>2022-05-31T13:33:01.000Z</time>
      </trkpt>
      <trkpt lat="46.58559" lon="5.24937">
        <ele>197.80000305176</ele>
        <time>2022-05-31T13:33:03.000Z</time>
      </trkpt>
      <trkpt lat="46.58576" lon="5.24931">
        <ele>199.19999694824</ele>
        <time>2022-05-31T13:33:06.000Z</time>
      </trkpt>
      <trkpt lat="46.58597" lon="5.24922">
        <ele>200.39999389648</ele>
        <time>2022-05-31T13:33:10.000Z</time>
      </trkpt>
      <trkpt lat="46.58602" lon="5.2492">
        <ele>200.60000610352</ele>
        <time>2022-05-31T13:33:11.000Z</time>
      </trkpt>
      <trkpt lat="46.58622" lon="5.24912">
        <ele>201.60000610352</ele>
        <time>2022-05-31T13:33:15.000Z</time>
      </trkpt>
      <trkpt lat="46.58642" lon="5.24904">
        <ele>203</ele>
        <time>2022-05-31T13:33:19.000Z</time>
      </trkpt>
      <trkpt lat="46.58647" lon="5.24902">
        <ele>203.39999389648</ele>
        <time>2022-05-31T13:33:20.000Z</time>
      </trkpt>
      <trkpt lat="46.58657" lon="5.24898">
        <ele>204</ele>
        <time>2022-05-31T13:33:22.000Z</time>
      </trkpt>
      <trkpt lat="46.58689" lon="5.24884">
        <ele>205.19999694824</ele>
        <time>2022-05-31T13:33:29.000Z</time>
      </trkpt>
      <trkpt lat="46.58698" lon="5.2488">
        <ele>205.60000610352</ele>
        <time>2022-05-31T13:33:31.000Z</time>
      </trkpt>
      <trkpt lat="46.58712" lon="5.24875">
        <ele>206.60000610352</ele>
        <time>2022-05-31T13:33:34.000Z</time>
      </trkpt>
      <trkpt lat="46.58731" lon="5.24867">
        <ele>207.80000305176</ele>
        <time>2022-05-31T13:33:38.000Z</time>
      </trkpt>
      <trkpt lat="46.58749" lon="5.24859">
        <ele>208.60000610352</ele>
        <time>2022-05-31T13:33:42.000Z</time>
      </trkpt>
      <trkpt lat="46.58758" lon="5.24855">
        <ele>208.80000305176</ele>
        <time>2022-05-31T13:33:44.000Z</time>
      </trkpt>
      <trkpt lat="46.58777" lon="5.24848">
        <ele>209.80000305176</ele>
        <time>2022-05-31T13:33:48.000Z</time>
      </trkpt>
      <trkpt lat="46.58786" lon="5.24844">
        <ele>210.39999389648</ele>
        <time>2022-05-31T13:33:50.000Z</time>
      </trkpt>
      <trkpt lat="46.58796" lon="5.2484">
        <ele>211</ele>
        <time>2022-05-31T13:33:52.000Z</time>
      </trkpt>
      <trkpt lat="46.58811" lon="5.24833">
        <ele>212.19999694824</ele>
        <time>2022-05-31T13:33:55.000Z</time>
      </trkpt>
      <trkpt lat="46.58839" lon="5.24822">
        <ele>213</ele>
        <time>2022-05-31T13:34:00.000Z</time>
      </trkpt>
      <trkpt lat="46.58844" lon="5.2482">
        <ele>213.39999389648</ele>
        <time>2022-05-31T13:34:01.000Z</time>
      </trkpt>
      <trkpt lat="46.58856" lon="5.24815">
        <ele>213.60000610352</ele>
        <time>2022-05-31T13:34:03.000Z</time>
      </trkpt>
      <trkpt lat="46.5888" lon="5.24805">
        <ele>214.19999694824</ele>
        <time>2022-05-31T13:34:07.000Z</time>
      </trkpt>
      <trkpt lat="46.58936" lon="5.24781">
        <ele>214.19999694824</ele>
        <time>2022-05-31T13:34:16.000Z</time>
      </trkpt>
      <trkpt lat="46.58949" lon="5.24776">
        <ele>214.39999389648</ele>
        <time>2022-05-31T13:34:18.000Z</time>
      </trkpt>
      <trkpt lat="46.58979" lon="5.24761">
        <ele>215</ele>
        <time>2022-05-31T13:34:23.000Z</time>
      </trkpt>
      <trkpt lat="46.58985" lon="5.24757">
        <ele>215</ele>
        <time>2022-05-31T13:34:24.000Z</time>
      </trkpt>
      <trkpt lat="46.5899" lon="5.24755">
        <ele>215</ele>
        <time>2022-05-31T13:34:25.000Z</time>
      </trkpt>
      <trkpt lat="46.58995" lon="5.24759">
        <ele>215</ele>
        <time>2022-05-31T13:34:26.000Z</time>
      </trkpt>
      <trkpt lat="46.58997" lon="5.24773">
        <ele>214.80000305176</ele>
        <time>2022-05-31T13:34:28.000Z</time>
      </trkpt>
      <trkpt lat="46.58996" lon="5.24782">
        <ele>214.80000305176</ele>
        <time>2022-05-31T13:34:29.000Z</time>
      </trkpt>
      <trkpt lat="46.58989" lon="5.24808">
        <ele>214.60000610352</ele>
        <time>2022-05-31T13:34:32.000Z</time>
      </trkpt>
      <trkpt lat="46.58985" lon="5.24818">
        <ele>214.80000305176</ele>
        <time>2022-05-31T13:34:33.000Z</time>
      </trkpt>
      <trkpt lat="46.58961" lon="5.2488">
        <ele>215</ele>
        <time>2022-05-31T13:34:39.000Z</time>
      </trkpt>
      <trkpt lat="46.58935" lon="5.24949">
        <ele>215.19999694824</ele>
        <time>2022-05-31T13:34:46.000Z</time>
      </trkpt>
      <trkpt lat="46.58931" lon="5.24959">
        <ele>215.19999694824</ele>
        <time>2022-05-31T13:34:47.000Z</time>
      </trkpt>
      <trkpt lat="46.58902" lon="5.25035">
        <ele>215</ele>
        <time>2022-05-31T13:34:55.000Z</time>
      </trkpt>
      <trkpt lat="46.58871" lon="5.25112">
        <ele>215.19999694824</ele>
        <time>2022-05-31T13:35:03.000Z</time>
      </trkpt>
      <trkpt lat="46.58863" lon="5.25132">
        <ele>215</ele>
        <time>2022-05-31T13:35:05.000Z</time>
      </trkpt>
      <trkpt lat="46.58835" lon="5.252">
        <ele>214.60000610352</ele>
        <time>2022-05-31T13:35:12.000Z</time>
      </trkpt>
      <trkpt lat="46.5883" lon="5.2521">
        <ele>214.39999389648</ele>
        <time>2022-05-31T13:35:13.000Z</time>
      </trkpt>
      <trkpt lat="46.58825" lon="5.2522">
        <ele>214.39999389648</ele>
        <time>2022-05-31T13:35:14.000Z</time>
      </trkpt>
      <trkpt lat="46.58817" lon="5.25238">
        <ele>214.39999389648</ele>
        <time>2022-05-31T13:35:16.000Z</time>
      </trkpt>
      <trkpt lat="46.58812" lon="5.25247">
        <ele>214.60000610352</ele>
        <time>2022-05-31T13:35:17.000Z</time>
      </trkpt>
      <trkpt lat="46.58778" lon="5.25309">
        <ele>215.60000610352</ele>
        <time>2022-05-31T13:35:24.000Z</time>
      </trkpt>
      <trkpt lat="46.58773" lon="5.25318">
        <ele>215.60000610352</ele>
        <time>2022-05-31T13:35:25.000Z</time>
      </trkpt>
      <trkpt lat="46.58762" lon="5.25347">
        <ele>215.60000610352</ele>
        <time>2022-05-31T13:35:28.000Z</time>
      </trkpt>
      <trkpt lat="46.58759" lon="5.25357">
        <ele>215.60000610352</ele>
        <time>2022-05-31T13:35:29.000Z</time>
      </trkpt>
      <trkpt lat="46.58744" lon="5.25432">
        <ele>215.60000610352</ele>
        <time>2022-05-31T13:35:36.000Z</time>
      </trkpt>
      <trkpt lat="46.58742" lon="5.25443">
        <ele>215.60000610352</ele>
        <time>2022-05-31T13:35:37.000Z</time>
      </trkpt>
      <trkpt lat="46.58726" lon="5.2552">
        <ele>215.60000610352</ele>
        <time>2022-05-31T13:35:44.000Z</time>
      </trkpt>
      <trkpt lat="46.58722" lon="5.25542">
        <ele>215.80000305176</ele>
        <time>2022-05-31T13:35:46.000Z</time>
      </trkpt>
      <trkpt lat="46.58721" lon="5.25554">
        <ele>215.60000610352</ele>
        <time>2022-05-31T13:35:47.000Z</time>
      </trkpt>
      <trkpt lat="46.5872" lon="5.25577">
        <ele>215.60000610352</ele>
        <time>2022-05-31T13:35:49.000Z</time>
      </trkpt>
      <trkpt lat="46.58721" lon="5.25588">
        <ele>215.60000610352</ele>
        <time>2022-05-31T13:35:50.000Z</time>
      </trkpt>
      <trkpt lat="46.58722" lon="5.256">
        <ele>215.60000610352</ele>
        <time>2022-05-31T13:35:51.000Z</time>
      </trkpt>
      <trkpt lat="46.58729" lon="5.25632">
        <ele>215.39999389648</ele>
        <time>2022-05-31T13:35:54.000Z</time>
      </trkpt>
      <trkpt lat="46.58752" lon="5.25714">
        <ele>215.60000610352</ele>
        <time>2022-05-31T13:36:02.000Z</time>
      </trkpt>
      <trkpt lat="46.58754" lon="5.25724">
        <ele>215.60000610352</ele>
        <time>2022-05-31T13:36:03.000Z</time>
      </trkpt>
      <trkpt lat="46.58759" lon="5.25757">
        <ele>215.80000305176</ele>
        <time>2022-05-31T13:36:06.000Z</time>
      </trkpt>
      <trkpt lat="46.58761" lon="5.25791">
        <ele>215.80000305176</ele>
        <time>2022-05-31T13:36:09.000Z</time>
      </trkpt>
      <trkpt lat="46.58765" lon="5.25871">
        <ele>216</ele>
        <time>2022-05-31T13:36:16.000Z</time>
      </trkpt>
      <trkpt lat="46.58766" lon="5.25882">
        <ele>216</ele>
        <time>2022-05-31T13:36:17.000Z</time>
      </trkpt>
      <trkpt lat="46.5877" lon="5.25962">
        <ele>216</ele>
        <time>2022-05-31T13:36:24.000Z</time>
      </trkpt>
      <trkpt lat="46.58771" lon="5.25973">
        <ele>215.80000305176</ele>
        <time>2022-05-31T13:36:25.000Z</time>
      </trkpt>
      <trkpt lat="46.5877" lon="5.26041">
        <ele>215.39999389648</ele>
        <time>2022-05-31T13:36:31.000Z</time>
      </trkpt>
      <trkpt lat="46.58755" lon="5.26092">
        <ele>215.19999694824</ele>
        <time>2022-05-31T13:36:36.000Z</time>
      </trkpt>
      <trkpt lat="46.58727" lon="5.26143">
        <ele>215.19999694824</ele>
        <time>2022-05-31T13:36:42.000Z</time>
      </trkpt>
      <trkpt lat="46.58686" lon="5.26203">
        <ele>215.19999694824</ele>
        <time>2022-05-31T13:36:50.000Z</time>
      </trkpt>
      <trkpt lat="46.58665" lon="5.26234">
        <ele>215.19999694824</ele>
        <time>2022-05-31T13:36:54.000Z</time>
      </trkpt>
      <trkpt lat="46.58635" lon="5.26281">
        <ele>214.80000305176</ele>
        <time>2022-05-31T13:37:00.000Z</time>
      </trkpt>
      <trkpt lat="46.58616" lon="5.26314">
        <ele>214.60000610352</ele>
        <time>2022-05-31T13:37:04.000Z</time>
      </trkpt>
      <trkpt lat="46.58579" lon="5.26383">
        <ele>214.80000305176</ele>
        <time>2022-05-31T13:37:12.000Z</time>
      </trkpt>
      <trkpt lat="46.58575" lon="5.26391">
        <ele>214.80000305176</ele>
        <time>2022-05-31T13:37:13.000Z</time>
      </trkpt>
      <trkpt lat="46.58538" lon="5.26463">
        <ele>215</ele>
        <time>2022-05-31T13:37:21.000Z</time>
      </trkpt>
      <trkpt lat="46.58534" lon="5.26472">
        <ele>215</ele>
        <time>2022-05-31T13:37:22.000Z</time>
      </trkpt>
      <trkpt lat="46.5851" lon="5.26537">
        <ele>215</ele>
        <time>2022-05-31T13:37:29.000Z</time>
      </trkpt>
      <trkpt lat="46.58497" lon="5.26579">
        <ele>215.19999694824</ele>
        <time>2022-05-31T13:37:34.000Z</time>
      </trkpt>
      <trkpt lat="46.58494" lon="5.26586">
        <ele>215.19999694824</ele>
        <time>2022-05-31T13:37:35.000Z</time>
      </trkpt>
      <trkpt lat="46.58485" lon="5.26591">
        <ele>215.19999694824</ele>
        <time>2022-05-31T13:37:37.000Z</time>
      </trkpt>
      <trkpt lat="46.58476" lon="5.26588">
        <ele>215</ele>
        <time>2022-05-31T13:37:39.000Z</time>
      </trkpt>
      <trkpt lat="46.58471" lon="5.26583">
        <ele>215</ele>
        <time>2022-05-31T13:37:40.000Z</time>
      </trkpt>
      <trkpt lat="46.58437" lon="5.2655">
        <ele>214.60000610352</ele>
        <time>2022-05-31T13:37:46.000Z</time>
      </trkpt>
      <trkpt lat="46.58409" lon="5.2652">
        <ele>214.60000610352</ele>
        <time>2022-05-31T13:37:51.000Z</time>
      </trkpt>
      <trkpt lat="46.584" lon="5.26506">
        <ele>214.60000610352</ele>
        <time>2022-05-31T13:37:53.000Z</time>
      </trkpt>
      <trkpt lat="46.58381" lon="5.26463">
        <ele>214.39999389648</ele>
        <time>2022-05-31T13:37:58.000Z</time>
      </trkpt>
      <trkpt lat="46.5836" lon="5.26388">
        <ele>214.39999389648</ele>
        <time>2022-05-31T13:38:06.000Z</time>
      </trkpt>
      <trkpt lat="46.58352" lon="5.26361">
        <ele>214.39999389648</ele>
        <time>2022-05-31T13:38:09.000Z</time>
      </trkpt>
      <trkpt lat="46.58329" lon="5.26279">
        <ele>214.39999389648</ele>
        <time>2022-05-31T13:38:18.000Z</time>
      </trkpt>
      <trkpt lat="46.58321" lon="5.26251">
        <ele>214.60000610352</ele>
        <time>2022-05-31T13:38:21.000Z</time>
      </trkpt>
      <trkpt lat="46.58299" lon="5.26175">
        <ele>215</ele>
        <time>2022-05-31T13:38:29.000Z</time>
      </trkpt>
      <trkpt lat="46.58281" lon="5.26112">
        <ele>214.39999389648</ele>
        <time>2022-05-31T13:38:35.000Z</time>
      </trkpt>
      <trkpt lat="46.58278" lon="5.26102">
        <ele>214.19999694824</ele>
        <time>2022-05-31T13:38:36.000Z</time>
      </trkpt>
      <trkpt lat="46.5827" lon="5.26083">
        <ele>214</ele>
        <time>2022-05-31T13:38:38.000Z</time>
      </trkpt>
      <trkpt lat="46.58264" lon="5.26074">
        <ele>213.80000305176</ele>
        <time>2022-05-31T13:38:39.000Z</time>
      </trkpt>
      <trkpt lat="46.58259" lon="5.26065">
        <ele>213.60000610352</ele>
        <time>2022-05-31T13:38:40.000Z</time>
      </trkpt>
      <trkpt lat="46.58238" lon="5.26042">
        <ele>213.19999694824</ele>
        <time>2022-05-31T13:38:43.000Z</time>
      </trkpt>
      <trkpt lat="46.58223" lon="5.26026">
        <ele>212.80000305176</ele>
        <time>2022-05-31T13:38:45.000Z</time>
      </trkpt>
      <trkpt lat="46.58191" lon="5.25992">
        <ele>211.60000610352</ele>
        <time>2022-05-31T13:38:49.000Z</time>
      </trkpt>
      <trkpt lat="46.58165" lon="5.25968">
        <ele>210.19999694824</ele>
        <time>2022-05-31T13:38:52.000Z</time>
      </trkpt>
      <trkpt lat="46.58147" lon="5.25954">
        <ele>209.19999694824</ele>
        <time>2022-05-31T13:38:54.000Z</time>
      </trkpt>
      <trkpt lat="46.58138" lon="5.25948">
        <ele>208</ele>
        <time>2022-05-31T13:38:55.000Z</time>
      </trkpt>
      <trkpt lat="46.5812" lon="5.25936">
        <ele>206.60000610352</ele>
        <time>2022-05-31T13:38:57.000Z</time>
      </trkpt>
      <trkpt lat="46.58087" lon="5.25912">
        <ele>205.39999389648</ele>
        <time>2022-05-31T13:39:01.000Z</time>
      </trkpt>
      <trkpt lat="46.58043" lon="5.25881">
        <ele>204.60000610352</ele>
        <time>2022-05-31T13:39:07.000Z</time>
      </trkpt>
      <trkpt lat="46.58014" lon="5.25861">
        <ele>204.80000305176</ele>
        <time>2022-05-31T13:39:12.000Z</time>
      </trkpt>
      <trkpt lat="46.58004" lon="5.25854">
        <ele>205.39999389648</ele>
        <time>2022-05-31T13:39:14.000Z</time>
      </trkpt>
      <trkpt lat="46.57992" lon="5.2584">
        <ele>206.19999694824</ele>
        <time>2022-05-31T13:39:17.000Z</time>
      </trkpt>
      <trkpt lat="46.57989" lon="5.25835">
        <ele>206.60000610352</ele>
        <time>2022-05-31T13:39:18.000Z</time>
      </trkpt>
      <trkpt lat="46.57982" lon="5.25819">
        <ele>207.19999694824</ele>
        <time>2022-05-31T13:39:21.000Z</time>
      </trkpt>
      <trkpt lat="46.57974" lon="5.25801">
        <ele>208</ele>
        <time>2022-05-31T13:39:24.000Z</time>
      </trkpt>
      <trkpt lat="46.57969" lon="5.25789">
        <ele>208.60000610352</ele>
        <time>2022-05-31T13:39:26.000Z</time>
      </trkpt>
      <trkpt lat="46.57966" lon="5.25784">
        <ele>209</ele>
        <time>2022-05-31T13:39:27.000Z</time>
      </trkpt>
      <trkpt lat="46.57962" lon="5.2578">
        <ele>209.19999694824</ele>
        <time>2022-05-31T13:39:28.000Z</time>
      </trkpt>
      <trkpt lat="46.57958" lon="5.25776">
        <ele>209.60000610352</ele>
        <time>2022-05-31T13:39:29.000Z</time>
      </trkpt>
      <trkpt lat="46.57953" lon="5.25774">
        <ele>209.80000305176</ele>
        <time>2022-05-31T13:39:30.000Z</time>
      </trkpt>
      <trkpt lat="46.57944" lon="5.25771">
        <ele>210</ele>
        <time>2022-05-31T13:39:32.000Z</time>
      </trkpt>
      <trkpt lat="46.57934" lon="5.25769">
        <ele>210.19999694824</ele>
        <time>2022-05-31T13:39:34.000Z</time>
      </trkpt>
      <trkpt lat="46.57914" lon="5.25768">
        <ele>211.39999389648</ele>
        <time>2022-05-31T13:39:38.000Z</time>
      </trkpt>
      <trkpt lat="46.57888" lon="5.25768">
        <ele>212</ele>
        <time>2022-05-31T13:39:43.000Z</time>
      </trkpt>
      <trkpt lat="46.57851" lon="5.25769">
        <ele>212.39999389648</ele>
        <time>2022-05-31T13:39:50.000Z</time>
      </trkpt>
      <trkpt lat="46.5783" lon="5.25769">
        <ele>212.60000610352</ele>
        <time>2022-05-31T13:39:54.000Z</time>
      </trkpt>
      <trkpt lat="46.5779" lon="5.25758">
        <ele>213.39999389648</ele>
        <time>2022-05-31T13:40:01.000Z</time>
      </trkpt>
      <trkpt lat="46.57785" lon="5.25755">
        <ele>213.39999389648</ele>
        <time>2022-05-31T13:40:02.000Z</time>
      </trkpt>
      <trkpt lat="46.57759" lon="5.25741">
        <ele>213.80000305176</ele>
        <time>2022-05-31T13:40:07.000Z</time>
      </trkpt>
      <trkpt lat="46.57723" lon="5.25714">
        <ele>214.39999389648</ele>
        <time>2022-05-31T13:40:14.000Z</time>
      </trkpt>
      <trkpt lat="46.57705" lon="5.25708">
        <ele>214.39999389648</ele>
        <time>2022-05-31T13:40:17.000Z</time>
      </trkpt>
      <trkpt lat="46.57688" lon="5.25704">
        <ele>214.80000305176</ele>
        <time>2022-05-31T13:40:20.000Z</time>
      </trkpt>
      <trkpt lat="46.5767" lon="5.25702">
        <ele>214.80000305176</ele>
        <time>2022-05-31T13:40:23.000Z</time>
      </trkpt>
      <trkpt lat="46.57653" lon="5.257">
        <ele>215</ele>
        <time>2022-05-31T13:40:26.000Z</time>
      </trkpt>
      <trkpt lat="46.57647" lon="5.257">
        <ele>214.80000305176</ele>
        <time>2022-05-31T13:40:27.000Z</time>
      </trkpt>
      <trkpt lat="46.57631" lon="5.25696">
        <ele>214.60000610352</ele>
        <time>2022-05-31T13:40:30.000Z</time>
      </trkpt>
      <trkpt lat="46.57621" lon="5.25696">
        <ele>214.60000610352</ele>
        <time>2022-05-31T13:40:32.000Z</time>
      </trkpt>
      <trkpt lat="46.57614" lon="5.25693">
        <ele>214.39999389648</ele>
        <time>2022-05-31T13:40:34.000Z</time>
      </trkpt>
      <trkpt lat="46.57611" lon="5.25688">
        <ele>214.19999694824</ele>
        <time>2022-05-31T13:40:35.000Z</time>
      </trkpt>
      <trkpt lat="46.57609" lon="5.25682">
        <ele>214.19999694824</ele>
        <time>2022-05-31T13:40:36.000Z</time>
      </trkpt>
      <trkpt lat="46.57602" lon="5.25661">
        <ele>213.60000610352</ele>
        <time>2022-05-31T13:40:39.000Z</time>
      </trkpt>
      <trkpt lat="46.576" lon="5.25652">
        <ele>213.19999694824</ele>
        <time>2022-05-31T13:40:40.000Z</time>
      </trkpt>
      <trkpt lat="46.57591" lon="5.25625">
        <ele>212.39999389648</ele>
        <time>2022-05-31T13:40:43.000Z</time>
      </trkpt>
      <trkpt lat="46.57589" lon="5.25615">
        <ele>212.19999694824</ele>
        <time>2022-05-31T13:40:44.000Z</time>
      </trkpt>
      <trkpt lat="46.57584" lon="5.25599">
        <ele>211.80000305176</ele>
        <time>2022-05-31T13:40:46.000Z</time>
      </trkpt>
      <trkpt lat="46.57583" lon="5.25594">
        <ele>211.80000305176</ele>
        <time>2022-05-31T13:40:47.000Z</time>
      </trkpt>
      <trkpt lat="46.57583" lon="5.2559">
        <ele>211.39999389648</ele>
        <time>2022-05-31T13:40:48.000Z</time>
      </trkpt>
      <trkpt lat="46.57583" lon="5.25588">
        <ele>210.80000305176</ele>
        <time>2022-05-31T13:40:49.000Z</time>
      </trkpt>
      <trkpt lat="46.57583" lon="5.25585">
        <ele>210.60000610352</ele>
        <time>2022-05-31T13:40:50.000Z</time>
      </trkpt>
      <trkpt lat="46.57581" lon="5.25584">
        <ele>209.60000610352</ele>
        <time>2022-05-31T13:40:51.000Z</time>
      </trkpt>
      <trkpt lat="46.57575" lon="5.25588">
        <ele>208.60000610352</ele>
        <time>2022-05-31T13:40:53.000Z</time>
      </trkpt>
      <trkpt lat="46.5757" lon="5.25605">
        <ele>207.19999694824</ele>
        <time>2022-05-31T13:40:56.000Z</time>
      </trkpt>
      <trkpt lat="46.57569" lon="5.25609">
        <ele>207</ele>
        <time>2022-05-31T13:40:57.000Z</time>
      </trkpt>
      <trkpt lat="46.57568" lon="5.25613">
        <ele>206.80000305176</ele>
        <time>2022-05-31T13:40:59.000Z</time>
      </trkpt>
      <trkpt lat="46.57568" lon="5.25613">
        <ele>206.60000610352</ele>
        <time>2022-05-31T13:41:00.000Z</time>
      </trkpt>
      <trkpt lat="46.57568" lon="5.25614">
        <ele>206.39999389648</ele>
        <time>2022-05-31T13:41:02.000Z</time>
      </trkpt>
      <trkpt lat="46.57565" lon="5.25619">
        <ele>206.60000610352</ele>
        <time>2022-05-31T13:42:46.000Z</time>
      </trkpt>
      <trkpt lat="46.57563" lon="5.25624">
        <ele>206.60000610352</ele>
        <time>2022-05-31T13:42:47.000Z</time>
      </trkpt>
      <trkpt lat="46.57552" lon="5.25651">
        <ele>206.60000610352</ele>
        <time>2022-05-31T13:42:51.000Z</time>
      </trkpt>
      <trkpt lat="46.57536" lon="5.25691">
        <ele>206.39999389648</ele>
        <time>2022-05-31T13:42:56.000Z</time>
      </trkpt>
      <trkpt lat="46.57514" lon="5.25754">
        <ele>207.60000610352</ele>
        <time>2022-05-31T13:43:04.000Z</time>
      </trkpt>
      <trkpt lat="46.57502" lon="5.25792">
        <ele>208.19999694824</ele>
        <time>2022-05-31T13:43:09.000Z</time>
      </trkpt>
      <trkpt lat="46.57498" lon="5.25808">
        <ele>208.39999389648</ele>
        <time>2022-05-31T13:43:11.000Z</time>
      </trkpt>
      <trkpt lat="46.57485" lon="5.25871">
        <ele>208.60000610352</ele>
        <time>2022-05-31T13:43:19.000Z</time>
      </trkpt>
      <trkpt lat="46.57474" lon="5.25939">
        <ele>209.19999694824</ele>
        <time>2022-05-31T13:43:28.000Z</time>
      </trkpt>
      <trkpt lat="46.57472" lon="5.25946">
        <ele>209.60000610352</ele>
        <time>2022-05-31T13:43:29.000Z</time>
      </trkpt>
      <trkpt lat="46.57467" lon="5.25966">
        <ele>210.19999694824</ele>
        <time>2022-05-31T13:43:32.000Z</time>
      </trkpt>
      <trkpt lat="46.57465" lon="5.25973">
        <ele>210.60000610352</ele>
        <time>2022-05-31T13:43:33.000Z</time>
      </trkpt>
      <trkpt lat="46.57463" lon="5.25978">
        <ele>211</ele>
        <time>2022-05-31T13:43:34.000Z</time>
      </trkpt>
      <trkpt lat="46.57454" lon="5.25994">
        <ele>211.80000305176</ele>
        <time>2022-05-31T13:43:37.000Z</time>
      </trkpt>
      <trkpt lat="46.57445" lon="5.26007">
        <ele>212.80000305176</ele>
        <time>2022-05-31T13:43:40.000Z</time>
      </trkpt>
      <trkpt lat="46.57429" lon="5.26025">
        <ele>214</ele>
        <time>2022-05-31T13:43:44.000Z</time>
      </trkpt>
      <trkpt lat="46.57408" lon="5.26047">
        <ele>215</ele>
        <time>2022-05-31T13:43:49.000Z</time>
      </trkpt>
      <trkpt lat="46.57404" lon="5.26052">
        <ele>215.19999694824</ele>
        <time>2022-05-31T13:43:50.000Z</time>
      </trkpt>
      <trkpt lat="46.57378" lon="5.26079">
        <ele>216</ele>
        <time>2022-05-31T13:43:56.000Z</time>
      </trkpt>
      <trkpt lat="46.57373" lon="5.26084">
        <ele>216.39999389648</ele>
        <time>2022-05-31T13:43:57.000Z</time>
      </trkpt>
      <trkpt lat="46.57341" lon="5.26115">
        <ele>216.39999389648</ele>
        <time>2022-05-31T13:44:04.000Z</time>
      </trkpt>
      <trkpt lat="46.57322" lon="5.26135">
        <ele>217.39999389648</ele>
        <time>2022-05-31T13:44:08.000Z</time>
      </trkpt>
      <trkpt lat="46.57299" lon="5.26163">
        <ele>217.39999389648</ele>
        <time>2022-05-31T13:44:13.000Z</time>
      </trkpt>
      <trkpt lat="46.57255" lon="5.26209">
        <ele>217</ele>
        <time>2022-05-31T13:44:22.000Z</time>
      </trkpt>
      <trkpt lat="46.57229" lon="5.26236">
        <ele>216.19999694824</ele>
        <time>2022-05-31T13:44:27.000Z</time>
      </trkpt>
      <trkpt lat="46.57218" lon="5.26248">
        <ele>216</ele>
        <time>2022-05-31T13:44:29.000Z</time>
      </trkpt>
      <trkpt lat="46.57199" lon="5.26267">
        <ele>215.39999389648</ele>
        <time>2022-05-31T13:44:32.000Z</time>
      </trkpt>
      <trkpt lat="46.57193" lon="5.26274">
        <ele>215.19999694824</ele>
        <time>2022-05-31T13:44:33.000Z</time>
      </trkpt>
      <trkpt lat="46.57179" lon="5.26288">
        <ele>214</ele>
        <time>2022-05-31T13:44:35.000Z</time>
      </trkpt>
      <trkpt lat="46.57158" lon="5.26311">
        <ele>212.60000610352</ele>
        <time>2022-05-31T13:44:38.000Z</time>
      </trkpt>
      <trkpt lat="46.57151" lon="5.26319">
        <ele>212</ele>
        <time>2022-05-31T13:44:39.000Z</time>
      </trkpt>
      <trkpt lat="46.57136" lon="5.26335">
        <ele>211.19999694824</ele>
        <time>2022-05-31T13:44:41.000Z</time>
      </trkpt>
      <trkpt lat="46.57113" lon="5.26359">
        <ele>210</ele>
        <time>2022-05-31T13:44:44.000Z</time>
      </trkpt>
      <trkpt lat="46.57099" lon="5.26378">
        <ele>209</ele>
        <time>2022-05-31T13:44:46.000Z</time>
      </trkpt>
      <trkpt lat="46.57092" lon="5.26389">
        <ele>208.60000610352</ele>
        <time>2022-05-31T13:44:47.000Z</time>
      </trkpt>
      <trkpt lat="46.57086" lon="5.264">
        <ele>208</ele>
        <time>2022-05-31T13:44:48.000Z</time>
      </trkpt>
      <trkpt lat="46.57075" lon="5.26425">
        <ele>207</ele>
        <time>2022-05-31T13:44:50.000Z</time>
      </trkpt>
      <trkpt lat="46.57064" lon="5.2645">
        <ele>205.60000610352</ele>
        <time>2022-05-31T13:44:52.000Z</time>
      </trkpt>
      <trkpt lat="46.57054" lon="5.26474">
        <ele>204.80000305176</ele>
        <time>2022-05-31T13:44:54.000Z</time>
      </trkpt>
      <trkpt lat="46.5705" lon="5.26485">
        <ele>204.39999389648</ele>
        <time>2022-05-31T13:44:55.000Z</time>
      </trkpt>
      <trkpt lat="46.57038" lon="5.26516">
        <ele>203.80000305176</ele>
        <time>2022-05-31T13:44:58.000Z</time>
      </trkpt>
      <trkpt lat="46.5703" lon="5.26534">
        <ele>203.19999694824</ele>
        <time>2022-05-31T13:45:00.000Z</time>
      </trkpt>
      <trkpt lat="46.57016" lon="5.26567">
        <ele>203.19999694824</ele>
        <time>2022-05-31T13:45:04.000Z</time>
      </trkpt>
      <trkpt lat="46.56991" lon="5.26615">
        <ele>204</ele>
        <time>2022-05-31T13:45:11.000Z</time>
      </trkpt>
      <trkpt lat="46.56984" lon="5.26627">
        <ele>204.19999694824</ele>
        <time>2022-05-31T13:45:13.000Z</time>
      </trkpt>
      <trkpt lat="46.56973" lon="5.26643">
        <ele>205.60000610352</ele>
        <time>2022-05-31T13:45:16.000Z</time>
      </trkpt>
      <trkpt lat="46.56966" lon="5.26653">
        <ele>205.80000305176</ele>
        <time>2022-05-31T13:45:18.000Z</time>
      </trkpt>
      <trkpt lat="46.56953" lon="5.26674">
        <ele>206.60000610352</ele>
        <time>2022-05-31T13:45:22.000Z</time>
      </trkpt>
      <trkpt lat="46.56948" lon="5.26686">
        <ele>207.60000610352</ele>
        <time>2022-05-31T13:45:24.000Z</time>
      </trkpt>
      <trkpt lat="46.56945" lon="5.26692">
        <ele>208.19999694824</ele>
        <time>2022-05-31T13:45:25.000Z</time>
      </trkpt>
      <trkpt lat="46.56942" lon="5.26705">
        <ele>209</ele>
        <time>2022-05-31T13:45:27.000Z</time>
      </trkpt>
      <trkpt lat="46.56939" lon="5.26718">
        <ele>210</ele>
        <time>2022-05-31T13:45:29.000Z</time>
      </trkpt>
      <trkpt lat="46.56936" lon="5.26738">
        <ele>211</ele>
        <time>2022-05-31T13:45:32.000Z</time>
      </trkpt>
      <trkpt lat="46.56935" lon="5.26744">
        <ele>211.19999694824</ele>
        <time>2022-05-31T13:45:33.000Z</time>
      </trkpt>
      <trkpt lat="46.56926" lon="5.26779">
        <ele>212.19999694824</ele>
        <time>2022-05-31T13:45:38.000Z</time>
      </trkpt>
      <trkpt lat="46.56924" lon="5.26785">
        <ele>212.60000610352</ele>
        <time>2022-05-31T13:45:39.000Z</time>
      </trkpt>
      <trkpt lat="46.56913" lon="5.26816">
        <ele>213.39999389648</ele>
        <time>2022-05-31T13:45:43.000Z</time>
      </trkpt>
      <trkpt lat="46.5691" lon="5.26824">
        <ele>213.39999389648</ele>
        <time>2022-05-31T13:45:44.000Z</time>
      </trkpt>
      <trkpt lat="46.56887" lon="5.26877">
        <ele>213.39999389648</ele>
        <time>2022-05-31T13:45:50.000Z</time>
      </trkpt>
      <trkpt lat="46.56856" lon="5.26941">
        <ele>212.60000610352</ele>
        <time>2022-05-31T13:45:57.000Z</time>
      </trkpt>
      <trkpt lat="46.56845" lon="5.26971">
        <ele>212</ele>
        <time>2022-05-31T13:46:00.000Z</time>
      </trkpt>
      <trkpt lat="46.56833" lon="5.27001">
        <ele>210.80000305176</ele>
        <time>2022-05-31T13:46:03.000Z</time>
      </trkpt>
      <trkpt lat="46.56825" lon="5.2702">
        <ele>210</ele>
        <time>2022-05-31T13:46:05.000Z</time>
      </trkpt>
      <trkpt lat="46.56822" lon="5.2703">
        <ele>209.80000305176</ele>
        <time>2022-05-31T13:46:06.000Z</time>
      </trkpt>
      <trkpt lat="46.56794" lon="5.27095">
        <ele>208.80000305176</ele>
        <time>2022-05-31T13:46:13.000Z</time>
      </trkpt>
      <trkpt lat="46.5678" lon="5.27131">
        <ele>208.60000610352</ele>
        <time>2022-05-31T13:46:17.000Z</time>
      </trkpt>
      <trkpt lat="46.56772" lon="5.27151">
        <ele>208.60000610352</ele>
        <time>2022-05-31T13:46:19.000Z</time>
      </trkpt>
      <trkpt lat="46.56758" lon="5.2719">
        <ele>209</ele>
        <time>2022-05-31T13:46:24.000Z</time>
      </trkpt>
      <trkpt lat="46.56748" lon="5.27223">
        <ele>210</ele>
        <time>2022-05-31T13:46:28.000Z</time>
      </trkpt>
      <trkpt lat="46.56743" lon="5.27241">
        <ele>210.80000305176</ele>
        <time>2022-05-31T13:46:30.000Z</time>
      </trkpt>
      <trkpt lat="46.56742" lon="5.2725">
        <ele>211</ele>
        <time>2022-05-31T13:46:31.000Z</time>
      </trkpt>
      <trkpt lat="46.56737" lon="5.27284">
        <ele>212</ele>
        <time>2022-05-31T13:46:35.000Z</time>
      </trkpt>
      <trkpt lat="46.56734" lon="5.27301">
        <ele>212.80000305176</ele>
        <time>2022-05-31T13:46:37.000Z</time>
      </trkpt>
      <trkpt lat="46.56731" lon="5.27319">
        <ele>213.19999694824</ele>
        <time>2022-05-31T13:46:39.000Z</time>
      </trkpt>
      <trkpt lat="46.5672" lon="5.27369">
        <ele>213.19999694824</ele>
        <time>2022-05-31T13:46:44.000Z</time>
      </trkpt>
      <trkpt lat="46.56705" lon="5.27431">
        <ele>211.80000305176</ele>
        <time>2022-05-31T13:46:49.000Z</time>
      </trkpt>
      <trkpt lat="46.56696" lon="5.27459">
        <ele>210.60000610352</ele>
        <time>2022-05-31T13:46:51.000Z</time>
      </trkpt>
      <trkpt lat="46.56687" lon="5.27489">
        <ele>209.39999389648</ele>
        <time>2022-05-31T13:46:53.000Z</time>
      </trkpt>
      <trkpt lat="46.56682" lon="5.27504">
        <ele>209</ele>
        <time>2022-05-31T13:46:54.000Z</time>
      </trkpt>
      <trkpt lat="46.56671" lon="5.27535">
        <ele>207.60000610352</ele>
        <time>2022-05-31T13:46:56.000Z</time>
      </trkpt>
      <trkpt lat="46.56661" lon="5.27567">
        <ele>205.60000610352</ele>
        <time>2022-05-31T13:46:58.000Z</time>
      </trkpt>
      <trkpt lat="46.56652" lon="5.27599">
        <ele>204.39999389648</ele>
        <time>2022-05-31T13:47:00.000Z</time>
      </trkpt>
      <trkpt lat="46.56644" lon="5.27631">
        <ele>202.80000305176</ele>
        <time>2022-05-31T13:47:02.000Z</time>
      </trkpt>
      <trkpt lat="46.56637" lon="5.27663">
        <ele>201.60000610352</ele>
        <time>2022-05-31T13:47:04.000Z</time>
      </trkpt>
      <trkpt lat="46.56629" lon="5.2769">
        <ele>200.19999694824</ele>
        <time>2022-05-31T13:47:06.000Z</time>
      </trkpt>
      <trkpt lat="46.56606" lon="5.2773">
        <ele>198.80000305176</ele>
        <time>2022-05-31T13:47:09.000Z</time>
      </trkpt>
      <trkpt lat="46.56581" lon="5.27758">
        <ele>197.60000610352</ele>
        <time>2022-05-31T13:47:12.000Z</time>
      </trkpt>
      <trkpt lat="46.56571" lon="5.27764">
        <ele>197.39999389648</ele>
        <time>2022-05-31T13:47:13.000Z</time>
      </trkpt>
      <trkpt lat="46.56554" lon="5.27774">
        <ele>196.39999389648</ele>
        <time>2022-05-31T13:47:15.000Z</time>
      </trkpt>
      <trkpt lat="46.56528" lon="5.2779">
        <ele>195.39999389648</ele>
        <time>2022-05-31T13:47:18.000Z</time>
      </trkpt>
      <trkpt lat="46.5652" lon="5.27796">
        <ele>195.19999694824</ele>
        <time>2022-05-31T13:47:19.000Z</time>
      </trkpt>
      <trkpt lat="46.56484" lon="5.27823">
        <ele>194.80000305176</ele>
        <time>2022-05-31T13:47:24.000Z</time>
      </trkpt>
      <trkpt lat="46.56459" lon="5.27842">
        <ele>194.80000305176</ele>
        <time>2022-05-31T13:47:28.000Z</time>
      </trkpt>
      <trkpt lat="46.56448" lon="5.27853">
        <ele>194.80000305176</ele>
        <time>2022-05-31T13:47:30.000Z</time>
      </trkpt>
      <trkpt lat="46.564" lon="5.27893">
        <ele>196.19999694824</ele>
        <time>2022-05-31T13:47:37.000Z</time>
      </trkpt>
      <trkpt lat="46.56395" lon="5.27898">
        <ele>196.60000610352</ele>
        <time>2022-05-31T13:47:38.000Z</time>
      </trkpt>
      <trkpt lat="46.56383" lon="5.27908">
        <ele>196.80000305176</ele>
        <time>2022-05-31T13:47:40.000Z</time>
      </trkpt>
      <trkpt lat="46.56356" lon="5.27933">
        <ele>197.60000610352</ele>
        <time>2022-05-31T13:47:45.000Z</time>
      </trkpt>
      <trkpt lat="46.56351" lon="5.27938">
        <ele>197.60000610352</ele>
        <time>2022-05-31T13:47:46.000Z</time>
      </trkpt>
      <trkpt lat="46.56329" lon="5.27961">
        <ele>198.60000610352</ele>
        <time>2022-05-31T13:47:50.000Z</time>
      </trkpt>
      <trkpt lat="46.56324" lon="5.27967">
        <ele>199</ele>
        <time>2022-05-31T13:47:51.000Z</time>
      </trkpt>
      <trkpt lat="46.56306" lon="5.27993">
        <ele>199.39999389648</ele>
        <time>2022-05-31T13:47:55.000Z</time>
      </trkpt>
      <trkpt lat="46.56297" lon="5.28006">
        <ele>199.60000610352</ele>
        <time>2022-05-31T13:47:57.000Z</time>
      </trkpt>
      <trkpt lat="46.56281" lon="5.2803">
        <ele>200.19999694824</ele>
        <time>2022-05-31T13:48:01.000Z</time>
      </trkpt>
      <trkpt lat="46.56268" lon="5.28053">
        <ele>200.80000305176</ele>
        <time>2022-05-31T13:48:05.000Z</time>
      </trkpt>
      <trkpt lat="46.56263" lon="5.2806">
        <ele>200.80000305176</ele>
        <time>2022-05-31T13:48:06.000Z</time>
      </trkpt>
      <trkpt lat="46.56258" lon="5.28066">
        <ele>201</ele>
        <time>2022-05-31T13:48:07.000Z</time>
      </trkpt>
      <trkpt lat="46.56253" lon="5.28071">
        <ele>201</ele>
        <time>2022-05-31T13:48:08.000Z</time>
      </trkpt>
      <trkpt lat="46.56241" lon="5.28082">
        <ele>201</ele>
        <time>2022-05-31T13:48:10.000Z</time>
      </trkpt>
      <trkpt lat="46.56235" lon="5.28087">
        <ele>201.19999694824</ele>
        <time>2022-05-31T13:48:11.000Z</time>
      </trkpt>
      <trkpt lat="46.56229" lon="5.28092">
        <ele>201.19999694824</ele>
        <time>2022-05-31T13:48:12.000Z</time>
      </trkpt>
      <trkpt lat="46.56206" lon="5.28112">
        <ele>201.39999389648</ele>
        <time>2022-05-31T13:48:16.000Z</time>
      </trkpt>
      <trkpt lat="46.5619" lon="5.28129">
        <ele>201</ele>
        <time>2022-05-31T13:48:19.000Z</time>
      </trkpt>
      <trkpt lat="46.56182" lon="5.28145">
        <ele>201</ele>
        <time>2022-05-31T13:48:21.000Z</time>
      </trkpt>
      <trkpt lat="46.56171" lon="5.28173">
        <ele>200.60000610352</ele>
        <time>2022-05-31T13:48:24.000Z</time>
      </trkpt>
      <trkpt lat="46.5616" lon="5.2819">
        <ele>200.39999389648</ele>
        <time>2022-05-31T13:48:26.000Z</time>
      </trkpt>
      <trkpt lat="46.56144" lon="5.28202">
        <ele>199.80000305176</ele>
        <time>2022-05-31T13:48:28.000Z</time>
      </trkpt>
      <trkpt lat="46.56136" lon="5.28205">
        <ele>199.19999694824</ele>
        <time>2022-05-31T13:48:29.000Z</time>
      </trkpt>
      <trkpt lat="46.56119" lon="5.28208">
        <ele>198</ele>
        <time>2022-05-31T13:48:31.000Z</time>
      </trkpt>
      <trkpt lat="46.56093" lon="5.28212">
        <ele>197.39999389648</ele>
        <time>2022-05-31T13:48:34.000Z</time>
      </trkpt>
      <trkpt lat="46.56075" lon="5.28214">
        <ele>197</ele>
        <time>2022-05-31T13:48:36.000Z</time>
      </trkpt>
      <trkpt lat="46.56014" lon="5.28223">
        <ele>196</ele>
        <time>2022-05-31T13:48:43.000Z</time>
      </trkpt>
      <trkpt lat="46.56005" lon="5.28224">
        <ele>196</ele>
        <time>2022-05-31T13:48:44.000Z</time>
      </trkpt>
      <trkpt lat="46.55965" lon="5.28222">
        <ele>195.39999389648</ele>
        <time>2022-05-31T13:48:49.000Z</time>
      </trkpt>
      <trkpt lat="46.55942" lon="5.28218">
        <ele>195.39999389648</ele>
        <time>2022-05-31T13:48:52.000Z</time>
      </trkpt>
      <trkpt lat="46.55927" lon="5.28211">
        <ele>195.39999389648</ele>
        <time>2022-05-31T13:48:54.000Z</time>
      </trkpt>
      <trkpt lat="46.55916" lon="5.28199">
        <ele>195.39999389648</ele>
        <time>2022-05-31T13:48:56.000Z</time>
      </trkpt>
      <trkpt lat="46.55906" lon="5.28186">
        <ele>195.60000610352</ele>
        <time>2022-05-31T13:48:58.000Z</time>
      </trkpt>
      <trkpt lat="46.55877" lon="5.28162">
        <ele>196.39999389648</ele>
        <time>2022-05-31T13:49:03.000Z</time>
      </trkpt>
      <trkpt lat="46.55846" lon="5.28148">
        <ele>197</ele>
        <time>2022-05-31T13:49:08.000Z</time>
      </trkpt>
      <trkpt lat="46.55831" lon="5.28148">
        <ele>197</ele>
        <time>2022-05-31T13:49:10.000Z</time>
      </trkpt>
      <trkpt lat="46.55818" lon="5.28152">
        <ele>197</ele>
        <time>2022-05-31T13:49:12.000Z</time>
      </trkpt>
      <trkpt lat="46.55798" lon="5.28158">
        <ele>197</ele>
        <time>2022-05-31T13:49:15.000Z</time>
      </trkpt>
      <trkpt lat="46.55792" lon="5.28157">
        <ele>197</ele>
        <time>2022-05-31T13:49:16.000Z</time>
      </trkpt>
      <trkpt lat="46.55787" lon="5.28153">
        <ele>197</ele>
        <time>2022-05-31T13:49:17.000Z</time>
      </trkpt>
      <trkpt lat="46.55779" lon="5.28136">
        <ele>196.80000305176</ele>
        <time>2022-05-31T13:49:19.000Z</time>
      </trkpt>
      <trkpt lat="46.55752" lon="5.2808">
        <ele>196.19999694824</ele>
        <time>2022-05-31T13:49:25.000Z</time>
      </trkpt>
      <trkpt lat="46.55743" lon="5.28061">
        <ele>196</ele>
        <time>2022-05-31T13:49:27.000Z</time>
      </trkpt>
      <trkpt lat="46.5572" lon="5.28015">
        <ele>195.60000610352</ele>
        <time>2022-05-31T13:49:32.000Z</time>
      </trkpt>
      <trkpt lat="46.55697" lon="5.27971">
        <ele>195.39999389648</ele>
        <time>2022-05-31T13:49:37.000Z</time>
      </trkpt>
      <trkpt lat="46.55678" lon="5.27936">
        <ele>195.39999389648</ele>
        <time>2022-05-31T13:49:41.000Z</time>
      </trkpt>
      <trkpt lat="46.55671" lon="5.27929">
        <ele>195.39999389648</ele>
        <time>2022-05-31T13:49:42.000Z</time>
      </trkpt>
      <trkpt lat="46.55663" lon="5.27925">
        <ele>195.19999694824</ele>
        <time>2022-05-31T13:49:43.000Z</time>
      </trkpt>
      <trkpt lat="46.55655" lon="5.27925">
        <ele>195.19999694824</ele>
        <time>2022-05-31T13:49:44.000Z</time>
      </trkpt>
      <trkpt lat="46.55648" lon="5.27928">
        <ele>195</ele>
        <time>2022-05-31T13:49:45.000Z</time>
      </trkpt>
      <trkpt lat="46.55635" lon="5.27939">
        <ele>194.60000610352</ele>
        <time>2022-05-31T13:49:47.000Z</time>
      </trkpt>
      <trkpt lat="46.55591" lon="5.2798">
        <ele>194</ele>
        <time>2022-05-31T13:49:54.000Z</time>
      </trkpt>
      <trkpt lat="46.55584" lon="5.27985">
        <ele>194</ele>
        <time>2022-05-31T13:49:55.000Z</time>
      </trkpt>
      <trkpt lat="46.55547" lon="5.28007">
        <ele>194</ele>
        <time>2022-05-31T13:50:01.000Z</time>
      </trkpt>
      <trkpt lat="46.55537" lon="5.28014">
        <ele>194.19999694824</ele>
        <time>2022-05-31T13:50:03.000Z</time>
      </trkpt>
      <trkpt lat="46.55527" lon="5.28025">
        <ele>194.19999694824</ele>
        <time>2022-05-31T13:50:05.000Z</time>
      </trkpt>
      <trkpt lat="46.55494" lon="5.28071">
        <ele>194.39999389648</ele>
        <time>2022-05-31T13:50:12.000Z</time>
      </trkpt>
      <trkpt lat="46.55473" lon="5.28096">
        <ele>193.80000305176</ele>
        <time>2022-05-31T13:50:16.000Z</time>
      </trkpt>
      <trkpt lat="46.55469" lon="5.28104">
        <ele>193.80000305176</ele>
        <time>2022-05-31T13:50:17.000Z</time>
      </trkpt>
      <trkpt lat="46.55467" lon="5.28113">
        <ele>193.80000305176</ele>
        <time>2022-05-31T13:50:18.000Z</time>
      </trkpt>
      <trkpt lat="46.55464" lon="5.28142">
        <ele>193.60000610352</ele>
        <time>2022-05-31T13:50:21.000Z</time>
      </trkpt>
      <trkpt lat="46.55462" lon="5.28151">
        <ele>193.60000610352</ele>
        <time>2022-05-31T13:50:22.000Z</time>
      </trkpt>
      <trkpt lat="46.55455" lon="5.28168">
        <ele>193.60000610352</ele>
        <time>2022-05-31T13:50:24.000Z</time>
      </trkpt>
      <trkpt lat="46.55445" lon="5.28181">
        <ele>193.60000610352</ele>
        <time>2022-05-31T13:50:26.000Z</time>
      </trkpt>
      <trkpt lat="46.55434" lon="5.2819">
        <ele>193.39999389648</ele>
        <time>2022-05-31T13:50:28.000Z</time>
      </trkpt>
      <trkpt lat="46.55418" lon="5.28203">
        <ele>193.19999694824</ele>
        <time>2022-05-31T13:50:31.000Z</time>
      </trkpt>
      <trkpt lat="46.55407" lon="5.28211">
        <ele>193</ele>
        <time>2022-05-31T13:50:33.000Z</time>
      </trkpt>
      <trkpt lat="46.55363" lon="5.28249">
        <ele>193.60000610352</ele>
        <time>2022-05-31T13:50:41.000Z</time>
      </trkpt>
      <trkpt lat="46.55349" lon="5.28266">
        <ele>193.60000610352</ele>
        <time>2022-05-31T13:50:44.000Z</time>
      </trkpt>
      <trkpt lat="46.55341" lon="5.28278">
        <ele>193.80000305176</ele>
        <time>2022-05-31T13:50:46.000Z</time>
      </trkpt>
      <trkpt lat="46.55302" lon="5.28343">
        <ele>194.60000610352</ele>
        <time>2022-05-31T13:50:56.000Z</time>
      </trkpt>
      <trkpt lat="46.55279" lon="5.28384">
        <ele>195.19999694824</ele>
        <time>2022-05-31T13:51:03.000Z</time>
      </trkpt>
      <trkpt lat="46.55256" lon="5.28415">
        <ele>195.80000305176</ele>
        <time>2022-05-31T13:51:09.000Z</time>
      </trkpt>
      <trkpt lat="46.55252" lon="5.28418">
        <ele>196</ele>
        <time>2022-05-31T13:51:10.000Z</time>
      </trkpt>
      <trkpt lat="46.55247" lon="5.28421">
        <ele>196.19999694824</ele>
        <time>2022-05-31T13:51:11.000Z</time>
      </trkpt>
      <trkpt lat="46.55238" lon="5.28424">
        <ele>196.39999389648</ele>
        <time>2022-05-31T13:51:13.000Z</time>
      </trkpt>
      <trkpt lat="46.55228" lon="5.28424">
        <ele>196.80000305176</ele>
        <time>2022-05-31T13:51:15.000Z</time>
      </trkpt>
      <trkpt lat="46.55223" lon="5.28424">
        <ele>197</ele>
        <time>2022-05-31T13:51:16.000Z</time>
      </trkpt>
      <trkpt lat="46.55214" lon="5.2842">
        <ele>197.60000610352</ele>
        <time>2022-05-31T13:51:18.000Z</time>
      </trkpt>
      <trkpt lat="46.55205" lon="5.28417">
        <ele>197.80000305176</ele>
        <time>2022-05-31T13:51:20.000Z</time>
      </trkpt>
      <trkpt lat="46.55191" lon="5.28411">
        <ele>198.60000610352</ele>
        <time>2022-05-31T13:51:23.000Z</time>
      </trkpt>
      <trkpt lat="46.55166" lon="5.28401">
        <ele>199.80000305176</ele>
        <time>2022-05-31T13:51:28.000Z</time>
      </trkpt>
      <trkpt lat="46.55121" lon="5.28384">
        <ele>200.19999694824</ele>
        <time>2022-05-31T13:51:36.000Z</time>
      </trkpt>
      <trkpt lat="46.55081" lon="5.28382">
        <ele>200.39999389648</ele>
        <time>2022-05-31T13:51:43.000Z</time>
      </trkpt>
      <trkpt lat="46.55042" lon="5.28394">
        <ele>200.60000610352</ele>
        <time>2022-05-31T13:51:50.000Z</time>
      </trkpt>
      <trkpt lat="46.54993" lon="5.28418">
        <ele>200.80000305176</ele>
        <time>2022-05-31T13:51:59.000Z</time>
      </trkpt>
      <trkpt lat="46.54967" lon="5.28436">
        <ele>201</ele>
        <time>2022-05-31T13:52:04.000Z</time>
      </trkpt>
      <trkpt lat="46.54956" lon="5.28441">
        <ele>201</ele>
        <time>2022-05-31T13:52:06.000Z</time>
      </trkpt>
      <trkpt lat="46.54943" lon="5.28446">
        <ele>201.19999694824</ele>
        <time>2022-05-31T13:52:08.000Z</time>
      </trkpt>
      <trkpt lat="46.5493" lon="5.28446">
        <ele>201.19999694824</ele>
        <time>2022-05-31T13:52:10.000Z</time>
      </trkpt>
      <trkpt lat="46.54917" lon="5.28441">
        <ele>201</ele>
        <time>2022-05-31T13:52:12.000Z</time>
      </trkpt>
      <trkpt lat="46.549" lon="5.2843">
        <ele>201</ele>
        <time>2022-05-31T13:52:15.000Z</time>
      </trkpt>
      <trkpt lat="46.54856" lon="5.28395">
        <ele>200.80000305176</ele>
        <time>2022-05-31T13:52:23.000Z</time>
      </trkpt>
      <trkpt lat="46.54825" lon="5.28377">
        <ele>201.60000610352</ele>
        <time>2022-05-31T13:52:29.000Z</time>
      </trkpt>
      <trkpt lat="46.54816" lon="5.28372">
        <ele>202</ele>
        <time>2022-05-31T13:52:31.000Z</time>
      </trkpt>
      <trkpt lat="46.54801" lon="5.28363">
        <ele>203.19999694824</ele>
        <time>2022-05-31T13:52:34.000Z</time>
      </trkpt>
      <trkpt lat="46.54796" lon="5.2836">
        <ele>203.80000305176</ele>
        <time>2022-05-31T13:52:35.000Z</time>
      </trkpt>
      <trkpt lat="46.54791" lon="5.28359">
        <ele>204.19999694824</ele>
        <time>2022-05-31T13:52:36.000Z</time>
      </trkpt>
      <trkpt lat="46.54785" lon="5.28359">
        <ele>204.80000305176</ele>
        <time>2022-05-31T13:52:37.000Z</time>
      </trkpt>
      <trkpt lat="46.54775" lon="5.28366">
        <ele>205</ele>
        <time>2022-05-31T13:52:39.000Z</time>
      </trkpt>
      <trkpt lat="46.54751" lon="5.28393">
        <ele>205</ele>
        <time>2022-05-31T13:52:44.000Z</time>
      </trkpt>
      <trkpt lat="46.54739" lon="5.28401">
        <ele>204.80000305176</ele>
        <time>2022-05-31T13:52:46.000Z</time>
      </trkpt>
      <trkpt lat="46.54725" lon="5.28407">
        <ele>204.60000610352</ele>
        <time>2022-05-31T13:52:48.000Z</time>
      </trkpt>
      <trkpt lat="46.5469" lon="5.28424">
        <ele>203.60000610352</ele>
        <time>2022-05-31T13:52:53.000Z</time>
      </trkpt>
      <trkpt lat="46.54675" lon="5.28432">
        <ele>203.19999694824</ele>
        <time>2022-05-31T13:52:55.000Z</time>
      </trkpt>
      <trkpt lat="46.54637" lon="5.28449">
        <ele>202.19999694824</ele>
        <time>2022-05-31T13:53:00.000Z</time>
      </trkpt>
      <trkpt lat="46.54629" lon="5.28451">
        <ele>202.19999694824</ele>
        <time>2022-05-31T13:53:01.000Z</time>
      </trkpt>
      <trkpt lat="46.54599" lon="5.28455">
        <ele>201</ele>
        <time>2022-05-31T13:53:05.000Z</time>
      </trkpt>
      <trkpt lat="46.54592" lon="5.28455">
        <ele>201</ele>
        <time>2022-05-31T13:53:06.000Z</time>
      </trkpt>
      <trkpt lat="46.54547" lon="5.28446">
        <ele>200.19999694824</ele>
        <time>2022-05-31T13:53:12.000Z</time>
      </trkpt>
      <trkpt lat="46.54512" lon="5.28449">
        <ele>200</ele>
        <time>2022-05-31T13:53:17.000Z</time>
      </trkpt>
      <trkpt lat="46.54506" lon="5.2845">
        <ele>200</ele>
        <time>2022-05-31T13:53:18.000Z</time>
      </trkpt>
      <trkpt lat="46.54487" lon="5.2845">
        <ele>199</ele>
        <time>2022-05-31T13:53:21.000Z</time>
      </trkpt>
      <trkpt lat="46.54474" lon="5.28449">
        <ele>198.80000305176</ele>
        <time>2022-05-31T13:53:23.000Z</time>
      </trkpt>
      <trkpt lat="46.54436" lon="5.28452">
        <ele>198.60000610352</ele>
        <time>2022-05-31T13:53:29.000Z</time>
      </trkpt>
      <trkpt lat="46.5443" lon="5.28455">
        <ele>198.80000305176</ele>
        <time>2022-05-31T13:53:30.000Z</time>
      </trkpt>
      <trkpt lat="46.54413" lon="5.28467">
        <ele>199</ele>
        <time>2022-05-31T13:53:33.000Z</time>
      </trkpt>
      <trkpt lat="46.54376" lon="5.28499">
        <ele>199.19999694824</ele>
        <time>2022-05-31T13:53:40.000Z</time>
      </trkpt>
      <trkpt lat="46.54342" lon="5.28526">
        <ele>200</ele>
        <time>2022-05-31T13:53:47.000Z</time>
      </trkpt>
      <trkpt lat="46.54338" lon="5.2853">
        <ele>200</ele>
        <time>2022-05-31T13:53:48.000Z</time>
      </trkpt>
      <trkpt lat="46.54305" lon="5.28555">
        <ele>200.80000305176</ele>
        <time>2022-05-31T13:53:55.000Z</time>
      </trkpt>
      <trkpt lat="46.54301" lon="5.28558">
        <ele>201</ele>
        <time>2022-05-31T13:53:56.000Z</time>
      </trkpt>
      <trkpt lat="46.54296" lon="5.28561">
        <ele>201.19999694824</ele>
        <time>2022-05-31T13:53:57.000Z</time>
      </trkpt>
      <trkpt lat="46.54283" lon="5.28568">
        <ele>201.80000305176</ele>
        <time>2022-05-31T13:54:00.000Z</time>
      </trkpt>
      <trkpt lat="46.54279" lon="5.2857">
        <ele>202</ele>
        <time>2022-05-31T13:54:01.000Z</time>
      </trkpt>
      <trkpt lat="46.5427" lon="5.28576">
        <ele>202.60000610352</ele>
        <time>2022-05-31T13:54:03.000Z</time>
      </trkpt>
      <trkpt lat="46.54261" lon="5.28582">
        <ele>203.60000610352</ele>
        <time>2022-05-31T13:54:05.000Z</time>
      </trkpt>
      <trkpt lat="46.54257" lon="5.28585">
        <ele>204</ele>
        <time>2022-05-31T13:54:06.000Z</time>
      </trkpt>
      <trkpt lat="46.54239" lon="5.28594">
        <ele>204.80000305176</ele>
        <time>2022-05-31T13:54:10.000Z</time>
      </trkpt>
      <trkpt lat="46.54235" lon="5.28596">
        <ele>204.80000305176</ele>
        <time>2022-05-31T13:54:11.000Z</time>
      </trkpt>
      <trkpt lat="46.5423" lon="5.28599">
        <ele>205.19999694824</ele>
        <time>2022-05-31T13:54:12.000Z</time>
      </trkpt>
      <trkpt lat="46.54226" lon="5.28602">
        <ele>205.19999694824</ele>
        <time>2022-05-31T13:54:13.000Z</time>
      </trkpt>
      <trkpt lat="46.54218" lon="5.28606">
        <ele>205.80000305176</ele>
        <time>2022-05-31T13:54:15.000Z</time>
      </trkpt>
      <trkpt lat="46.54213" lon="5.28609">
        <ele>206.19999694824</ele>
        <time>2022-05-31T13:54:16.000Z</time>
      </trkpt>
      <trkpt lat="46.54208" lon="5.28612">
        <ele>206.39999389648</ele>
        <time>2022-05-31T13:54:17.000Z</time>
      </trkpt>
      <trkpt lat="46.54199" lon="5.28617">
        <ele>207</ele>
        <time>2022-05-31T13:54:19.000Z</time>
      </trkpt>
      <trkpt lat="46.54195" lon="5.28618">
        <ele>207</ele>
        <time>2022-05-31T13:54:20.000Z</time>
      </trkpt>
      <trkpt lat="46.5419" lon="5.28621">
        <ele>207.19999694824</ele>
        <time>2022-05-31T13:54:21.000Z</time>
      </trkpt>
      <trkpt lat="46.5418" lon="5.28631">
        <ele>207.39999389648</ele>
        <time>2022-05-31T13:54:23.000Z</time>
      </trkpt>
      <trkpt lat="46.54176" lon="5.28633">
        <ele>207.80000305176</ele>
        <time>2022-05-31T13:54:24.000Z</time>
      </trkpt>
      <trkpt lat="46.54159" lon="5.28642">
        <ele>208.60000610352</ele>
        <time>2022-05-31T13:54:28.000Z</time>
      </trkpt>
      <trkpt lat="46.54143" lon="5.28645">
        <ele>209.39999389648</ele>
        <time>2022-05-31T13:54:32.000Z</time>
      </trkpt>
      <trkpt lat="46.54139" lon="5.28646">
        <ele>209.60000610352</ele>
        <time>2022-05-31T13:54:33.000Z</time>
      </trkpt>
      <trkpt lat="46.54126" lon="5.28646">
        <ele>210.19999694824</ele>
        <time>2022-05-31T13:54:36.000Z</time>
      </trkpt>
      <trkpt lat="46.54122" lon="5.28646">
        <ele>210.19999694824</ele>
        <time>2022-05-31T13:54:37.000Z</time>
      </trkpt>
      <trkpt lat="46.54107" lon="5.28645">
        <ele>210.60000610352</ele>
        <time>2022-05-31T13:54:40.000Z</time>
      </trkpt>
      <trkpt lat="46.54082" lon="5.28642">
        <ele>211.80000305176</ele>
        <time>2022-05-31T13:54:45.000Z</time>
      </trkpt>
      <trkpt lat="46.54063" lon="5.28641">
        <ele>212.19999694824</ele>
        <time>2022-05-31T13:54:49.000Z</time>
      </trkpt>
      <trkpt lat="46.54021" lon="5.28637">
        <ele>212.80000305176</ele>
        <time>2022-05-31T13:54:57.000Z</time>
      </trkpt>
      <trkpt lat="46.54015" lon="5.28636">
        <ele>212.80000305176</ele>
        <time>2022-05-31T13:54:58.000Z</time>
      </trkpt>
      <trkpt lat="46.5397" lon="5.28634">
        <ele>213.39999389648</ele>
        <time>2022-05-31T13:55:06.000Z</time>
      </trkpt>
      <trkpt lat="46.53929" lon="5.28632">
        <ele>213.80000305176</ele>
        <time>2022-05-31T13:55:13.000Z</time>
      </trkpt>
      <trkpt lat="46.53918" lon="5.28631">
        <ele>214</ele>
        <time>2022-05-31T13:55:15.000Z</time>
      </trkpt>
      <trkpt lat="46.53891" lon="5.2863">
        <ele>214.80000305176</ele>
        <time>2022-05-31T13:55:20.000Z</time>
      </trkpt>
      <trkpt lat="46.53868" lon="5.28628">
        <ele>215.39999389648</ele>
        <time>2022-05-31T13:55:24.000Z</time>
      </trkpt>
      <trkpt lat="46.53825" lon="5.28625">
        <ele>216</ele>
        <time>2022-05-31T13:55:31.000Z</time>
      </trkpt>
      <trkpt lat="46.53805" lon="5.28623">
        <ele>216.19999694824</ele>
        <time>2022-05-31T13:55:34.000Z</time>
      </trkpt>
      <trkpt lat="46.5375" lon="5.28619">
        <ele>216.19999694824</ele>
        <time>2022-05-31T13:55:42.000Z</time>
      </trkpt>
      <trkpt lat="46.53689" lon="5.28615">
        <ele>216</ele>
        <time>2022-05-31T13:55:50.000Z</time>
      </trkpt>
      <trkpt lat="46.5365" lon="5.28613">
        <ele>215.60000610352</ele>
        <time>2022-05-31T13:55:55.000Z</time>
      </trkpt>
      <trkpt lat="46.53618" lon="5.28611">
        <ele>215</ele>
        <time>2022-05-31T13:55:59.000Z</time>
      </trkpt>
      <trkpt lat="46.53603" lon="5.2861">
        <ele>214.80000305176</ele>
        <time>2022-05-31T13:56:01.000Z</time>
      </trkpt>
      <trkpt lat="46.53557" lon="5.28605">
        <ele>214.39999389648</ele>
        <time>2022-05-31T13:56:06.000Z</time>
      </trkpt>
      <trkpt lat="46.5351" lon="5.28602">
        <ele>214</ele>
        <time>2022-05-31T13:56:12.000Z</time>
      </trkpt>
      <trkpt lat="46.53502" lon="5.28602">
        <ele>214</ele>
        <time>2022-05-31T13:56:13.000Z</time>
      </trkpt>
      <trkpt lat="46.5344" lon="5.28594">
        <ele>213.19999694824</ele>
        <time>2022-05-31T13:56:20.000Z</time>
      </trkpt>
      <trkpt lat="46.53431" lon="5.28591">
        <ele>213</ele>
        <time>2022-05-31T13:56:21.000Z</time>
      </trkpt>
      <trkpt lat="46.53421" lon="5.28587">
        <ele>212.60000610352</ele>
        <time>2022-05-31T13:56:22.000Z</time>
      </trkpt>
      <trkpt lat="46.53403" lon="5.28576">
        <ele>211.80000305176</ele>
        <time>2022-05-31T13:56:24.000Z</time>
      </trkpt>
      <trkpt lat="46.53395" lon="5.28571">
        <ele>211</ele>
        <time>2022-05-31T13:56:25.000Z</time>
      </trkpt>
      <trkpt lat="46.53377" lon="5.28558">
        <ele>210</ele>
        <time>2022-05-31T13:56:27.000Z</time>
      </trkpt>
      <trkpt lat="46.53356" lon="5.28544">
        <ele>208.80000305176</ele>
        <time>2022-05-31T13:56:29.000Z</time>
      </trkpt>
      <trkpt lat="46.53338" lon="5.28532">
        <ele>207.80000305176</ele>
        <time>2022-05-31T13:56:31.000Z</time>
      </trkpt>
      <trkpt lat="46.53309" lon="5.28521">
        <ele>206.19999694824</ele>
        <time>2022-05-31T13:56:34.000Z</time>
      </trkpt>
      <trkpt lat="46.53299" lon="5.2852">
        <ele>205.80000305176</ele>
        <time>2022-05-31T13:56:35.000Z</time>
      </trkpt>
      <trkpt lat="46.5327" lon="5.2852">
        <ele>204.80000305176</ele>
        <time>2022-05-31T13:56:38.000Z</time>
      </trkpt>
      <trkpt lat="46.53243" lon="5.28521">
        <ele>203.80000305176</ele>
        <time>2022-05-31T13:56:41.000Z</time>
      </trkpt>
      <trkpt lat="46.53229" lon="5.28522">
        <ele>203.60000610352</ele>
        <time>2022-05-31T13:56:43.000Z</time>
      </trkpt>
      <trkpt lat="46.5321" lon="5.28522">
        <ele>203.80000305176</ele>
        <time>2022-05-31T13:56:46.000Z</time>
      </trkpt>
      <trkpt lat="46.53195" lon="5.28523">
        <ele>204.60000610352</ele>
        <time>2022-05-31T13:56:48.000Z</time>
      </trkpt>
      <trkpt lat="46.5319" lon="5.28524">
        <ele>205</ele>
        <time>2022-05-31T13:56:49.000Z</time>
      </trkpt>
      <trkpt lat="46.53183" lon="5.28524">
        <ele>205.60000610352</ele>
        <time>2022-05-31T13:56:50.000Z</time>
      </trkpt>
      <trkpt lat="46.53171" lon="5.28526">
        <ele>206</ele>
        <time>2022-05-31T13:56:52.000Z</time>
      </trkpt>
      <trkpt lat="46.53161" lon="5.28528">
        <ele>206.60000610352</ele>
        <time>2022-05-31T13:56:54.000Z</time>
      </trkpt>
      <trkpt lat="46.53149" lon="5.28529">
        <ele>207</ele>
        <time>2022-05-31T13:56:56.000Z</time>
      </trkpt>
      <trkpt lat="46.53145" lon="5.28529">
        <ele>207.39999389648</ele>
        <time>2022-05-31T13:56:57.000Z</time>
      </trkpt>
      <trkpt lat="46.53139" lon="5.28529">
        <ele>207.60000610352</ele>
        <time>2022-05-31T13:56:58.000Z</time>
      </trkpt>
      <trkpt lat="46.53116" lon="5.28534">
        <ele>208.39999389648</ele>
        <time>2022-05-31T13:57:02.000Z</time>
      </trkpt>
      <trkpt lat="46.53112" lon="5.28534">
        <ele>208.60000610352</ele>
        <time>2022-05-31T13:57:03.000Z</time>
      </trkpt>
      <trkpt lat="46.53107" lon="5.28536">
        <ele>208.80000305176</ele>
        <time>2022-05-31T13:57:04.000Z</time>
      </trkpt>
      <trkpt lat="46.53079" lon="5.28543">
        <ele>209.80000305176</ele>
        <time>2022-05-31T13:57:08.000Z</time>
      </trkpt>
      <trkpt lat="46.53049" lon="5.2855">
        <ele>210.60000610352</ele>
        <time>2022-05-31T13:57:12.000Z</time>
      </trkpt>
      <trkpt lat="46.53044" lon="5.28552">
        <ele>210.80000305176</ele>
        <time>2022-05-31T13:57:13.000Z</time>
      </trkpt>
      <trkpt lat="46.53036" lon="5.28554">
        <ele>211</ele>
        <time>2022-05-31T13:57:14.000Z</time>
      </trkpt>
      <trkpt lat="46.53013" lon="5.28559">
        <ele>211.19999694824</ele>
        <time>2022-05-31T13:57:18.000Z</time>
      </trkpt>
      <trkpt lat="46.53" lon="5.2856">
        <ele>212.19999694824</ele>
        <time>2022-05-31T13:57:20.000Z</time>
      </trkpt>
      <trkpt lat="46.52973" lon="5.28566">
        <ele>213.39999389648</ele>
        <time>2022-05-31T13:57:25.000Z</time>
      </trkpt>
      <trkpt lat="46.52968" lon="5.28568">
        <ele>213.39999389648</ele>
        <time>2022-05-31T13:57:26.000Z</time>
      </trkpt>
      <trkpt lat="46.52943" lon="5.28575">
        <ele>214.39999389648</ele>
        <time>2022-05-31T13:57:30.000Z</time>
      </trkpt>
      <trkpt lat="46.52932" lon="5.28576">
        <ele>214.60000610352</ele>
        <time>2022-05-31T13:57:32.000Z</time>
      </trkpt>
      <trkpt lat="46.52891" lon="5.28582">
        <ele>215.39999389648</ele>
        <time>2022-05-31T13:57:39.000Z</time>
      </trkpt>
      <trkpt lat="46.52879" lon="5.28583">
        <ele>215.39999389648</ele>
        <time>2022-05-31T13:57:41.000Z</time>
      </trkpt>
      <trkpt lat="46.52855" lon="5.28588">
        <ele>215.60000610352</ele>
        <time>2022-05-31T13:57:45.000Z</time>
      </trkpt>
      <trkpt lat="46.52842" lon="5.2859">
        <ele>215.60000610352</ele>
        <time>2022-05-31T13:57:47.000Z</time>
      </trkpt>
      <trkpt lat="46.52794" lon="5.28596">
        <ele>215.80000305176</ele>
        <time>2022-05-31T13:57:54.000Z</time>
      </trkpt>
      <trkpt lat="46.52744" lon="5.28605">
        <ele>215</ele>
        <time>2022-05-31T13:58:01.000Z</time>
      </trkpt>
      <trkpt lat="46.52706" lon="5.28615">
        <ele>214.19999694824</ele>
        <time>2022-05-31T13:58:06.000Z</time>
      </trkpt>
      <trkpt lat="46.52691" lon="5.28619">
        <ele>213.39999389648</ele>
        <time>2022-05-31T13:58:08.000Z</time>
      </trkpt>
      <trkpt lat="46.52684" lon="5.2862">
        <ele>212.80000305176</ele>
        <time>2022-05-31T13:58:09.000Z</time>
      </trkpt>
      <trkpt lat="46.5265" lon="5.28618">
        <ele>212.39999389648</ele>
        <time>2022-05-31T13:58:14.000Z</time>
      </trkpt>
      <trkpt lat="46.52611" lon="5.28605">
        <ele>211.80000305176</ele>
        <time>2022-05-31T13:58:20.000Z</time>
      </trkpt>
      <trkpt lat="46.52594" lon="5.28604">
        <ele>211.60000610352</ele>
        <time>2022-05-31T13:58:22.000Z</time>
      </trkpt>
      <trkpt lat="46.5256" lon="5.28608">
        <ele>211</ele>
        <time>2022-05-31T13:58:26.000Z</time>
      </trkpt>
      <trkpt lat="46.52543" lon="5.28611">
        <ele>210</ele>
        <time>2022-05-31T13:58:28.000Z</time>
      </trkpt>
      <trkpt lat="46.52526" lon="5.28614">
        <ele>209.80000305176</ele>
        <time>2022-05-31T13:58:30.000Z</time>
      </trkpt>
      <trkpt lat="46.52473" lon="5.28624">
        <ele>208.80000305176</ele>
        <time>2022-05-31T13:58:36.000Z</time>
      </trkpt>
      <trkpt lat="46.52463" lon="5.28626">
        <ele>208.39999389648</ele>
        <time>2022-05-31T13:58:37.000Z</time>
      </trkpt>
      <trkpt lat="46.52435" lon="5.28632">
        <ele>207.80000305176</ele>
        <time>2022-05-31T13:58:40.000Z</time>
      </trkpt>
      <trkpt lat="46.52425" lon="5.28634">
        <ele>207</ele>
        <time>2022-05-31T13:58:41.000Z</time>
      </trkpt>
      <trkpt lat="46.52406" lon="5.28638">
        <ele>205.80000305176</ele>
        <time>2022-05-31T13:58:43.000Z</time>
      </trkpt>
      <trkpt lat="46.52376" lon="5.28643">
        <ele>204.60000610352</ele>
        <time>2022-05-31T13:58:46.000Z</time>
      </trkpt>
      <trkpt lat="46.52345" lon="5.28649">
        <ele>203.39999389648</ele>
        <time>2022-05-31T13:58:49.000Z</time>
      </trkpt>
      <trkpt lat="46.52326" lon="5.28651">
        <ele>202.19999694824</ele>
        <time>2022-05-31T13:58:51.000Z</time>
      </trkpt>
      <trkpt lat="46.52293" lon="5.28655">
        <ele>201.19999694824</ele>
        <time>2022-05-31T13:58:54.000Z</time>
      </trkpt>
      <trkpt lat="46.52283" lon="5.28655">
        <ele>200.39999389648</ele>
        <time>2022-05-31T13:58:55.000Z</time>
      </trkpt>
      <trkpt lat="46.52263" lon="5.28657">
        <ele>199</ele>
        <time>2022-05-31T13:58:57.000Z</time>
      </trkpt>
      <trkpt lat="46.52235" lon="5.28659">
        <ele>197.80000305176</ele>
        <time>2022-05-31T13:59:00.000Z</time>
      </trkpt>
      <trkpt lat="46.52214" lon="5.28664">
        <ele>197.39999389648</ele>
        <time>2022-05-31T13:59:02.000Z</time>
      </trkpt>
      <trkpt lat="46.52177" lon="5.28678">
        <ele>196.80000305176</ele>
        <time>2022-05-31T13:59:06.000Z</time>
      </trkpt>
      <trkpt lat="46.5215" lon="5.28688">
        <ele>196</ele>
        <time>2022-05-31T13:59:09.000Z</time>
      </trkpt>
      <trkpt lat="46.52133" lon="5.28694">
        <ele>195.39999389648</ele>
        <time>2022-05-31T13:59:11.000Z</time>
      </trkpt>
      <trkpt lat="46.5211" lon="5.28703">
        <ele>195.19999694824</ele>
        <time>2022-05-31T13:59:14.000Z</time>
      </trkpt>
      <trkpt lat="46.5207" lon="5.28713">
        <ele>195.19999694824</ele>
        <time>2022-05-31T13:59:19.000Z</time>
      </trkpt>
      <trkpt lat="46.52029" lon="5.28722">
        <ele>195.80000305176</ele>
        <time>2022-05-31T13:59:25.000Z</time>
      </trkpt>
      <trkpt lat="46.51988" lon="5.28744">
        <ele>195.80000305176</ele>
        <time>2022-05-31T13:59:31.000Z</time>
      </trkpt>
      <trkpt lat="46.51962" lon="5.2875">
        <ele>196.19999694824</ele>
        <time>2022-05-31T13:59:35.000Z</time>
      </trkpt>
      <trkpt lat="46.51957" lon="5.2875">
        <ele>196.19999694824</ele>
        <time>2022-05-31T13:59:36.000Z</time>
      </trkpt>
      <trkpt lat="46.51931" lon="5.28748">
        <ele>196.39999389648</ele>
        <time>2022-05-31T13:59:40.000Z</time>
      </trkpt>
      <trkpt lat="46.51914" lon="5.28745">
        <ele>196.80000305176</ele>
        <time>2022-05-31T13:59:43.000Z</time>
      </trkpt>
      <trkpt lat="46.51906" lon="5.28743">
        <ele>197.19999694824</ele>
        <time>2022-05-31T13:59:44.000Z</time>
      </trkpt>
      <trkpt lat="46.51894" lon="5.28738">
        <ele>197.60000610352</ele>
        <time>2022-05-31T13:59:46.000Z</time>
      </trkpt>
      <trkpt lat="46.51884" lon="5.28731">
        <ele>197.80000305176</ele>
        <time>2022-05-31T13:59:48.000Z</time>
      </trkpt>
      <trkpt lat="46.51857" lon="5.28707">
        <ele>199</ele>
        <time>2022-05-31T13:59:53.000Z</time>
      </trkpt>
      <trkpt lat="46.51846" lon="5.28702">
        <ele>199.19999694824</ele>
        <time>2022-05-31T13:59:55.000Z</time>
      </trkpt>
      <trkpt lat="46.5182" lon="5.28692">
        <ele>199.39999389648</ele>
        <time>2022-05-31T13:59:59.000Z</time>
      </trkpt>
      <trkpt lat="46.51809" lon="5.2869">
        <ele>199.60000610352</ele>
        <time>2022-05-31T14:00:01.000Z</time>
      </trkpt>
      <trkpt lat="46.5179" lon="5.2869">
        <ele>200</ele>
        <time>2022-05-31T14:00:04.000Z</time>
      </trkpt>
      <trkpt lat="46.51784" lon="5.28689">
        <ele>200</ele>
        <time>2022-05-31T14:00:05.000Z</time>
      </trkpt>
      <trkpt lat="46.51772" lon="5.28684">
        <ele>200.19999694824</ele>
        <time>2022-05-31T14:00:07.000Z</time>
      </trkpt>
      <trkpt lat="46.51726" lon="5.28648">
        <ele>200.60000610352</ele>
        <time>2022-05-31T14:00:15.000Z</time>
      </trkpt>
      <trkpt lat="46.51712" lon="5.28643">
        <ele>200.60000610352</ele>
        <time>2022-05-31T14:00:17.000Z</time>
      </trkpt>
      <trkpt lat="46.51699" lon="5.28642">
        <ele>200.80000305176</ele>
        <time>2022-05-31T14:00:19.000Z</time>
      </trkpt>
      <trkpt lat="46.51642" lon="5.2865">
        <ele>200.39999389648</ele>
        <time>2022-05-31T14:00:27.000Z</time>
      </trkpt>
      <trkpt lat="46.51611" lon="5.28655">
        <ele>199.80000305176</ele>
        <time>2022-05-31T14:00:31.000Z</time>
      </trkpt>
      <trkpt lat="46.51594" lon="5.28663">
        <ele>199.19999694824</ele>
        <time>2022-05-31T14:00:33.000Z</time>
      </trkpt>
      <trkpt lat="46.51581" lon="5.28678">
        <ele>198.39999389648</ele>
        <time>2022-05-31T14:00:35.000Z</time>
      </trkpt>
      <trkpt lat="46.51576" lon="5.28687">
        <ele>198.19999694824</ele>
        <time>2022-05-31T14:00:36.000Z</time>
      </trkpt>
      <trkpt lat="46.51561" lon="5.28717">
        <ele>197.19999694824</ele>
        <time>2022-05-31T14:00:39.000Z</time>
      </trkpt>
      <trkpt lat="46.51539" lon="5.28757">
        <ele>196.60000610352</ele>
        <time>2022-05-31T14:00:43.000Z</time>
      </trkpt>
      <trkpt lat="46.51523" lon="5.28786">
        <ele>196</ele>
        <time>2022-05-31T14:00:46.000Z</time>
      </trkpt>
      <trkpt lat="46.51509" lon="5.28815">
        <ele>195.39999389648</ele>
        <time>2022-05-31T14:00:49.000Z</time>
      </trkpt>
      <trkpt lat="46.51502" lon="5.28849">
        <ele>195.19999694824</ele>
        <time>2022-05-31T14:00:52.000Z</time>
      </trkpt>
      <trkpt lat="46.51488" lon="5.28928">
        <ele>195</ele>
        <time>2022-05-31T14:00:59.000Z</time>
      </trkpt>
      <trkpt lat="46.51484" lon="5.2895">
        <ele>195</ele>
        <time>2022-05-31T14:01:01.000Z</time>
      </trkpt>
      <trkpt lat="46.51475" lon="5.29006">
        <ele>195</ele>
        <time>2022-05-31T14:01:07.000Z</time>
      </trkpt>
      <trkpt lat="46.51465" lon="5.29067">
        <ele>195.80000305176</ele>
        <time>2022-05-31T14:01:13.000Z</time>
      </trkpt>
      <trkpt lat="46.5145" lon="5.29149">
        <ele>196.19999694824</ele>
        <time>2022-05-31T14:01:22.000Z</time>
      </trkpt>
      <trkpt lat="46.51448" lon="5.29158">
        <ele>196.19999694824</ele>
        <time>2022-05-31T14:01:23.000Z</time>
      </trkpt>
      <trkpt lat="46.51434" lon="5.29211">
        <ele>196.39999389648</ele>
        <time>2022-05-31T14:01:29.000Z</time>
      </trkpt>
      <trkpt lat="46.5143" lon="5.29218">
        <ele>196.39999389648</ele>
        <time>2022-05-31T14:01:30.000Z</time>
      </trkpt>
      <trkpt lat="46.51404" lon="5.29258">
        <ele>197</ele>
        <time>2022-05-31T14:01:36.000Z</time>
      </trkpt>
      <trkpt lat="46.51387" lon="5.29288">
        <ele>197.19999694824</ele>
        <time>2022-05-31T14:01:40.000Z</time>
      </trkpt>
      <trkpt lat="46.51379" lon="5.29304">
        <ele>197.19999694824</ele>
        <time>2022-05-31T14:01:42.000Z</time>
      </trkpt>
      <trkpt lat="46.5137" lon="5.29319">
        <ele>197.19999694824</ele>
        <time>2022-05-31T14:01:44.000Z</time>
      </trkpt>
      <trkpt lat="46.51348" lon="5.29345">
        <ele>197</ele>
        <time>2022-05-31T14:01:48.000Z</time>
      </trkpt>
      <trkpt lat="46.51342" lon="5.2935">
        <ele>196.80000305176</ele>
        <time>2022-05-31T14:01:49.000Z</time>
      </trkpt>
      <trkpt lat="46.51314" lon="5.29367">
        <ele>196.39999389648</ele>
        <time>2022-05-31T14:01:53.000Z</time>
      </trkpt>
      <trkpt lat="46.51259" lon="5.29395">
        <ele>196.19999694824</ele>
        <time>2022-05-31T14:02:02.000Z</time>
      </trkpt>
      <trkpt lat="46.51222" lon="5.29403">
        <ele>196.19999694824</ele>
        <time>2022-05-31T14:02:08.000Z</time>
      </trkpt>
      <trkpt lat="46.51178" lon="5.29414">
        <ele>196</ele>
        <time>2022-05-31T14:02:16.000Z</time>
      </trkpt>
      <trkpt lat="46.51127" lon="5.29429">
        <ele>197</ele>
        <time>2022-05-31T14:02:25.000Z</time>
      </trkpt>
      <trkpt lat="46.51074" lon="5.29445">
        <ele>196.80000305176</ele>
        <time>2022-05-31T14:02:34.000Z</time>
      </trkpt>
      <trkpt lat="46.51026" lon="5.29473">
        <ele>197.80000305176</ele>
        <time>2022-05-31T14:02:43.000Z</time>
      </trkpt>
      <trkpt lat="46.51016" lon="5.2948">
        <ele>198</ele>
        <time>2022-05-31T14:02:45.000Z</time>
      </trkpt>
      <trkpt lat="46.50998" lon="5.29495">
        <ele>198.80000305176</ele>
        <time>2022-05-31T14:02:49.000Z</time>
      </trkpt>
      <trkpt lat="46.50985" lon="5.29505">
        <ele>199.19999694824</ele>
        <time>2022-05-31T14:02:52.000Z</time>
      </trkpt>
      <trkpt lat="46.50973" lon="5.29514">
        <ele>199.60000610352</ele>
        <time>2022-05-31T14:02:55.000Z</time>
      </trkpt>
      <trkpt lat="46.50965" lon="5.29519">
        <ele>200</ele>
        <time>2022-05-31T14:02:57.000Z</time>
      </trkpt>
      <trkpt lat="46.50962" lon="5.29522">
        <ele>200.19999694824</ele>
        <time>2022-05-31T14:02:58.000Z</time>
      </trkpt>
      <trkpt lat="46.50943" lon="5.29536">
        <ele>201.39999389648</ele>
        <time>2022-05-31T14:03:03.000Z</time>
      </trkpt>
      <trkpt lat="46.50935" lon="5.29542">
        <ele>202</ele>
        <time>2022-05-31T14:03:05.000Z</time>
      </trkpt>
      <trkpt lat="46.50932" lon="5.29544">
        <ele>202.39999389648</ele>
        <time>2022-05-31T14:03:06.000Z</time>
      </trkpt>
      <trkpt lat="46.50929" lon="5.29547">
        <ele>202.60000610352</ele>
        <time>2022-05-31T14:03:07.000Z</time>
      </trkpt>
      <trkpt lat="46.50923" lon="5.29552">
        <ele>203.19999694824</ele>
        <time>2022-05-31T14:03:09.000Z</time>
      </trkpt>
      <trkpt lat="46.50916" lon="5.29557">
        <ele>203.60000610352</ele>
        <time>2022-05-31T14:03:11.000Z</time>
      </trkpt>
      <trkpt lat="46.509" lon="5.29563">
        <ele>205</ele>
        <time>2022-05-31T14:03:15.000Z</time>
      </trkpt>
      <trkpt lat="46.50897" lon="5.29564">
        <ele>205.19999694824</ele>
        <time>2022-05-31T14:03:16.000Z</time>
      </trkpt>
      <trkpt lat="46.5088" lon="5.29567">
        <ele>206.39999389648</ele>
        <time>2022-05-31T14:03:20.000Z</time>
      </trkpt>
      <trkpt lat="46.50867" lon="5.29567">
        <ele>206.80000305176</ele>
        <time>2022-05-31T14:03:23.000Z</time>
      </trkpt>
      <trkpt lat="46.50864" lon="5.29566">
        <ele>207.39999389648</ele>
        <time>2022-05-31T14:03:24.000Z</time>
      </trkpt>
      <trkpt lat="46.50852" lon="5.29565">
        <ele>208.39999389648</ele>
        <time>2022-05-31T14:03:27.000Z</time>
      </trkpt>
      <trkpt lat="46.50831" lon="5.29564">
        <ele>209.39999389648</ele>
        <time>2022-05-31T14:03:32.000Z</time>
      </trkpt>
      <trkpt lat="46.50803" lon="5.29562">
        <ele>210.39999389648</ele>
        <time>2022-05-31T14:03:39.000Z</time>
      </trkpt>
      <trkpt lat="46.50786" lon="5.29562">
        <ele>211.60000610352</ele>
        <time>2022-05-31T14:03:43.000Z</time>
      </trkpt>
      <trkpt lat="46.50782" lon="5.29562">
        <ele>211.60000610352</ele>
        <time>2022-05-31T14:03:44.000Z</time>
      </trkpt>
      <trkpt lat="46.50762" lon="5.2956">
        <ele>212.39999389648</ele>
        <time>2022-05-31T14:03:49.000Z</time>
      </trkpt>
      <trkpt lat="46.50758" lon="5.2956">
        <ele>212.60000610352</ele>
        <time>2022-05-31T14:03:50.000Z</time>
      </trkpt>
      <trkpt lat="46.50742" lon="5.29555">
        <ele>213.80000305176</ele>
        <time>2022-05-31T14:03:54.000Z</time>
      </trkpt>
      <trkpt lat="46.50738" lon="5.29554">
        <ele>214</ele>
        <time>2022-05-31T14:03:55.000Z</time>
      </trkpt>
      <trkpt lat="46.50717" lon="5.29544">
        <ele>214.80000305176</ele>
        <time>2022-05-31T14:04:00.000Z</time>
      </trkpt>
      <trkpt lat="46.50701" lon="5.29537">
        <ele>216</ele>
        <time>2022-05-31T14:04:04.000Z</time>
      </trkpt>
      <trkpt lat="46.50685" lon="5.29529">
        <ele>217.19999694824</ele>
        <time>2022-05-31T14:04:08.000Z</time>
      </trkpt>
      <trkpt lat="46.50667" lon="5.29524">
        <ele>217.60000610352</ele>
        <time>2022-05-31T14:04:12.000Z</time>
      </trkpt>
      <trkpt lat="46.50653" lon="5.29523">
        <ele>218</ele>
        <time>2022-05-31T14:04:15.000Z</time>
      </trkpt>
      <trkpt lat="46.50644" lon="5.29525">
        <ele>218.39999389648</ele>
        <time>2022-05-31T14:04:17.000Z</time>
      </trkpt>
      <trkpt lat="46.5064" lon="5.29527">
        <ele>218.60000610352</ele>
        <time>2022-05-31T14:04:18.000Z</time>
      </trkpt>
      <trkpt lat="46.50626" lon="5.29536">
        <ele>219</ele>
        <time>2022-05-31T14:04:21.000Z</time>
      </trkpt>
      <trkpt lat="46.50612" lon="5.29546">
        <ele>219.39999389648</ele>
        <time>2022-05-31T14:04:24.000Z</time>
      </trkpt>
      <trkpt lat="46.50608" lon="5.2955">
        <ele>219.80000305176</ele>
        <time>2022-05-31T14:04:25.000Z</time>
      </trkpt>
      <trkpt lat="46.50572" lon="5.29577">
        <ele>220.39999389648</ele>
        <time>2022-05-31T14:04:32.000Z</time>
      </trkpt>
      <trkpt lat="46.50557" lon="5.29589">
        <ele>220.60000610352</ele>
        <time>2022-05-31T14:04:35.000Z</time>
      </trkpt>
      <trkpt lat="46.5052" lon="5.29616">
        <ele>220.39999389648</ele>
        <time>2022-05-31T14:04:42.000Z</time>
      </trkpt>
      <trkpt lat="46.50467" lon="5.29653">
        <ele>220.19999694824</ele>
        <time>2022-05-31T14:04:51.000Z</time>
      </trkpt>
      <trkpt lat="46.50461" lon="5.29657">
        <ele>220.19999694824</ele>
        <time>2022-05-31T14:04:52.000Z</time>
      </trkpt>
      <trkpt lat="46.50441" lon="5.2967">
        <ele>220.19999694824</ele>
        <time>2022-05-31T14:04:55.000Z</time>
      </trkpt>
      <trkpt lat="46.50399" lon="5.29699">
        <ele>220.60000610352</ele>
        <time>2022-05-31T14:05:02.000Z</time>
      </trkpt>
      <trkpt lat="46.50352" lon="5.29724">
        <ele>220.80000305176</ele>
        <time>2022-05-31T14:05:10.000Z</time>
      </trkpt>
      <trkpt lat="46.50299" lon="5.29746">
        <ele>220.60000610352</ele>
        <time>2022-05-31T14:05:18.000Z</time>
      </trkpt>
      <trkpt lat="46.50286" lon="5.29753">
        <ele>220.39999389648</ele>
        <time>2022-05-31T14:05:20.000Z</time>
      </trkpt>
      <trkpt lat="46.50234" lon="5.29768">
        <ele>220.19999694824</ele>
        <time>2022-05-31T14:05:27.000Z</time>
      </trkpt>
      <trkpt lat="46.50195" lon="5.29767">
        <ele>219.80000305176</ele>
        <time>2022-05-31T14:05:32.000Z</time>
      </trkpt>
      <trkpt lat="46.50167" lon="5.29766">
        <ele>219.39999389648</ele>
        <time>2022-05-31T14:05:36.000Z</time>
      </trkpt>
      <trkpt lat="46.50145" lon="5.2977">
        <ele>219.19999694824</ele>
        <time>2022-05-31T14:05:39.000Z</time>
      </trkpt>
      <trkpt lat="46.50104" lon="5.29782">
        <ele>218.39999389648</ele>
        <time>2022-05-31T14:05:44.000Z</time>
      </trkpt>
      <trkpt lat="46.50096" lon="5.29785">
        <ele>218.19999694824</ele>
        <time>2022-05-31T14:05:45.000Z</time>
      </trkpt>
      <trkpt lat="46.50055" lon="5.29803">
        <ele>216.60000610352</ele>
        <time>2022-05-31T14:05:50.000Z</time>
      </trkpt>
      <trkpt lat="46.50041" lon="5.29815">
        <ele>216.19999694824</ele>
        <time>2022-05-31T14:05:52.000Z</time>
      </trkpt>
      <trkpt lat="46.50032" lon="5.29829">
        <ele>216</ele>
        <time>2022-05-31T14:05:54.000Z</time>
      </trkpt>
      <trkpt lat="46.50026" lon="5.29838">
        <ele>215.60000610352</ele>
        <time>2022-05-31T14:05:55.000Z</time>
      </trkpt>
      <trkpt lat="46.50018" lon="5.29852">
        <ele>215</ele>
        <time>2022-05-31T14:05:57.000Z</time>
      </trkpt>
      <trkpt lat="46.50017" lon="5.29858">
        <ele>214.80000305176</ele>
        <time>2022-05-31T14:05:58.000Z</time>
      </trkpt>
      <trkpt lat="46.50018" lon="5.29866">
        <ele>214.80000305176</ele>
        <time>2022-05-31T14:05:59.000Z</time>
      </trkpt>
      <trkpt lat="46.50021" lon="5.29873">
        <ele>214.60000610352</ele>
        <time>2022-05-31T14:06:00.000Z</time>
      </trkpt>
      <trkpt lat="46.50025" lon="5.2988">
        <ele>214.39999389648</ele>
        <time>2022-05-31T14:06:01.000Z</time>
      </trkpt>
      <trkpt lat="46.50053" lon="5.29915">
        <ele>214.19999694824</ele>
        <time>2022-05-31T14:06:06.000Z</time>
      </trkpt>
      <trkpt lat="46.50075" lon="5.29968">
        <ele>214.19999694824</ele>
        <time>2022-05-31T14:06:11.000Z</time>
      </trkpt>
      <trkpt lat="46.50083" lon="5.30015">
        <ele>214.60000610352</ele>
        <time>2022-05-31T14:06:15.000Z</time>
      </trkpt>
      <trkpt lat="46.50084" lon="5.30027">
        <ele>214.80000305176</ele>
        <time>2022-05-31T14:06:16.000Z</time>
      </trkpt>
      <trkpt lat="46.50085" lon="5.30108">
        <ele>215.60000610352</ele>
        <time>2022-05-31T14:06:23.000Z</time>
      </trkpt>
      <trkpt lat="46.50085" lon="5.30119">
        <ele>215.60000610352</ele>
        <time>2022-05-31T14:06:24.000Z</time>
      </trkpt>
      <trkpt lat="46.50086" lon="5.30204">
        <ele>215.60000610352</ele>
        <time>2022-05-31T14:06:31.000Z</time>
      </trkpt>
      <trkpt lat="46.50085" lon="5.30269">
        <ele>215</ele>
        <time>2022-05-31T14:06:37.000Z</time>
      </trkpt>
      <trkpt lat="46.50076" lon="5.30326">
        <ele>214.39999389648</ele>
        <time>2022-05-31T14:06:42.000Z</time>
      </trkpt>
      <trkpt lat="46.50072" lon="5.30339">
        <ele>214.39999389648</ele>
        <time>2022-05-31T14:06:43.000Z</time>
      </trkpt>
      <trkpt lat="46.50062" lon="5.3036">
        <ele>214.19999694824</ele>
        <time>2022-05-31T14:06:45.000Z</time>
      </trkpt>
      <trkpt lat="46.50044" lon="5.30388">
        <ele>213</ele>
        <time>2022-05-31T14:06:48.000Z</time>
      </trkpt>
      <trkpt lat="46.50031" lon="5.30402">
        <ele>212.80000305176</ele>
        <time>2022-05-31T14:06:50.000Z</time>
      </trkpt>
      <trkpt lat="46.49997" lon="5.30428">
        <ele>212</ele>
        <time>2022-05-31T14:06:55.000Z</time>
      </trkpt>
      <trkpt lat="46.49972" lon="5.30449">
        <ele>212</ele>
        <time>2022-05-31T14:07:00.000Z</time>
      </trkpt>
      <trkpt lat="46.49956" lon="5.30473">
        <ele>212.39999389648</ele>
        <time>2022-05-31T14:07:04.000Z</time>
      </trkpt>
      <trkpt lat="46.4995" lon="5.30486">
        <ele>212.60000610352</ele>
        <time>2022-05-31T14:07:06.000Z</time>
      </trkpt>
      <trkpt lat="46.49942" lon="5.30505">
        <ele>213.19999694824</ele>
        <time>2022-05-31T14:07:09.000Z</time>
      </trkpt>
      <trkpt lat="46.49935" lon="5.30528">
        <ele>214.39999389648</ele>
        <time>2022-05-31T14:07:12.000Z</time>
      </trkpt>
      <trkpt lat="46.4993" lon="5.3057">
        <ele>215.60000610352</ele>
        <time>2022-05-31T14:07:18.000Z</time>
      </trkpt>
      <trkpt lat="46.4993" lon="5.30578">
        <ele>215.80000305176</ele>
        <time>2022-05-31T14:07:19.000Z</time>
      </trkpt>
      <trkpt lat="46.4993" lon="5.30602">
        <ele>216.19999694824</ele>
        <time>2022-05-31T14:07:22.000Z</time>
      </trkpt>
      <trkpt lat="46.49933" lon="5.30624">
        <ele>216.39999389648</ele>
        <time>2022-05-31T14:07:25.000Z</time>
      </trkpt>
      <trkpt lat="46.49934" lon="5.3063">
        <ele>216.60000610352</ele>
        <time>2022-05-31T14:07:26.000Z</time>
      </trkpt>
      <trkpt lat="46.49942" lon="5.3068">
        <ele>217</ele>
        <time>2022-05-31T14:07:33.000Z</time>
      </trkpt>
      <trkpt lat="46.49947" lon="5.30703">
        <ele>217.80000305176</ele>
        <time>2022-05-31T14:07:36.000Z</time>
      </trkpt>
      <trkpt lat="46.49954" lon="5.30738">
        <ele>218.80000305176</ele>
        <time>2022-05-31T14:07:41.000Z</time>
      </trkpt>
      <trkpt lat="46.49956" lon="5.30746">
        <ele>219</ele>
        <time>2022-05-31T14:07:42.000Z</time>
      </trkpt>
      <trkpt lat="46.49965" lon="5.30792">
        <ele>219.80000305176</ele>
        <time>2022-05-31T14:07:47.000Z</time>
      </trkpt>
      <trkpt lat="46.49967" lon="5.30802">
        <ele>220</ele>
        <time>2022-05-31T14:07:48.000Z</time>
      </trkpt>
      <trkpt lat="46.49982" lon="5.30853">
        <ele>220.39999389648</ele>
        <time>2022-05-31T14:07:53.000Z</time>
      </trkpt>
      <trkpt lat="46.50002" lon="5.30907">
        <ele>219.60000610352</ele>
        <time>2022-05-31T14:07:58.000Z</time>
      </trkpt>
      <trkpt lat="46.50015" lon="5.30943">
        <ele>219</ele>
        <time>2022-05-31T14:08:01.000Z</time>
      </trkpt>
      <trkpt lat="46.50029" lon="5.30983">
        <ele>218.19999694824</ele>
        <time>2022-05-31T14:08:04.000Z</time>
      </trkpt>
      <trkpt lat="46.50034" lon="5.30996">
        <ele>218</ele>
        <time>2022-05-31T14:08:05.000Z</time>
      </trkpt>
      <trkpt lat="46.50052" lon="5.31051">
        <ele>216.60000610352</ele>
        <time>2022-05-31T14:08:09.000Z</time>
      </trkpt>
      <trkpt lat="46.50057" lon="5.31066">
        <ele>215.80000305176</ele>
        <time>2022-05-31T14:08:10.000Z</time>
      </trkpt>
      <trkpt lat="46.50063" lon="5.31084">
        <ele>215.39999389648</ele>
        <time>2022-05-31T14:08:11.000Z</time>
      </trkpt>
      <trkpt lat="46.50074" lon="5.31115">
        <ele>214</ele>
        <time>2022-05-31T14:08:13.000Z</time>
      </trkpt>
      <trkpt lat="46.50084" lon="5.31146">
        <ele>213</ele>
        <time>2022-05-31T14:08:15.000Z</time>
      </trkpt>
      <trkpt lat="46.50094" lon="5.31175">
        <ele>211</ele>
        <time>2022-05-31T14:08:17.000Z</time>
      </trkpt>
      <trkpt lat="46.50107" lon="5.31213">
        <ele>210</ele>
        <time>2022-05-31T14:08:20.000Z</time>
      </trkpt>
      <trkpt lat="46.50117" lon="5.31238">
        <ele>209.60000610352</ele>
        <time>2022-05-31T14:08:22.000Z</time>
      </trkpt>
      <trkpt lat="46.50142" lon="5.31311">
        <ele>210</ele>
        <time>2022-05-31T14:08:28.000Z</time>
      </trkpt>
      <trkpt lat="46.50168" lon="5.31386">
        <ele>210.80000305176</ele>
        <time>2022-05-31T14:08:34.000Z</time>
      </trkpt>
      <trkpt lat="46.50177" lon="5.31412">
        <ele>210.80000305176</ele>
        <time>2022-05-31T14:08:36.000Z</time>
      </trkpt>
      <trkpt lat="46.50186" lon="5.31439">
        <ele>210.80000305176</ele>
        <time>2022-05-31T14:08:38.000Z</time>
      </trkpt>
      <trkpt lat="46.50215" lon="5.31521">
        <ele>209.39999389648</ele>
        <time>2022-05-31T14:08:44.000Z</time>
      </trkpt>
      <trkpt lat="46.50228" lon="5.31547">
        <ele>208.80000305176</ele>
        <time>2022-05-31T14:08:46.000Z</time>
      </trkpt>
      <trkpt lat="46.50244" lon="5.3157">
        <ele>207.80000305176</ele>
        <time>2022-05-31T14:08:48.000Z</time>
      </trkpt>
      <trkpt lat="46.50252" lon="5.3158">
        <ele>207.60000610352</ele>
        <time>2022-05-31T14:08:49.000Z</time>
      </trkpt>
      <trkpt lat="46.50279" lon="5.31605">
        <ele>206.60000610352</ele>
        <time>2022-05-31T14:08:52.000Z</time>
      </trkpt>
      <trkpt lat="46.50288" lon="5.31612">
        <ele>206.19999694824</ele>
        <time>2022-05-31T14:08:53.000Z</time>
      </trkpt>
      <trkpt lat="46.50324" lon="5.3164">
        <ele>205.19999694824</ele>
        <time>2022-05-31T14:08:57.000Z</time>
      </trkpt>
      <trkpt lat="46.50331" lon="5.31645">
        <ele>204.80000305176</ele>
        <time>2022-05-31T14:08:58.000Z</time>
      </trkpt>
      <trkpt lat="46.5037" lon="5.31681">
        <ele>204</ele>
        <time>2022-05-31T14:09:03.000Z</time>
      </trkpt>
      <trkpt lat="46.50392" lon="5.31719">
        <ele>203.80000305176</ele>
        <time>2022-05-31T14:09:07.000Z</time>
      </trkpt>
      <trkpt lat="46.50412" lon="5.31772">
        <ele>204</ele>
        <time>2022-05-31T14:09:12.000Z</time>
      </trkpt>
      <trkpt lat="46.50429" lon="5.31841">
        <ele>204.60000610352</ele>
        <time>2022-05-31T14:09:18.000Z</time>
      </trkpt>
      <trkpt lat="46.50435" lon="5.31909">
        <ele>204.60000610352</ele>
        <time>2022-05-31T14:09:24.000Z</time>
      </trkpt>
      <trkpt lat="46.50433" lon="5.31991">
        <ele>204.60000610352</ele>
        <time>2022-05-31T14:09:31.000Z</time>
      </trkpt>
      <trkpt lat="46.50433" lon="5.32">
        <ele>204.60000610352</ele>
        <time>2022-05-31T14:09:32.000Z</time>
      </trkpt>
      <trkpt lat="46.50431" lon="5.32091">
        <ele>205</ele>
        <time>2022-05-31T14:09:40.000Z</time>
      </trkpt>
      <trkpt lat="46.50431" lon="5.32099">
        <ele>205</ele>
        <time>2022-05-31T14:09:41.000Z</time>
      </trkpt>
      <trkpt lat="46.50429" lon="5.32161">
        <ele>205.80000305176</ele>
        <time>2022-05-31T14:09:47.000Z</time>
      </trkpt>
      <trkpt lat="46.50428" lon="5.32191">
        <ele>206.39999389648</ele>
        <time>2022-05-31T14:09:50.000Z</time>
      </trkpt>
      <trkpt lat="46.50428" lon="5.32222">
        <ele>206.80000305176</ele>
        <time>2022-05-31T14:09:53.000Z</time>
      </trkpt>
      <trkpt lat="46.5043" lon="5.32279">
        <ele>207.80000305176</ele>
        <time>2022-05-31T14:09:59.000Z</time>
      </trkpt>
      <trkpt lat="46.50442" lon="5.32344">
        <ele>208.39999389648</ele>
        <time>2022-05-31T14:10:06.000Z</time>
      </trkpt>
      <trkpt lat="46.50458" lon="5.3242">
        <ele>208.19999694824</ele>
        <time>2022-05-31T14:10:13.000Z</time>
      </trkpt>
      <trkpt lat="46.5046" lon="5.32429">
        <ele>208.19999694824</ele>
        <time>2022-05-31T14:10:14.000Z</time>
      </trkpt>
      <trkpt lat="46.50468" lon="5.32494">
        <ele>208.19999694824</ele>
        <time>2022-05-31T14:10:20.000Z</time>
      </trkpt>
      <trkpt lat="46.50471" lon="5.32563">
        <ele>208.80000305176</ele>
        <time>2022-05-31T14:10:27.000Z</time>
      </trkpt>
      <trkpt lat="46.50473" lon="5.32594">
        <ele>209</ele>
        <time>2022-05-31T14:10:30.000Z</time>
      </trkpt>
      <trkpt lat="46.50473" lon="5.32623">
        <ele>209.19999694824</ele>
        <time>2022-05-31T14:10:33.000Z</time>
      </trkpt>
      <trkpt lat="46.50474" lon="5.32659">
        <ele>209.60000610352</ele>
        <time>2022-05-31T14:10:37.000Z</time>
      </trkpt>
      <trkpt lat="46.50474" lon="5.32678">
        <ele>210</ele>
        <time>2022-05-31T14:10:39.000Z</time>
      </trkpt>
      <trkpt lat="46.50472" lon="5.32752">
        <ele>210.80000305176</ele>
        <time>2022-05-31T14:10:47.000Z</time>
      </trkpt>
      <trkpt lat="46.50471" lon="5.32781">
        <ele>211</ele>
        <time>2022-05-31T14:10:50.000Z</time>
      </trkpt>
      <trkpt lat="46.50471" lon="5.32829">
        <ele>211.39999389648</ele>
        <time>2022-05-31T14:10:55.000Z</time>
      </trkpt>
      <trkpt lat="46.5047" lon="5.32865">
        <ele>212</ele>
        <time>2022-05-31T14:10:59.000Z</time>
      </trkpt>
      <trkpt lat="46.5047" lon="5.32889">
        <ele>212.39999389648</ele>
        <time>2022-05-31T14:11:02.000Z</time>
      </trkpt>
      <trkpt lat="46.50469" lon="5.32925">
        <ele>213.19999694824</ele>
        <time>2022-05-31T14:11:07.000Z</time>
      </trkpt>
      <trkpt lat="46.50469" lon="5.3294">
        <ele>213.80000305176</ele>
        <time>2022-05-31T14:11:09.000Z</time>
      </trkpt>
      <trkpt lat="46.50469" lon="5.3296">
        <ele>214.19999694824</ele>
        <time>2022-05-31T14:11:12.000Z</time>
      </trkpt>
      <trkpt lat="46.50468" lon="5.33003">
        <ele>215</ele>
        <time>2022-05-31T14:11:18.000Z</time>
      </trkpt>
      <trkpt lat="46.50468" lon="5.3301">
        <ele>215.39999389648</ele>
        <time>2022-05-31T14:11:19.000Z</time>
      </trkpt>
      <trkpt lat="46.50467" lon="5.33047">
        <ele>216.19999694824</ele>
        <time>2022-05-31T14:11:24.000Z</time>
      </trkpt>
      <trkpt lat="46.50467" lon="5.33075">
        <ele>217.19999694824</ele>
        <time>2022-05-31T14:11:28.000Z</time>
      </trkpt>
      <trkpt lat="46.50467" lon="5.33105">
        <ele>218.60000610352</ele>
        <time>2022-05-31T14:11:32.000Z</time>
      </trkpt>
      <trkpt lat="46.50467" lon="5.33119">
        <ele>219.60000610352</ele>
        <time>2022-05-31T14:11:34.000Z</time>
      </trkpt>
      <trkpt lat="46.50467" lon="5.33133">
        <ele>220.39999389648</ele>
        <time>2022-05-31T14:11:36.000Z</time>
      </trkpt>
      <trkpt lat="46.50467" lon="5.33146">
        <ele>221</ele>
        <time>2022-05-31T14:11:38.000Z</time>
      </trkpt>
      <trkpt lat="46.50467" lon="5.33175">
        <ele>222</ele>
        <time>2022-05-31T14:11:42.000Z</time>
      </trkpt>
      <trkpt lat="46.50466" lon="5.33184">
        <ele>222.60000610352</ele>
        <time>2022-05-31T14:11:43.000Z</time>
      </trkpt>
      <trkpt lat="46.50465" lon="5.33224">
        <ele>223.60000610352</ele>
        <time>2022-05-31T14:11:48.000Z</time>
      </trkpt>
      <trkpt lat="46.50465" lon="5.33241">
        <ele>224.19999694824</ele>
        <time>2022-05-31T14:11:50.000Z</time>
      </trkpt>
      <trkpt lat="46.50465" lon="5.33258">
        <ele>224.39999389648</ele>
        <time>2022-05-31T14:11:52.000Z</time>
      </trkpt>
      <trkpt lat="46.50463" lon="5.33296">
        <ele>224.60000610352</ele>
        <time>2022-05-31T14:11:56.000Z</time>
      </trkpt>
      <trkpt lat="46.50463" lon="5.33306">
        <ele>224.60000610352</ele>
        <time>2022-05-31T14:11:57.000Z</time>
      </trkpt>
      <trkpt lat="46.50458" lon="5.33369">
        <ele>224.39999389648</ele>
        <time>2022-05-31T14:12:03.000Z</time>
      </trkpt>
      <trkpt lat="46.50448" lon="5.33408">
        <ele>224.19999694824</ele>
        <time>2022-05-31T14:12:07.000Z</time>
      </trkpt>
      <trkpt lat="46.50445" lon="5.33415">
        <ele>224</ele>
        <time>2022-05-31T14:12:08.000Z</time>
      </trkpt>
      <trkpt lat="46.50435" lon="5.33432">
        <ele>223.80000305176</ele>
        <time>2022-05-31T14:12:10.000Z</time>
      </trkpt>
      <trkpt lat="46.50421" lon="5.33452">
        <ele>223.80000305176</ele>
        <time>2022-05-31T14:12:13.000Z</time>
      </trkpt>
      <trkpt lat="46.50415" lon="5.3346">
        <ele>223.80000305176</ele>
        <time>2022-05-31T14:12:14.000Z</time>
      </trkpt>
      <trkpt lat="46.50404" lon="5.33471">
        <ele>224</ele>
        <time>2022-05-31T14:12:16.000Z</time>
      </trkpt>
      <trkpt lat="46.50399" lon="5.33477">
        <ele>224.19999694824</ele>
        <time>2022-05-31T14:12:17.000Z</time>
      </trkpt>
      <trkpt lat="46.50382" lon="5.33497">
        <ele>225</ele>
        <time>2022-05-31T14:12:20.000Z</time>
      </trkpt>
      <trkpt lat="46.50354" lon="5.33526">
        <ele>225.60000610352</ele>
        <time>2022-05-31T14:12:25.000Z</time>
      </trkpt>
      <trkpt lat="46.50315" lon="5.33567">
        <ele>226.39999389648</ele>
        <time>2022-05-31T14:12:32.000Z</time>
      </trkpt>
      <trkpt lat="46.50304" lon="5.33579">
        <ele>226.60000610352</ele>
        <time>2022-05-31T14:12:34.000Z</time>
      </trkpt>
      <trkpt lat="46.50278" lon="5.33606">
        <ele>227.19999694824</ele>
        <time>2022-05-31T14:12:39.000Z</time>
      </trkpt>
      <trkpt lat="46.5026" lon="5.33624">
        <ele>227.39999389648</ele>
        <time>2022-05-31T14:12:42.000Z</time>
      </trkpt>
      <trkpt lat="46.5025" lon="5.33635">
        <ele>227.60000610352</ele>
        <time>2022-05-31T14:12:44.000Z</time>
      </trkpt>
      <trkpt lat="46.50238" lon="5.33648">
        <ele>227.80000305176</ele>
        <time>2022-05-31T14:12:46.000Z</time>
      </trkpt>
      <trkpt lat="46.5021" lon="5.33676">
        <ele>227.80000305176</ele>
        <time>2022-05-31T14:12:51.000Z</time>
      </trkpt>
      <trkpt lat="46.50165" lon="5.33727">
        <ele>228.39999389648</ele>
        <time>2022-05-31T14:12:59.000Z</time>
      </trkpt>
      <trkpt lat="46.50158" lon="5.33734">
        <ele>228.60000610352</ele>
        <time>2022-05-31T14:13:00.000Z</time>
      </trkpt>
      <trkpt lat="46.50152" lon="5.33741">
        <ele>228.60000610352</ele>
        <time>2022-05-31T14:13:01.000Z</time>
      </trkpt>
      <trkpt lat="46.50125" lon="5.3377">
        <ele>228.39999389648</ele>
        <time>2022-05-31T14:13:05.000Z</time>
      </trkpt>
      <trkpt lat="46.50092" lon="5.33806">
        <ele>227.80000305176</ele>
        <time>2022-05-31T14:13:10.000Z</time>
      </trkpt>
      <trkpt lat="46.50049" lon="5.33853">
        <ele>227.80000305176</ele>
        <time>2022-05-31T14:13:17.000Z</time>
      </trkpt>
      <trkpt lat="46.50005" lon="5.339">
        <ele>229.39999389648</ele>
        <time>2022-05-31T14:13:25.000Z</time>
      </trkpt>
      <trkpt lat="46.49999" lon="5.33906">
        <ele>229.60000610352</ele>
        <time>2022-05-31T14:13:26.000Z</time>
      </trkpt>
      <trkpt lat="46.49989" lon="5.33916">
        <ele>230</ele>
        <time>2022-05-31T14:13:28.000Z</time>
      </trkpt>
      <trkpt lat="46.49971" lon="5.33935">
        <ele>230.39999389648</ele>
        <time>2022-05-31T14:13:31.000Z</time>
      </trkpt>
      <trkpt lat="46.49965" lon="5.33942">
        <ele>230.39999389648</ele>
        <time>2022-05-31T14:13:32.000Z</time>
      </trkpt>
      <trkpt lat="46.49946" lon="5.33963">
        <ele>230.60000610352</ele>
        <time>2022-05-31T14:13:35.000Z</time>
      </trkpt>
      <trkpt lat="46.49911" lon="5.34">
        <ele>230</ele>
        <time>2022-05-31T14:13:40.000Z</time>
      </trkpt>
      <trkpt lat="46.49904" lon="5.34007">
        <ele>229.80000305176</ele>
        <time>2022-05-31T14:13:41.000Z</time>
      </trkpt>
      <trkpt lat="46.49882" lon="5.34031">
        <ele>229.39999389648</ele>
        <time>2022-05-31T14:13:44.000Z</time>
      </trkpt>
      <trkpt lat="46.49848" lon="5.34073">
        <ele>228.19999694824</ele>
        <time>2022-05-31T14:13:49.000Z</time>
      </trkpt>
      <trkpt lat="46.49842" lon="5.34082">
        <ele>228</ele>
        <time>2022-05-31T14:13:50.000Z</time>
      </trkpt>
      <trkpt lat="46.4982" lon="5.34118">
        <ele>227.39999389648</ele>
        <time>2022-05-31T14:13:54.000Z</time>
      </trkpt>
      <trkpt lat="46.49816" lon="5.34126">
        <ele>227.39999389648</ele>
        <time>2022-05-31T14:13:55.000Z</time>
      </trkpt>
      <trkpt lat="46.49777" lon="5.3419">
        <ele>227.39999389648</ele>
        <time>2022-05-31T14:14:02.000Z</time>
      </trkpt>
      <trkpt lat="46.49772" lon="5.342">
        <ele>227.39999389648</ele>
        <time>2022-05-31T14:14:03.000Z</time>
      </trkpt>
      <trkpt lat="46.49734" lon="5.34262">
        <ele>227.39999389648</ele>
        <time>2022-05-31T14:14:10.000Z</time>
      </trkpt>
      <trkpt lat="46.49729" lon="5.34271">
        <ele>227.19999694824</ele>
        <time>2022-05-31T14:14:11.000Z</time>
      </trkpt>
      <trkpt lat="46.49706" lon="5.34317">
        <ele>227.19999694824</ele>
        <time>2022-05-31T14:14:16.000Z</time>
      </trkpt>
      <trkpt lat="46.497" lon="5.34338">
        <ele>227.19999694824</ele>
        <time>2022-05-31T14:14:18.000Z</time>
      </trkpt>
      <trkpt lat="46.49677" lon="5.34421">
        <ele>226.80000305176</ele>
        <time>2022-05-31T14:14:25.000Z</time>
      </trkpt>
      <trkpt lat="46.49664" lon="5.3447">
        <ele>226</ele>
        <time>2022-05-31T14:14:29.000Z</time>
      </trkpt>
      <trkpt lat="46.49651" lon="5.34519">
        <ele>224.80000305176</ele>
        <time>2022-05-31T14:14:33.000Z</time>
      </trkpt>
      <trkpt lat="46.49646" lon="5.3453">
        <ele>224.39999389648</ele>
        <time>2022-05-31T14:14:34.000Z</time>
      </trkpt>
      <trkpt lat="46.49633" lon="5.34548">
        <ele>224</ele>
        <time>2022-05-31T14:14:36.000Z</time>
      </trkpt>
      <trkpt lat="46.49625" lon="5.34556">
        <ele>224</ele>
        <time>2022-05-31T14:14:37.000Z</time>
      </trkpt>
      <trkpt lat="46.49618" lon="5.34563">
        <ele>223.80000305176</ele>
        <time>2022-05-31T14:14:38.000Z</time>
      </trkpt>
      <trkpt lat="46.49611" lon="5.34572">
        <ele>223.60000610352</ele>
        <time>2022-05-31T14:14:39.000Z</time>
      </trkpt>
      <trkpt lat="46.49593" lon="5.34595">
        <ele>222.80000305176</ele>
        <time>2022-05-31T14:14:42.000Z</time>
      </trkpt>
      <trkpt lat="46.49588" lon="5.34605">
        <ele>222.19999694824</ele>
        <time>2022-05-31T14:14:43.000Z</time>
      </trkpt>
      <trkpt lat="46.49576" lon="5.34623">
        <ele>222</ele>
        <time>2022-05-31T14:14:45.000Z</time>
      </trkpt>
      <trkpt lat="46.49566" lon="5.34636">
        <ele>221.80000305176</ele>
        <time>2022-05-31T14:14:47.000Z</time>
      </trkpt>
      <trkpt lat="46.4954" lon="5.34667">
        <ele>222.80000305176</ele>
        <time>2022-05-31T14:14:52.000Z</time>
      </trkpt>
      <trkpt lat="46.49536" lon="5.34672">
        <ele>223.19999694824</ele>
        <time>2022-05-31T14:14:53.000Z</time>
      </trkpt>
      <trkpt lat="46.4952" lon="5.34692">
        <ele>224.19999694824</ele>
        <time>2022-05-31T14:14:57.000Z</time>
      </trkpt>
      <trkpt lat="46.49516" lon="5.34697">
        <ele>224.39999389648</ele>
        <time>2022-05-31T14:14:58.000Z</time>
      </trkpt>
      <trkpt lat="46.49509" lon="5.34704">
        <ele>224.80000305176</ele>
        <time>2022-05-31T14:15:00.000Z</time>
      </trkpt>
      <trkpt lat="46.49496" lon="5.34716">
        <ele>225</ele>
        <time>2022-05-31T14:15:03.000Z</time>
      </trkpt>
      <trkpt lat="46.49492" lon="5.3472">
        <ele>225.60000610352</ele>
        <time>2022-05-31T14:15:04.000Z</time>
      </trkpt>
      <trkpt lat="46.49479" lon="5.34734">
        <ele>226.39999389648</ele>
        <time>2022-05-31T14:15:08.000Z</time>
      </trkpt>
      <trkpt lat="46.49476" lon="5.34736">
        <ele>226.60000610352</ele>
        <time>2022-05-31T14:15:09.000Z</time>
      </trkpt>
      <trkpt lat="46.49462" lon="5.3475">
        <ele>227.60000610352</ele>
        <time>2022-05-31T14:15:13.000Z</time>
      </trkpt>
      <trkpt lat="46.49447" lon="5.34767">
        <ele>229.19999694824</ele>
        <time>2022-05-31T14:15:18.000Z</time>
      </trkpt>
      <trkpt lat="46.49433" lon="5.34779">
        <ele>230.39999389648</ele>
        <time>2022-05-31T14:15:22.000Z</time>
      </trkpt>
      <trkpt lat="46.49429" lon="5.34781">
        <ele>230.80000305176</ele>
        <time>2022-05-31T14:15:23.000Z</time>
      </trkpt>
      <trkpt lat="46.49413" lon="5.34798">
        <ele>231.60000610352</ele>
        <time>2022-05-31T14:15:27.000Z</time>
      </trkpt>
      <trkpt lat="46.49408" lon="5.34802">
        <ele>231.80000305176</ele>
        <time>2022-05-31T14:15:28.000Z</time>
      </trkpt>
      <trkpt lat="46.49392" lon="5.34817">
        <ele>232.39999389648</ele>
        <time>2022-05-31T14:15:31.000Z</time>
      </trkpt>
      <trkpt lat="46.49387" lon="5.34819">
        <ele>232.60000610352</ele>
        <time>2022-05-31T14:15:32.000Z</time>
      </trkpt>
      <trkpt lat="46.49382" lon="5.34821">
        <ele>232.60000610352</ele>
        <time>2022-05-31T14:15:33.000Z</time>
      </trkpt>
      <trkpt lat="46.49378" lon="5.34822">
        <ele>232.80000305176</ele>
        <time>2022-05-31T14:15:34.000Z</time>
      </trkpt>
      <trkpt lat="46.49366" lon="5.34825">
        <ele>233</ele>
        <time>2022-05-31T14:15:36.000Z</time>
      </trkpt>
      <trkpt lat="46.49352" lon="5.34828">
        <ele>233.19999694824</ele>
        <time>2022-05-31T14:15:38.000Z</time>
      </trkpt>
      <trkpt lat="46.49324" lon="5.34833">
        <ele>233.39999389648</ele>
        <time>2022-05-31T14:15:42.000Z</time>
      </trkpt>
      <trkpt lat="46.49318" lon="5.34834">
        <ele>233.60000610352</ele>
        <time>2022-05-31T14:15:43.000Z</time>
      </trkpt>
      <trkpt lat="46.49304" lon="5.34837">
        <ele>233.60000610352</ele>
        <time>2022-05-31T14:15:45.000Z</time>
      </trkpt>
      <trkpt lat="46.49297" lon="5.34841">
        <ele>233.80000305176</ele>
        <time>2022-05-31T14:15:46.000Z</time>
      </trkpt>
      <trkpt lat="46.49291" lon="5.34846">
        <ele>233.80000305176</ele>
        <time>2022-05-31T14:15:47.000Z</time>
      </trkpt>
      <trkpt lat="46.49275" lon="5.34857">
        <ele>233.39999389648</ele>
        <time>2022-05-31T14:15:50.000Z</time>
      </trkpt>
      <trkpt lat="46.49263" lon="5.34869">
        <ele>233.19999694824</ele>
        <time>2022-05-31T14:15:52.000Z</time>
      </trkpt>
      <trkpt lat="46.49254" lon="5.34882">
        <ele>233.19999694824</ele>
        <time>2022-05-31T14:15:54.000Z</time>
      </trkpt>
      <trkpt lat="46.4924" lon="5.34905">
        <ele>233.39999389648</ele>
        <time>2022-05-31T14:15:57.000Z</time>
      </trkpt>
      <trkpt lat="46.49225" lon="5.34927">
        <ele>233.60000610352</ele>
        <time>2022-05-31T14:16:00.000Z</time>
      </trkpt>
      <trkpt lat="46.49191" lon="5.34978">
        <ele>234.39999389648</ele>
        <time>2022-05-31T14:16:07.000Z</time>
      </trkpt>
      <trkpt lat="46.4918" lon="5.34994">
        <ele>234.39999389648</ele>
        <time>2022-05-31T14:16:09.000Z</time>
      </trkpt>
      <trkpt lat="46.4917" lon="5.35008">
        <ele>234.39999389648</ele>
        <time>2022-05-31T14:16:11.000Z</time>
      </trkpt>
      <trkpt lat="46.49157" lon="5.3502">
        <ele>234.39999389648</ele>
        <time>2022-05-31T14:16:13.000Z</time>
      </trkpt>
      <trkpt lat="46.4914" lon="5.35035">
        <ele>234.39999389648</ele>
        <time>2022-05-31T14:16:16.000Z</time>
      </trkpt>
      <trkpt lat="46.49129" lon="5.35043">
        <ele>234.60000610352</ele>
        <time>2022-05-31T14:16:18.000Z</time>
      </trkpt>
      <trkpt lat="46.49124" lon="5.35046">
        <ele>234.60000610352</ele>
        <time>2022-05-31T14:16:19.000Z</time>
      </trkpt>
      <trkpt lat="46.49117" lon="5.35049">
        <ele>234.60000610352</ele>
        <time>2022-05-31T14:16:20.000Z</time>
      </trkpt>
      <trkpt lat="46.49105" lon="5.35058">
        <ele>234.60000610352</ele>
        <time>2022-05-31T14:16:22.000Z</time>
      </trkpt>
      <trkpt lat="46.49094" lon="5.35069">
        <ele>234.80000305176</ele>
        <time>2022-05-31T14:16:24.000Z</time>
      </trkpt>
      <trkpt lat="46.49084" lon="5.35077">
        <ele>234.80000305176</ele>
        <time>2022-05-31T14:16:26.000Z</time>
      </trkpt>
      <trkpt lat="46.49068" lon="5.35089">
        <ele>235.19999694824</ele>
        <time>2022-05-31T14:16:29.000Z</time>
      </trkpt>
      <trkpt lat="46.49058" lon="5.35103">
        <ele>235.60000610352</ele>
        <time>2022-05-31T14:16:31.000Z</time>
      </trkpt>
      <trkpt lat="46.49046" lon="5.35112">
        <ele>235.80000305176</ele>
        <time>2022-05-31T14:16:33.000Z</time>
      </trkpt>
      <trkpt lat="46.49041" lon="5.35117">
        <ele>236</ele>
        <time>2022-05-31T14:16:34.000Z</time>
      </trkpt>
      <trkpt lat="46.49026" lon="5.35139">
        <ele>236.19999694824</ele>
        <time>2022-05-31T14:16:37.000Z</time>
      </trkpt>
      <trkpt lat="46.49004" lon="5.35188">
        <ele>236.39999389648</ele>
        <time>2022-05-31T14:16:42.000Z</time>
      </trkpt>
      <trkpt lat="46.4897" lon="5.35261">
        <ele>235.60000610352</ele>
        <time>2022-05-31T14:16:49.000Z</time>
      </trkpt>
      <trkpt lat="46.48938" lon="5.35333">
        <ele>234.80000305176</ele>
        <time>2022-05-31T14:16:56.000Z</time>
      </trkpt>
      <trkpt lat="46.4893" lon="5.35353">
        <ele>234.60000610352</ele>
        <time>2022-05-31T14:16:58.000Z</time>
      </trkpt>
      <trkpt lat="46.48925" lon="5.35363">
        <ele>234.39999389648</ele>
        <time>2022-05-31T14:16:59.000Z</time>
      </trkpt>
      <trkpt lat="46.48897" lon="5.35428">
        <ele>234.19999694824</ele>
        <time>2022-05-31T14:17:06.000Z</time>
      </trkpt>
      <trkpt lat="46.48867" lon="5.35498">
        <ele>234.60000610352</ele>
        <time>2022-05-31T14:17:14.000Z</time>
      </trkpt>
      <trkpt lat="46.48836" lon="5.35567">
        <ele>235.19999694824</ele>
        <time>2022-05-31T14:17:22.000Z</time>
      </trkpt>
      <trkpt lat="46.48828" lon="5.35585">
        <ele>235.19999694824</ele>
        <time>2022-05-31T14:17:24.000Z</time>
      </trkpt>
      <trkpt lat="46.48815" lon="5.35614">
        <ele>235.39999389648</ele>
        <time>2022-05-31T14:17:27.000Z</time>
      </trkpt>
      <trkpt lat="46.48788" lon="5.35682">
        <ele>235.19999694824</ele>
        <time>2022-05-31T14:17:34.000Z</time>
      </trkpt>
      <trkpt lat="46.48754" lon="5.35756">
        <ele>235.39999389648</ele>
        <time>2022-05-31T14:17:42.000Z</time>
      </trkpt>
      <trkpt lat="46.48723" lon="5.35828">
        <ele>235.39999389648</ele>
        <time>2022-05-31T14:17:50.000Z</time>
      </trkpt>
      <trkpt lat="46.48719" lon="5.35836">
        <ele>235.39999389648</ele>
        <time>2022-05-31T14:17:51.000Z</time>
      </trkpt>
      <trkpt lat="46.48691" lon="5.35902">
        <ele>235.80000305176</ele>
        <time>2022-05-31T14:17:59.000Z</time>
      </trkpt>
      <trkpt lat="46.48684" lon="5.35928">
        <ele>236</ele>
        <time>2022-05-31T14:18:02.000Z</time>
      </trkpt>
      <trkpt lat="46.48681" lon="5.35946">
        <ele>236.80000305176</ele>
        <time>2022-05-31T14:18:04.000Z</time>
      </trkpt>
      <trkpt lat="46.48671" lon="5.36015">
        <ele>237.80000305176</ele>
        <time>2022-05-31T14:18:11.000Z</time>
      </trkpt>
      <trkpt lat="46.48669" lon="5.36024">
        <ele>237.80000305176</ele>
        <time>2022-05-31T14:18:12.000Z</time>
      </trkpt>
      <trkpt lat="46.4866" lon="5.36069">
        <ele>238</ele>
        <time>2022-05-31T14:18:16.000Z</time>
      </trkpt>
      <trkpt lat="46.48645" lon="5.36139">
        <ele>237.60000610352</ele>
        <time>2022-05-31T14:18:22.000Z</time>
      </trkpt>
      <trkpt lat="46.48642" lon="5.36159">
        <ele>236.80000305176</ele>
        <time>2022-05-31T14:18:24.000Z</time>
      </trkpt>
      <trkpt lat="46.48639" lon="5.36205">
        <ele>236.60000610352</ele>
        <time>2022-05-31T14:18:28.000Z</time>
      </trkpt>
      <trkpt lat="46.48631" lon="5.36275">
        <ele>237</ele>
        <time>2022-05-31T14:18:35.000Z</time>
      </trkpt>
      <trkpt lat="46.48625" lon="5.36301">
        <ele>237</ele>
        <time>2022-05-31T14:18:38.000Z</time>
      </trkpt>
      <trkpt lat="46.48622" lon="5.36308">
        <ele>237.39999389648</ele>
        <time>2022-05-31T14:18:39.000Z</time>
      </trkpt>
      <trkpt lat="46.48618" lon="5.36315">
        <ele>237.60000610352</ele>
        <time>2022-05-31T14:18:40.000Z</time>
      </trkpt>
      <trkpt lat="46.48609" lon="5.36322">
        <ele>237.80000305176</ele>
        <time>2022-05-31T14:18:42.000Z</time>
      </trkpt>
      <trkpt lat="46.48583" lon="5.36328">
        <ele>239</ele>
        <time>2022-05-31T14:18:47.000Z</time>
      </trkpt>
      <trkpt lat="46.48562" lon="5.3633">
        <ele>240</ele>
        <time>2022-05-31T14:18:51.000Z</time>
      </trkpt>
      <trkpt lat="46.48543" lon="5.36333">
        <ele>240.60000610352</ele>
        <time>2022-05-31T14:18:55.000Z</time>
      </trkpt>
      <trkpt lat="46.48526" lon="5.36335">
        <ele>241.19999694824</ele>
        <time>2022-05-31T14:18:58.000Z</time>
      </trkpt>
      <trkpt lat="46.48495" lon="5.36339">
        <ele>242.19999694824</ele>
        <time>2022-05-31T14:19:04.000Z</time>
      </trkpt>
      <trkpt lat="46.48489" lon="5.3634">
        <ele>242.39999389648</ele>
        <time>2022-05-31T14:19:05.000Z</time>
      </trkpt>
      <trkpt lat="46.48448" lon="5.36346">
        <ele>243.39999389648</ele>
        <time>2022-05-31T14:19:12.000Z</time>
      </trkpt>
      <trkpt lat="46.48436" lon="5.36349">
        <ele>243.39999389648</ele>
        <time>2022-05-31T14:19:14.000Z</time>
      </trkpt>
      <trkpt lat="46.48407" lon="5.36361">
        <ele>243.60000610352</ele>
        <time>2022-05-31T14:19:19.000Z</time>
      </trkpt>
      <trkpt lat="46.48376" lon="5.3639">
        <ele>243.80000305176</ele>
        <time>2022-05-31T14:19:25.000Z</time>
      </trkpt>
      <trkpt lat="46.48333" lon="5.36437">
        <ele>243.80000305176</ele>
        <time>2022-05-31T14:19:34.000Z</time>
      </trkpt>
      <trkpt lat="46.48329" lon="5.36442">
        <ele>244</ele>
        <time>2022-05-31T14:19:35.000Z</time>
      </trkpt>
      <trkpt lat="46.48311" lon="5.36462">
        <ele>244.80000305176</ele>
        <time>2022-05-31T14:19:39.000Z</time>
      </trkpt>
      <trkpt lat="46.48302" lon="5.36472">
        <ele>245.39999389648</ele>
        <time>2022-05-31T14:19:41.000Z</time>
      </trkpt>
      <trkpt lat="46.48289" lon="5.36487">
        <ele>245.80000305176</ele>
        <time>2022-05-31T14:19:44.000Z</time>
      </trkpt>
      <trkpt lat="46.48253" lon="5.36527">
        <ele>247</ele>
        <time>2022-05-31T14:19:52.000Z</time>
      </trkpt>
      <trkpt lat="46.48249" lon="5.36532">
        <ele>247.19999694824</ele>
        <time>2022-05-31T14:19:53.000Z</time>
      </trkpt>
      <trkpt lat="46.48226" lon="5.36556">
        <ele>247.60000610352</ele>
        <time>2022-05-31T14:19:58.000Z</time>
      </trkpt>
      <trkpt lat="46.48215" lon="5.36559">
        <ele>248.19999694824</ele>
        <time>2022-05-31T14:20:00.000Z</time>
      </trkpt>
      <trkpt lat="46.48204" lon="5.3656">
        <ele>248.60000610352</ele>
        <time>2022-05-31T14:20:02.000Z</time>
      </trkpt>
      <trkpt lat="46.48195" lon="5.36566">
        <ele>249.19999694824</ele>
        <time>2022-05-31T14:20:04.000Z</time>
      </trkpt>
      <trkpt lat="46.48188" lon="5.36579">
        <ele>249.60000610352</ele>
        <time>2022-05-31T14:20:06.000Z</time>
      </trkpt>
      <trkpt lat="46.48185" lon="5.36587">
        <ele>249.80000305176</ele>
        <time>2022-05-31T14:20:07.000Z</time>
      </trkpt>
      <trkpt lat="46.48179" lon="5.36603">
        <ele>249.80000305176</ele>
        <time>2022-05-31T14:20:09.000Z</time>
      </trkpt>
      <trkpt lat="46.48171" lon="5.36614">
        <ele>250</ele>
        <time>2022-05-31T14:20:11.000Z</time>
      </trkpt>
      <trkpt lat="46.48152" lon="5.36636">
        <ele>250.19999694824</ele>
        <time>2022-05-31T14:20:15.000Z</time>
      </trkpt>
      <trkpt lat="46.48145" lon="5.36649">
        <ele>250.39999389648</ele>
        <time>2022-05-31T14:20:17.000Z</time>
      </trkpt>
      <trkpt lat="46.48141" lon="5.36655">
        <ele>250.39999389648</ele>
        <time>2022-05-31T14:20:18.000Z</time>
      </trkpt>
      <trkpt lat="46.48134" lon="5.36659">
        <ele>250.39999389648</ele>
        <time>2022-05-31T14:20:19.000Z</time>
      </trkpt>
      <trkpt lat="46.48119" lon="5.36673">
        <ele>250.80000305176</ele>
        <time>2022-05-31T14:20:22.000Z</time>
      </trkpt>
      <trkpt lat="46.48108" lon="5.36686">
        <ele>251.19999694824</ele>
        <time>2022-05-31T14:20:25.000Z</time>
      </trkpt>
      <trkpt lat="46.48105" lon="5.36691">
        <ele>251.19999694824</ele>
        <time>2022-05-31T14:20:26.000Z</time>
      </trkpt>
      <trkpt lat="46.48103" lon="5.36697">
        <ele>251.39999389648</ele>
        <time>2022-05-31T14:20:27.000Z</time>
      </trkpt>
      <trkpt lat="46.48106" lon="5.36709">
        <ele>251.80000305176</ele>
        <time>2022-05-31T14:20:29.000Z</time>
      </trkpt>
      <trkpt lat="46.4811" lon="5.36713">
        <ele>251.80000305176</ele>
        <time>2022-05-31T14:20:30.000Z</time>
      </trkpt>
      <trkpt lat="46.48124" lon="5.36723">
        <ele>252.39999389648</ele>
        <time>2022-05-31T14:20:33.000Z</time>
      </trkpt>
      <trkpt lat="46.48165" lon="5.36754">
        <ele>253.60000610352</ele>
        <time>2022-05-31T14:20:42.000Z</time>
      </trkpt>
      <trkpt lat="46.48182" lon="5.36768">
        <ele>254.80000305176</ele>
        <time>2022-05-31T14:20:46.000Z</time>
      </trkpt>
      <trkpt lat="46.48195" lon="5.36778">
        <ele>256</ele>
        <time>2022-05-31T14:20:49.000Z</time>
      </trkpt>
      <trkpt lat="46.48211" lon="5.36792">
        <ele>256.79998779297</ele>
        <time>2022-05-31T14:20:53.000Z</time>
      </trkpt>
      <trkpt lat="46.48215" lon="5.36795">
        <ele>257</ele>
        <time>2022-05-31T14:20:54.000Z</time>
      </trkpt>
      <trkpt lat="46.48231" lon="5.36809">
        <ele>258</ele>
        <time>2022-05-31T14:20:58.000Z</time>
      </trkpt>
      <trkpt lat="46.48246" lon="5.36823">
        <ele>258.79998779297</ele>
        <time>2022-05-31T14:21:02.000Z</time>
      </trkpt>
      <trkpt lat="46.48258" lon="5.36834">
        <ele>259.60000610352</ele>
        <time>2022-05-31T14:21:05.000Z</time>
      </trkpt>
    </trkseg>
  </trk>
</gpx>